[[{"header":{"parameterUnit":"m.s-1","parameterCategory":1,"la1":30.6,"la2":29.2853,"lo1":-89.7004,"lo2":-87.6739,"dx":0.0162,"dy":0.0183,"nx":112,"ny":82,"refTime":"2022-12-16T18:00:00:Z","depth":0,"parameterNumber":2,"parameterNumberName":"U-component_of_WINDS"},"data":[0.0,0.0,0.0,0.0,0.0,0.0,0.0,0.0,0.0,0.0,0.0,0.0,0.0,0.0,0.0,0.0,0.0,0.0,0.0,0.0,0.0,0.0,0.0,0.0,0.0,0.0,0.0,0.0,0.0,0.0,0.0,0.0,0.0,0.0,0.0,0.0,0.0,0.0,0.0,0.0,0.0,0.0,0.0,0.0,0.0,0.0,0.0,0.0,0.0,0.0,0.0,0.0,0.0,0.0,0.0,0.0,0.0,0.0,0.0,0.0,0.0,0.0,0.0,0.0,0.0,0.0,0.0,0.0,0.0,0.0,0.0,0.0,0.0,0.0,0.0,0.0,0.0,0.0,0.0,0.0,0.0,0.0,0.0,0.0,0.0,0.0,0.0,0.0,0.0,0.0,0.6595,0.8601,0.9986,1.0864,1.0965,1.1575,1.0382,0.6568,0.0,0.0,0.0,0.0,0.0,0.0,0.0,0.0,0.0,0.0,0.0,0.0,0.0,0.0,0.0,0.0,0.0,0.0,0.0,0.0,0.0,0.0,0.0,0.0,0.0,0.0,0.0,0.0,0.0,0.0,0.0,0.0,0.0,0.0,0.0,0.0,0.0,0.0,0.0,0.0,0.0,0.0,0.0,0.0,0.0,0.0,0.0,0.0,0.0,0.0,0.0,0.0,0.0,0.0,0.0,0.0,0.0,0.0,0.0,0.0,0.0,0.0,0.0,0.0,0.0,0.0,0.0,0.0,0.0,0.0,0.0,0.0,0.0,0.0,0.0,0.0,0.0,0.0,0.0,0.0,0.0,0.0,0.0,0.0,0.0,0.0,0.0,0.0,0.0,0.0,0.0,0.0,0.0,0.0,0.0,0.0,0.0,0.0,0.0,0.0,0.0,0.0,0.0,0.0,0.8397,0.8763,0.9988,1.1015,1.1616,1.2295,1.0801,0.6329,0.0,0.0,0.0,0.0,0.0,0.0,0.0,0.0,0.0,0.0,0.0,0.0,0.0,0.0,0.0,0.0,0.0,0.0,0.0,0.0,0.0,0.0,0.0,0.0,0.0,0.0,0.0,0.0,0.0,0.0,0.0,0.0,0.0,0.0,0.0,0.0,0.0,0.0,0.0,0.0,0.0,0.0,0.0,0.0,0.0,0.0,0.0,0.0,0.0,0.0,0.0,0.0,0.0,0.0,0.0,0.0,0.0,0.0,0.0,0.0,0.0,0.0,0.0,0.0,0.0,0.0,0.0,0.0,0.0,0.0,0.0,0.0,0.0,0.0,0.0,0.0,0.0,0.0,0.0,0.0,0.0,0.0,0.0,0.0,0.0,0.0,0.0,0.0,0.0,0.0,0.0,0.0,0.0,0.0,0.0,0.0,0.0,0.0,0.0,0.0,0.0,0.0,0.0,0.707,0.8088,0.9387,0.9997,1.0661,1.1715,1.2129,1.0565,0.6468,0.5341,0.0,0.0,0.0,0.0,0.0,0.0,0.0,0.0,0.0,0.0,0.0,0.0,0.0,0.0,0.0,0.0,0.0,0.0,0.0,0.0,0.0,0.0,0.0,0.0,0.0,0.0,0.0,0.0,0.0,0.0,0.0,0.0,0.0,0.0,0.0,0.0,0.0,0.0,0.0,0.0,0.0,0.0,0.0,0.0,0.0,0.0,0.0,0.0,0.0,0.0,0.0,0.0,0.0,0.0,0.0,0.0,0.0,0.0,0.0,0.0,0.0,0.0,0.0,0.0,0.0,0.0,0.0,0.0,0.0,0.0,0.0,0.0,0.0,0.0,0.0,0.0,0.0,0.0,0.0,0.0,0.0,0.0,0.0,0.0,0.0,0.0,0.0,0.0,0.0,0.0,0.0,0.0,0.0,0.0,0.0,0.0,0.0,0.0,0.0,0.0,0.0,0.0,0.8159,0.8318,1.0018,1.0241,1.0762,1.1953,1.1715,1.003,0.6631,0.5047,0.0,0.0,0.0,0.0,0.0,0.0,0.0,0.0,0.0,0.0,0.0,0.0,0.0,0.0,0.0,0.0,0.0,0.0,0.0,0.0,0.0,0.0,0.0,0.0,0.0,0.0,0.0,0.0,0.0,0.0,0.0,0.0,0.0,0.0,0.0,0.0,0.0,0.0,0.0,0.0,0.0,0.0,0.0,0.0,0.0,0.0,0.0,0.0,0.0,0.0,0.0,0.0,0.0,0.0,0.0,0.0,0.0,0.0,0.0,0.0,0.0,0.0,0.0,0.0,0.0,0.0,0.0,0.0,0.0,0.0,0.0,0.0,0.0,0.0,0.0,0.0,0.0,0.0,0.0,0.0,0.0,0.0,0.0,0.0,0.0,0.0,0.0,0.0,0.0,0.0,0.0,0.0,0.0,0.0,0.0,0.0,0.0,0.0,0.0,0.0,0.0,0.0,1.0188,1.0906,1.028,1.1099,1.1953,1.2677,1.1435,0.9418,0.6678,0.4079,0.0,0.0,0.0,0.0,0.0,0.0,0.0,0.0,0.0,0.0,0.0,0.0,0.0,0.0,0.0,0.0,0.0,0.0,0.0,0.0,0.0,0.0,0.0,0.0,0.0,0.0,0.0,0.0,0.0,0.0,0.0,0.0,0.0,0.0,0.0,0.0,0.0,0.0,0.0,0.0,0.0,0.0,0.0,0.0,0.0,0.0,0.0,0.0,0.0,0.0,0.0,0.0,0.0,0.0,0.0,0.0,0.0,0.0,0.0,0.0,0.0,0.0,0.0,0.0,0.0,0.0,0.0,0.0,0.0,0.0,0.0,0.0,0.0,0.0,0.0,0.0,0.0,0.0,0.0,0.0,0.0,0.0,0.0,0.0,0.0,0.0,0.0,0.0,0.0,0.0,0.0,0.0,0.0,0.0,0.0,0.0,0.0,0.0,0.0,0.0,0.0,0.0,0.8898,1.014,1.0554,1.1657,1.2686,1.3369,1.3232,1.1244,0.6794,0.0,0.0,0.0,0.0,0.0,0.0,0.0,0.0,0.0,0.0,0.0,0.0,0.0,0.0,0.0,0.0,0.0,0.0,0.0,0.0,0.0,0.0,0.0,0.0,0.0,0.0,0.0,0.0,0.0,0.0,0.0,0.0,0.0,0.0,0.0,0.0,0.0,0.0,0.0,0.0,0.0,0.0,0.0,0.0,0.0,0.0,0.0,0.0,0.0,0.0,0.0,0.0,0.0,0.0,0.0,0.0,0.0,0.0,0.0,0.0,0.0,0.0,0.0,0.0,0.0,0.0,0.0,0.0,0.0,0.0,0.0,0.0,0.0,0.0,0.0,0.0,0.0,0.0,0.0,0.0,0.0,0.0,0.0,0.0,0.0,0.0,0.0,0.0,0.0,0.0,0.0,0.0,0.0,0.0,0.0,0.0,0.0,0.0,0.0,0.0,0.0,0.0,0.7002,0.9103,1.0801,1.1384,1.2782,1.3928,1.4573,1.4541,1.2311,0.7298,0.0,0.0,0.0,0.0,0.0,0.0,0.0,0.0,0.0,0.0,0.0,0.0,0.0,0.0,0.0,0.0,0.0,0.0,0.0,0.0,0.0,0.0,0.0,0.0,0.0,0.0,0.0,0.0,0.0,0.0,0.0,0.0,0.0,0.0,0.0,0.0,0.0,0.0,0.0,0.0,0.0,0.0,0.0,0.0,0.0,0.0,0.0,0.0,0.0,0.0,0.0,0.0,0.0,0.0,0.0,0.0,0.0,0.0,0.0,0.0,0.0,0.0,0.0,0.0,0.0,0.0,0.0,0.0,0.0,0.0,0.0,0.0,0.0,0.0,0.0,0.0,0.0,0.0,0.0,0.0,0.0,0.0,0.0,0.0,0.0,0.0,0.0,0.0,0.0,0.0,0.0,0.0,0.0,0.0,0.0,0.0,0.0,0.0,0.0,0.0,0.0,0.0,0.7869,1.1438,1.3521,1.287,1.4415,1.5736,1.6336,1.4959,1.2336,0.0,0.0,0.0,0.0,0.0,0.0,0.0,0.0,0.0,0.0,0.0,0.0,0.0,0.0,0.0,0.0,0.0,0.0,0.0,0.0,0.0,0.0,0.0,0.0,0.0,0.0,0.0,0.0,0.0,0.0,0.0,0.0,0.0,0.0,0.0,0.0,0.0,0.0,0.0,0.0,0.0,0.0,0.0,0.0,0.0,0.0,0.0,0.0,0.0,0.0,0.0,0.0,0.0,0.0,0.0,0.0,0.0,0.0,0.0,0.0,0.0,0.0,0.0,0.0,0.0,0.0,0.0,0.0,0.0,0.0,0.0,0.0,0.0,0.0,0.0,0.0,0.0,0.0,0.0,0.0,0.0,0.0,0.0,0.0,0.0,0.0,0.0,0.0,0.0,0.0,0.0,0.0,0.0,0.0,0.0,0.0,0.0,0.0,0.0,0.0,0.0,0.0,0.0,0.698,1.0955,1.3521,1.287,1.4778,1.6194,1.6378,1.671,1.4663,0.9467,0.0,0.0,0.0,0.0,0.0,0.0,0.0,0.0,0.0,0.0,0.0,0.0,0.0,0.0,0.0,0.0,0.0,0.0,0.0,0.0,0.0,0.0,0.0,0.0,0.0,0.0,0.0,0.0,0.0,0.0,0.0,0.0,0.0,0.0,0.0,0.0,0.0,0.0,0.0,0.0,0.0,0.0,0.0,0.0,0.0,0.0,0.0,0.0,0.0,0.0,0.0,0.0,0.0,0.0,0.0,0.0,0.0,0.0,0.0,0.0,0.0,0.0,0.0,0.0,0.0,0.0,0.0,0.0,0.0,0.0,0.0,0.0,0.0,0.0,0.0,0.0,0.0,0.0,0.0,0.0,0.0,0.0,0.0,0.0,0.0,0.0,0.0,0.0,0.0,0.0,0.0,0.0,0.0,0.0,0.0,0.0,0.0,0.0,0.0,0.0,0.0,0.0,0.7462,1.1725,1.4769,1.4655,1.6291,1.7518,1.7769,1.8503,1.6915,1.2068,0.0,0.0,0.0,0.0,0.0,0.0,0.0,0.0,0.0,0.0,0.0,0.0,0.0,0.0,0.0,0.0,0.0,0.0,0.0,0.0,0.0,0.0,0.0,0.0,0.0,0.0,0.0,0.0,0.0,0.0,0.0,0.0,0.0,0.0,0.0,0.0,0.0,0.0,0.0,0.0,0.0,0.0,0.0,0.0,0.0,0.0,0.0,0.0,0.0,0.0,0.0,0.0,0.0,0.0,0.0,0.0,0.0,0.0,0.0,0.0,0.0,0.0,0.0,0.0,0.0,0.0,0.0,0.0,0.0,0.0,0.0,0.0,0.0,0.0,0.0,0.0,0.0,0.0,0.0,0.0,0.0,0.0,0.0,0.0,0.0,0.0,0.0,0.0,0.0,0.0,0.0,0.0,0.0,0.0,0.0,0.0,0.0,0.0,0.0,0.0,0.0,0.0,0.8906,1.3306,1.6797,1.7403,1.8387,1.9224,1.9846,2.0113,1.8757,1.5278,0.0,0.0,0.0,0.0,0.0,0.0,0.0,0.0,0.0,0.0,0.0,0.0,0.0,0.0,0.0,0.0,0.0,0.0,0.0,0.0,0.0,0.0,0.0,0.0,0.0,0.0,0.0,0.0,0.0,0.0,0.0,0.0,0.0,0.0,0.0,0.0,0.0,0.0,0.0,0.0,0.0,0.0,0.0,0.0,0.0,0.0,0.0,0.0,0.0,0.0,0.0,0.0,0.0,0.0,0.0,0.0,0.0,0.0,0.0,0.0,-1.5136,-1.2795,0.0,0.0,0.0,0.0,0.0,0.0,0.0,0.0,0.0,0.0,0.0,0.0,0.0,0.0,0.0,0.0,0.0,0.0,0.0,0.0,0.0,0.0,0.0,0.0,0.0,0.0,0.0,0.0,0.0,0.0,0.0,0.0,0.0,0.0,0.0,0.0,0.0,0.0,0.0,0.0,0.9909,1.4487,1.7861,1.8034,1.9017,1.9752,1.9886,1.9864,1.8643,1.5829,1.7592,0.0,0.0,0.0,0.0,0.0,0.0,0.0,0.0,0.0,0.0,0.0,0.0,0.0,0.0,0.0,0.0,0.0,0.0,0.0,0.0,0.0,0.0,0.0,0.0,0.0,0.0,0.0,0.0,0.0,0.0,0.0,0.0,0.0,0.0,0.0,0.0,0.0,0.0,0.0,0.0,0.0,0.0,0.0,0.0,0.0,0.0,0.0,0.0,0.0,0.0,0.0,0.0,0.0,0.0,0.0,0.0,0.0,0.0,0.0,-1.6101,-1.4859,0.0,0.0,0.0,0.0,0.0,0.0,0.0,0.0,0.0,0.0,0.0,0.0,0.0,0.0,0.0,0.0,0.0,0.0,0.0,0.0,0.0,0.0,0.0,0.0,0.0,0.0,0.0,0.0,0.0,0.0,0.0,0.0,0.0,0.0,0.0,0.0,0.0,0.0,0.0,0.0,1.057,1.5728,1.9419,1.9475,2.0206,2.0676,2.0749,2.0506,1.9641,1.8051,1.9878,0.0,0.0,0.0,0.0,0.0,0.0,0.0,0.0,0.0,0.0,0.0,0.0,0.0,0.0,0.0,0.0,0.0,0.0,0.0,0.0,0.0,0.0,0.0,0.0,0.0,0.0,0.0,0.0,0.0,0.0,0.0,0.0,0.0,0.0,0.0,0.0,0.0,0.0,0.0,0.0,0.0,0.0,0.0,0.0,0.0,0.0,0.0,0.0,0.0,0.0,0.0,0.0,0.0,-1.9869,-2.033,-2.0342,-2.0271,-2.066,-2.1197,-1.7975,-1.8047,-2.0125,-1.5958,0.0,0.0,0.0,0.0,0.0,0.0,0.0,0.0,0.0,0.0,0.0,0.0,0.0,0.0,0.0,0.0,0.0,0.0,0.0,0.0,0.0,0.0,1.019,0.9896,1.1633,1.3246,1.2884,0.0,0.0,0.0,0.0,0.0,0.0,0.0,0.0,0.0,0.0,0.0,1.1468,1.701,2.0983,2.1325,2.1461,2.1599,2.1822,2.1171,2.0599,2.0227,2.0846,2.0863,0.0,0.0,0.0,0.0,0.0,0.0,0.0,0.0,0.0,0.0,0.0,0.0,0.0,0.0,0.0,0.0,0.0,0.0,0.0,0.0,0.0,0.0,0.0,0.0,0.0,0.0,0.0,0.0,0.0,0.0,0.0,0.0,-1.4485,-1.478,0.0,0.0,0.0,0.0,0.0,0.0,0.0,0.0,0.0,0.0,0.0,0.0,0.0,-1.8066,-1.9809,-2.0611,-2.1822,-2.3447,-2.4949,-2.5677,-2.5684,-2.5619,-2.6053,-2.6715,-2.4053,0.0,-2.2159,-2.0866,0.0,0.0,0.0,0.0,0.0,0.0,0.0,0.0,0.0,0.0,0.0,0.0,0.0,0.0,0.0,0.0,0.0,0.0,0.0,0.0,0.0,0.0,0.9407,1.1493,1.299,1.4185,1.5315,1.3316,0.9967,0.5578,0.852,0.9818,0.0,0.0,0.0,0.0,0.0,0.0,1.3591,1.8363,2.1939,2.2946,2.2243,2.1847,2.2262,2.0813,1.9854,1.9782,2.0193,1.9654,1.7905,1.85,0.0,0.0,0.0,0.0,0.0,0.0,0.0,0.0,0.0,0.0,0.0,0.0,0.0,0.0,0.0,0.0,0.0,0.0,0.0,0.0,0.0,0.0,0.0,0.0,0.0,0.0,0.0,0.0,0.0,-1.5593,-1.6985,-1.7543,-1.6829,-1.5876,0.0,0.0,0.0,0.0,0.0,0.0,0.0,0.0,0.0,-1.9348,-1.9788,-2.1029,-2.3231,-2.4097,-2.5136,-2.6398,-2.7558,-2.8145,-2.8217,-2.8189,-2.8109,-2.7973,-2.7271,-2.6717,-2.6101,-2.3368,-2.1594,-2.0462,0.0,0.0,0.0,0.0,-1.516,-1.4313,-1.6211,-1.7022,-1.6998,-1.5641,0.0,0.0,0.0,0.0,0.0,0.0,0.0,-0.0146,0.3931,0.5525,0.6616,0.899,1.0744,1.2292,1.3936,1.3443,1.2366,1.1436,1.2582,1.1723,0.5543,0.5561,0.0,0.0,0.0,1.348,1.4751,1.9448,2.2839,2.3351,2.2939,2.2578,2.2428,2.128,2.0339,1.9741,2.055,2.0416,1.9092,1.9089,1.7852,0.0,0.0,0.0,0.0,0.0,0.0,0.0,0.0,0.0,0.0,0.0,0.0,0.0,0.0,0.0,0.0,0.0,0.0,0.0,0.0,0.0,0.0,0.0,0.0,0.0,0.0,0.0,0.0,-1.787,-1.905,-2.0227,-1.9296,-1.8191,0.0,0.0,0.0,0.0,0.0,0.0,-1.8725,-1.9102,-2.0376,-2.2733,-2.303,-2.4161,-2.6301,-2.7011,-2.7803,-2.8672,-2.9256,-2.9578,-2.9686,-2.9678,-2.9338,-2.8758,-2.9311,-2.9559,-2.9299,-2.583,-2.4167,-2.3672,-2.2631,-2.1039,-1.938,-1.9829,-1.9051,-1.8027,-1.9772,-2.0342,-2.0069,-1.8825,-1.7008,-1.4776,-1.1968,0.0,0.0,0.0,0.0,-0.2978,0.0179,0.1977,0.348,0.5488,0.7396,0.9297,1.1412,1.211,1.2757,1.4126,1.3545,1.1307,0.6439,0.6295,0.0,0.6562,1.071,1.436,1.5686,2.0033,2.3141,2.3599,2.3514,2.3204,2.2707,2.1988,2.1105,2.001,2.105,2.1327,2.0516,1.9809,1.9542,1.9798,0.0,0.0,0.0,0.0,0.0,0.0,0.0,0.0,0.0,0.0,0.0,0.0,0.0,0.0,0.0,0.0,0.0,0.0,0.0,0.0,0.0,0.0,0.0,0.0,0.0,0.0,0.0,0.0,0.0,-2.1674,-2.1764,0.0,0.0,0.0,0.0,-1.7619,-1.8414,-1.9627,-2.1235,-2.2649,-2.4213,-2.6002,-2.6858,-2.7778,-2.8797,-2.9059,-2.9613,-3.0461,-3.0446,-3.0448,-3.0431,-3.0443,-3.042,-3.0378,-3.0497,-3.0522,-3.0432,-2.9274,-2.7852,-2.6255,-2.461,-2.2786,-2.1252,-2.2658,-2.2107,-2.1013,-2.333,-2.372,-2.2916,-2.1193,-1.7964,-1.4452,-1.3032,-1.1058,0.0,0.0,-0.7628,-0.6198,-0.3722,-0.1459,0.0597,0.2113,0.3636,0.5548,0.8397,0.9996,1.0584,0.942,0.9051,0.8196,0.5728,0.0,0.7001,0.8765,1.0547,1.2992,1.6623,1.9837,2.243,2.4163,2.3794,2.3406,2.3359,2.2738,2.1864,2.073,2.1499,2.1661,2.0991,2.1271,2.0266,1.7698,1.941,0.0,0.0,0.0,0.0,0.0,0.0,0.0,0.0,0.0,0.0,0.0,0.0,0.0,0.0,0.0,0.0,0.0,0.0,0.0,0.0,0.0,0.0,0.0,0.0,0.0,0.0,0.0,0.0,-2.1857,-2.194,0.0,-2.0448,-2.1172,-2.1626,-2.1384,-2.3158,-2.4536,-2.5137,-2.5674,-2.6469,-2.7618,-2.7941,-2.8536,-2.9427,-2.9653,-2.9946,-3.0337,-3.0447,-3.0522,-3.0565,-3.0567,-3.056,-3.0562,-3.0546,-3.0563,-3.0567,-3.0175,-2.9681,-2.9121,-2.8519,-2.7437,-2.6247,-2.6612,-2.5629,-2.4213,-2.4882,-2.4667,-2.3765,-2.1632,-1.933,-1.7119,-1.5652,-1.4372,-1.3131,-1.1923,-1.0356,-0.8721,-0.7246,-0.627,-0.4556,-0.0219,0.2713,0.4763,0.5822,0.7847,0.9075,0.7653,0.8134,0.8194,0.6343,0.6029,0.6169,0.6393,1.1089,1.5226,1.7028,2.0231,2.2671,2.3484,2.3542,2.3452,2.3222,2.2416,2.1575,2.0752,2.1105,2.1263,2.1007,2.1675,2.1608,2.0619,2.14,2.0314,0.0,0.0,0.0,0.0,0.0,0.0,0.0,0.0,0.0,0.0,0.0,0.0,0.0,0.0,0.0,0.0,0.0,0.0,0.0,0.0,0.0,0.0,0.0,0.0,0.0,-2.0985,-2.1817,-2.3089,-2.3393,-2.3303,-2.2831,-2.3889,-2.4551,-2.4479,-2.6169,-2.7274,-2.7433,-2.747,-2.7827,-2.8503,-2.867,-2.8951,-2.9382,-2.9744,-2.9931,-3.0035,-3.0237,-3.0356,-3.0393,-3.0435,-3.0471,-3.0459,-3.0436,-3.047,-3.0501,-3.0525,-3.0565,-3.0609,-3.0604,-3.011,-2.9408,-2.9224,-2.7916,-2.6188,-2.5733,-2.5261,-2.4607,-2.2981,-2.1404,-1.9893,-1.8665,-1.7594,-1.652,-1.5073,-1.3309,-1.1593,-1.0418,-0.8231,-0.5321,-0.1035,0.3025,0.5898,0.5921,0.6691,0.7361,0.7308,0.7304,0.7064,0.616,0.5786,0.5841,0.6679,1.2146,1.6363,1.6952,1.9976,2.2238,2.2627,2.3239,2.3585,2.3446,2.2259,2.143,2.1273,2.1117,2.0959,2.0748,2.1196,2.1725,2.2298,2.2712,2.3484,2.4536,0.0,0.0,0.0,0.0,0.0,0.0,0.0,0.0,0.0,0.0,0.0,0.0,0.0,0.0,0.0,0.0,0.0,0.0,0.0,0.0,0.0,0.0,0.0,-2.1718,-2.2587,-2.3676,-2.5486,-2.6221,-2.6638,-2.6841,-2.6878,-2.6804,-2.6617,-2.6988,-2.7416,-2.7881,-2.803,-2.8318,-2.8755,-2.9151,-2.9172,-2.8792,-2.9362,-2.9678,-2.9696,-2.9893,-2.9999,-2.9999,-3.0132,-3.0186,-3.0198,-3.026,-3.0296,-3.0305,-3.051,-3.06,-3.0594,-3.0604,-3.0471,-3.0294,-3.0237,-2.883,-2.6871,-2.614,-2.5805,-2.5622,-2.5402,-2.409,-2.2443,-2.1842,-2.0626,-1.9203,-1.7913,-1.6395,-1.4773,-1.3076,-0.7115,-0.1298,-0.0375,0.4389,0.8672,0.8584,0.6435,0.5388,0.8383,0.6714,0.495,0.5215,0.5229,0.6427,1.0186,1.3719,0.0,1.6507,1.9122,2.1115,2.1686,2.2881,2.3748,2.3999,2.2242,2.1499,2.2356,2.1657,2.0958,2.0413,2.0094,2.0658,2.2126,2.3388,2.5674,2.8988,0.0,0.0,0.0,0.0,0.0,0.0,0.0,0.0,0.0,0.0,0.0,0.0,0.0,0.0,0.0,0.0,0.0,0.0,0.0,0.0,0.0,-2.1196,-2.185,-2.2668,-2.2954,-2.3682,-2.5368,-2.5714,-2.5815,-2.587,-2.6415,-2.6738,-2.6677,-2.7317,-2.7756,-2.7877,-2.7913,-2.8012,-2.813,-2.8254,-2.8376,-2.8511,-2.8573,-2.8913,-2.9474,-2.9602,-2.9685,-2.978,-2.998,-2.9975,-2.9839,-3.0008,-3.0131,-3.0237,-3.044,-3.0567,-3.0592,-3.0602,-3.054,-3.0428,-3.0314,-2.9602,-2.8635,-2.8144,-2.7428,-2.6722,-2.6401,-2.5085,-2.3511,-2.3026,-2.2242,-2.1051,-1.8861,-1.7553,-1.61,-1.2829,-0.5722,-0.0051,-0.2592,0.2943,0.8185,0.6119,0.5026,0.6428,1.2949,1.3593,1.1239,0.556,0.836,1.2052,1.4216,1.5765,1.712,1.835,2.0085,2.0901,2.0127,2.1408,2.2276,2.2232,2.1923,2.2136,2.3049,2.3121,2.2867,2.2199,2.3122,2.2192,1.9108,2.01,2.3412,0.0,0.0,0.0,0.0,0.0,0.0,0.0,0.0,0.0,0.0,0.0,0.0,0.0,0.0,0.0,0.0,0.0,0.0,0.0,0.0,0.0,0.0,-2.3112,-2.4093,-2.4616,-2.4903,-2.5306,-2.5923,-2.6586,-2.6833,-2.6533,-2.7204,-2.7465,-2.7005,-2.7518,-2.784,-2.7648,-2.7811,-2.7823,-2.7648,-2.7811,-2.7908,-2.7946,-2.804,-2.8304,-2.8772,-2.8901,-2.9013,-2.9087,-2.9193,-2.9191,-2.9087,-2.9383,-2.9455,-2.9393,-2.977,-2.9857,-2.9806,0.0,0.0,0.0,0.0,-2.9766,-2.969,-2.9091,-2.8639,-2.8308,-2.811,-2.7023,-2.5701,-2.5211,-2.4329,-2.2987,-2.0668,-1.6537,-1.1819,-0.7279,-0.1291,0.3557,0.3446,0.7062,1.0163,0.8867,0.9787,1.2027,1.597,1.6774,0.0,1.0416,1.1343,1.3365,1.5135,1.6436,1.759,1.8588,2.0194,2.1012,2.0394,2.1437,2.2408,2.2929,2.2321,0.0,0.0,0.0,2.3405,2.2568,2.3981,0.0,0.0,0.0,2.5081,2.854,2.764,0.0,0.0,2.038,1.7452,0.0,0.0,0.0,0.0,0.0,0.0,0.0,0.0,0.0,0.0,0.0,0.0,0.0,0.0,0.0,0.0,-2.458,-2.603,-2.6814,-2.7487,-2.7569,-2.6848,-2.7962,-2.8553,-2.7887,-2.8343,-2.8289,-2.7333,-2.7474,-2.7482,-2.7161,-2.7452,0.0,0.0,0.0,-2.7452,-2.7144,-2.7435,-2.766,-2.7805,-2.7996,-2.8056,-2.8074,-2.8152,-2.8108,-2.8012,-2.8464,-2.8446,-2.8142,-2.8725,-2.875,-2.8566,-2.9669,-3.0085,-2.9931,-2.9227,-2.9512,-3.0102,-2.9205,0.0,0.0,-2.8395,-2.7313,-2.6237,-2.4602,-2.3088,-2.1566,-1.9883,-1.2674,-0.447,0.0046,0.3821,0.7342,1.0851,1.2318,1.3337,1.4868,1.7715,1.9572,1.8133,1.7845,1.7747,1.7396,1.4466,1.2845,1.4929,1.6746,1.8037,1.8388,2.0073,2.13,2.1458,2.2148,0.0,2.4681,2.3133,2.2877,2.4663,2.4364,2.3636,2.2647,2.3769,2.2832,1.9549,2.5749,2.8627,2.7901,2.7815,2.741,2.6586,2.1229,1.8905,0.0,0.0,0.0,0.0,0.0,0.0,0.0,0.0,0.0,0.0,0.0,0.0,0.0,0.0,0.0,-2.5144,-2.6206,-2.6961,-2.7112,-2.7753,-2.7916,-2.7176,-2.7378,-2.7476,-2.7346,-2.6977,-2.682,-2.6949,-2.6188,-2.5895,-2.6229,-2.5895,-2.5697,-2.5603,-2.5697,-2.5845,-2.6079,-2.5845,-2.6234,-2.7252,-2.7185,0.0,-2.732,-2.7924,-2.7634,-2.6705,-2.7388,-2.762,-2.7593,-2.7904,-2.7897,-2.7718,-2.8599,-2.8685,-2.8407,-2.8664,-2.9229,-2.9738,-2.8591,-2.9114,-2.8715,-1.9074,-1.5878,-1.4291,-0.6209,-0.3153,0.0,-0.2826,-0.1457,-0.0081,-0.0992,0.2156,0.3864,-0.2774,0.449,1.4333,1.9598,2.1295,2.156,2.0771,2.0635,2.0556,2.0255,1.8513,1.7644,1.9072,1.9878,2.0663,2.1659,2.1619,2.1295,2.0759,2.1368,2.2307,2.353,2.3808,2.484,2.7089,2.713,2.6829,2.6299,2.5126,2.4975,2.6037,2.8013,2.8649,2.7905,2.7256,2.6854,2.6674,2.4857,2.3911,0.0,0.0,0.0,0.0,0.0,0.0,0.0,0.0,0.0,0.0,0.0,-2.2817,-2.355,0.0,-2.5383,-2.6125,-2.7391,-2.8192,-2.7881,-2.818,-2.8097,-2.7286,-2.7546,-2.7609,-2.7232,-2.7227,-2.7048,-2.6581,-2.5997,-2.5683,-2.5594,-2.5335,-2.5221,-2.5221,-2.5221,-2.5303,-2.548,-2.5303,-2.5533,-2.6148,-2.6081,-2.6081,-2.6166,-2.6536,-2.6168,-2.5306,-2.6202,-2.5916,-2.4818,-2.5259,-2.459,-2.3397,-2.5177,-2.6023,-2.6437,-2.7387,-2.7645,-2.7524,-2.7621,-2.6857,-2.4855,-1.8904,-1.5665,-1.2693,-0.5183,0.0773,0.4979,0.5114,0.8797,1.2329,1.0783,1.1763,1.1962,0.7231,1.1995,1.8606,2.2258,2.3061,2.2846,2.2094,2.1774,2.1716,2.2034,2.1114,2.048,2.0902,2.1294,2.1753,2.2317,2.2252,2.2088,2.1873,2.27,2.362,2.4569,2.557,2.6648,2.7824,2.7905,2.7639,2.7036,2.6122,2.6144,2.7285,2.7672,2.7689,2.7302,2.6905,2.6709,2.6701,2.629,2.591,0.0,0.0,0.0,0.0,0.0,0.0,0.0,-2.0462,-2.1192,-2.1995,-2.2611,-2.3288,-2.4043,-2.5333,-2.6336,-2.6459,-2.7674,-2.8466,-2.7981,-2.7898,-2.7682,-2.7141,-2.7724,-2.7939,-2.7343,-2.7718,-2.7525,-2.6519,-2.6103,-2.5693,-2.5266,-2.5013,-2.491,-2.491,-2.491,-2.491,-2.491,-2.4776,-2.4855,-2.5028,-2.4768,-2.4729,-2.4879,-2.4682,-2.4275,-2.3751,-2.4602,-2.3754,-2.1849,-2.2177,-2.1043,-1.9269,-2.1195,-2.2084,-2.2591,-2.486,-2.4915,-2.3984,-2.4878,-2.2982,-1.9696,-1.6772,-1.3925,-1.0316,-0.3487,0.4127,1.0537,1.1125,1.7364,2.3655,2.2824,2.1809,2.1097,2.1528,2.2156,2.293,2.3886,2.4087,2.3833,2.2936,2.2457,2.2447,2.3181,2.2882,2.241,2.2033,2.2167,2.2327,2.2407,2.2669,2.3032,2.3472,2.4284,2.5147,2.6105,2.737,2.8041,2.7915,2.79,2.7539,2.674,2.684,2.6857,2.6695,2.6702,2.6705,2.6705,2.6705,2.6683,2.6691,2.6691,2.6534,-1.6198,-1.6857,-1.7819,-1.7678,-1.9003,-2.0565,0.0,-2.2261,-2.3242,-2.3934,-2.4609,-2.5322,-2.6026,-2.5795,-2.572,-2.6385,-2.6101,-2.5809,-2.5769,-2.5769,-2.5929,-2.6489,-2.7229,-2.7659,-2.7534,-2.7116,-2.6929,-2.7226,-2.5712,-2.4967,-2.5377,-2.4368,-2.3794,-2.3794,-2.3794,-2.3794,-2.3794,-2.326,-2.3492,-2.4471,-2.3314,-2.3098,-2.3646,-2.2906,-2.2349,-2.1983,-2.1925,-2.137,-2.0452,-1.9811,-1.9368,-1.9021,-1.8096,-1.6148,-1.44,-1.9781,-2.061,-1.8928,-1.8029,-1.6991,-1.3868,-0.0661,0.2857,0.4306,1.718,2.1961,2.2679,2.1332,2.2617,2.4142,2.3003,2.1832,2.1488,2.3387,2.391,2.4195,2.4967,2.5123,2.485,2.3859,2.3614,2.3613,2.3709,2.3916,2.3971,2.3739,2.3348,2.3189,2.3482,2.3458,2.3754,2.4622,2.4503,2.5039,2.6655,2.8075,2.8596,2.7943,2.7888,2.7536,2.6716,2.7385,2.7444,2.6713,2.6702,2.6707,2.6707,2.6707,2.6691,2.6691,2.6691,2.6691,-1.7002,-1.7656,-1.8302,-1.9046,-1.9632,-2.0361,-2.1506,-2.2138,-2.2885,-2.407,-2.4549,-2.5007,-2.5728,-2.5618,-2.5508,-2.5783,-2.5618,-2.5398,-2.5398,-2.5398,-2.5508,-2.5837,-2.6108,-2.6654,-2.7524,-2.6564,-2.6023,-2.6283,-2.4892,-2.3937,-2.3789,-2.2936,-2.25,-2.25,-2.25,-2.25,-2.25,-2.2225,-2.2136,-2.2161,-2.1904,-2.1716,-2.1591,-2.1422,-2.103,-2.0204,-1.7857,-1.6816,-1.6764,-1.5177,-1.38,-1.2687,-1.2792,-1.1243,-0.9621,-1.5182,-1.5604,-1.3202,-1.1965,-0.9872,-0.6302,0.1871,0.5588,0.8595,1.8029,2.1068,2.1693,2.3739,2.4864,2.5182,2.3866,2.3612,2.3641,2.3187,2.4101,2.545,2.6765,2.6918,2.6549,2.5715,2.522,2.4923,2.4809,2.452,2.4554,2.53,2.4801,2.4417,2.4559,2.4965,2.5697,2.6878,2.6711,2.701,2.8257,2.874,2.8745,2.8112,2.753,2.7264,2.7391,2.8126,2.7971,2.6713,2.6708,2.6686,2.6691,2.6691,2.6691,2.6691,2.6691,2.6691,-1.6698,-1.7582,-1.8489,-1.9607,-1.992,-2.0256,-2.1283,-2.1553,-2.1928,-2.3327,-2.3623,-2.3917,-2.4894,-2.4894,-2.4838,-2.5063,-2.4894,-2.4781,-2.4781,-2.4781,-2.4838,-2.5063,-2.4894,-2.5259,-2.6529,-2.5863,-2.5423,-2.5441,-2.4329,-2.3279,-2.2583,-2.2028,-2.1527,-2.1102,-2.126,-2.1465,-2.1629,-2.1211,-2.1017,-2.0985,-2.0479,-2.0091,-1.9739,-1.9582,-1.8753,-1.7293,-1.4635,-1.334,-1.2881,-1.1138,-0.9344,-0.7693,-0.8317,-0.726,-0.5891,-0.9482,-0.9319,-0.7102,-0.5681,-0.2617,0.1167,0.4721,0.7935,1.1524,1.7859,1.9977,2.099,2.4842,2.6233,2.6154,2.4339,2.4995,2.5892,2.4781,2.5793,2.7362,2.8715,2.8565,2.797,2.7297,2.696,2.6588,2.5976,2.5765,2.5882,2.6436,2.6346,2.6097,2.582,2.6525,2.7381,2.8249,2.8457,2.8708,2.9101,2.9056,2.8767,2.8232,2.7648,2.7394,2.7556,2.8496,2.8461,2.7379,2.6935,2.6691,2.6689,2.6707,2.6691,2.6691,2.6691,2.6691,-1.4538,-1.6136,-1.8036,-1.8078,-1.9312,-2.0568,-2.0655,-2.0655,-2.091,-2.1815,-2.1939,-2.2482,-2.4047,-2.3708,-2.3424,-2.4234,-2.3649,-2.3185,-2.3185,-2.3185,-2.3484,-2.4234,-2.3649,-2.3433,-2.4107,-2.4939,-2.5384,-2.5425,-2.4265,-2.3275,-2.2512,-2.1975,-2.104,-1.9585,-2.0239,-2.0901,-2.1495,-1.9998,-2.0189,-2.202,-1.9064,-1.7945,-1.8504,-1.6971,-1.4932,-1.2646,-1.3239,-1.1961,-0.9378,-0.8536,-0.7559,-0.6495,-0.5694,-0.4298,-0.2591,-0.1783,-0.1336,-0.0761,0.1296,0.433,0.801,1.2134,1.3812,1.5428,2.1931,2.4045,2.4545,2.6208,2.7103,2.6898,2.3971,2.5277,2.7805,2.9697,3.0214,3.0355,3.0736,2.9784,2.8701,2.8164,2.8729,2.8748,2.7055,2.8143,2.8689,2.7046,2.7928,2.8415,2.7358,2.7937,2.8305,2.7961,2.8954,2.9319,2.8491,2.8783,2.8784,2.824,2.8658,2.827,2.6798,2.8188,2.8959,2.8941,2.7473,2.6713,2.6682,2.6704,2.6691,2.6691,2.6691,2.6691,-1.5104,-1.5956,-1.6823,-1.7744,-1.8441,-1.9044,-1.9628,-1.9759,-2.0009,-2.0846,-2.1491,-2.2063,-2.2604,-2.2932,-2.3198,-2.3484,-2.2811,-2.2322,-2.2322,-2.1803,-2.153,-2.1818,-2.1592,-2.1518,-2.177,-2.2542,-2.3276,-2.3781,-2.1798,-2.0738,-2.1101,-1.9756,-1.8737,-1.8258,-1.8802,-1.9183,-1.9373,-1.9103,-1.8784,-1.8278,-1.6379,-1.5761,-1.6245,-1.4377,-1.3086,-1.2124,-0.9679,-0.8139,-0.7048,-0.475,-0.3169,-0.2107,-0.1135,0.0076,0.1515,0.4543,0.5685,0.5919,0.6952,0.9007,1.1772,1.5947,1.7415,1.8272,2.2304,2.4361,2.5404,2.5742,2.6803,2.739,2.5281,2.542,2.6849,2.9735,3.04,3.0743,3.1949,3.1584,3.095,3.0679,3.0781,3.0586,2.9508,2.9101,2.8641,2.7795,2.818,2.8675,2.8984,2.9167,2.9365,2.954,2.9917,3.0057,2.9737,2.9288,2.8918,2.8743,2.8893,2.8782,2.8251,2.8718,2.8998,2.9003,2.8488,2.7971,2.749,2.6964,2.6845,2.7083,2.6808,2.6691,-1.5425,-1.6287,-1.7133,-1.8211,-1.8467,-1.8596,-1.9198,-1.9336,-1.9479,-2.0226,-2.1043,-2.1637,-2.1463,-2.2372,-2.308,-2.2948,-2.2464,-2.2151,-2.2163,-2.1376,-2.0781,-2.0613,-2.03,-2.0095,-2.0128,-1.9998,-2.0542,-2.2029,-2.0245,-1.9231,-1.9538,-1.8145,-1.7127,-1.6566,-1.6922,-1.7222,-1.7378,-1.7358,-1.6481,-1.4915,-1.3731,-1.312,-1.3034,-1.1717,-1.0742,-0.9894,-0.7339,-0.5591,-0.4356,-0.2029,-0.0391,0.0703,0.2106,0.3039,0.4039,0.7366,0.9293,1.0335,1.144,1.3089,1.5173,1.8197,1.9543,2.057,2.3123,2.4712,2.5721,2.628,2.7203,2.7864,2.708,2.7065,2.7663,2.9467,3.0358,3.1102,3.234,3.2366,3.2116,3.2089,3.2324,3.2065,3.0673,2.9356,2.8634,2.9043,2.9214,2.9482,3.0011,3.0002,3.0062,3.0367,3.0407,3.039,3.0409,2.9857,2.9364,2.9018,2.9,2.8997,2.9017,2.8994,2.8997,2.9009,2.9,2.8765,2.8281,2.776,2.7457,2.7286,2.7019,2.6858,-1.5443,-1.6981,-1.8689,-1.918,-1.9287,-1.9287,-1.9287,-1.9268,-1.9337,-1.9699,-2.045,-2.0952,-2.0537,-2.1806,-2.2825,-2.2623,-2.245,-2.2398,-2.2486,-2.1681,-2.0897,-2.0518,-1.9652,-1.9117,-1.9156,-1.7464,-1.7445,-2.015,-1.9448,-1.8605,-1.8017,-1.7202,-1.6107,-1.4711,-1.4833,-1.5233,-1.573,-1.4798,-1.3598,-1.2078,-1.1101,-1.0151,-0.9296,-0.9221,-0.8058,-0.6207,-0.6053,-0.4278,-0.141,-0.039,0.0781,0.2034,0.396,0.4799,0.518,0.7243,0.9829,1.2583,1.4593,1.6522,1.8121,1.902,2.0437,2.2274,2.4436,2.5149,2.5666,2.7637,2.8152,2.8356,2.9182,2.9817,3.0084,2.9408,3.0386,3.1581,3.2086,3.2217,3.2278,3.2483,3.3361,3.3259,3.0814,2.9309,2.9012,3.0631,3.0867,3.076,3.0453,3.0406,3.0433,3.0433,3.0421,3.0407,3.04,3.0405,3.0032,2.9136,2.902,2.8989,2.9007,2.9003,2.9003,2.8998,2.8998,2.8993,2.9011,2.9008,2.8435,2.7348,2.7317,2.7132,-1.5758,-1.7007,-1.8248,-1.9112,-1.9287,-1.9287,-1.9287,-1.9033,-1.8752,-1.8517,-1.8874,-1.9126,-1.873,-1.9784,-2.0696,-2.0637,-2.0342,-2.0129,-2.0194,-1.941,-1.8785,-1.8674,-1.7852,-1.7288,-1.7316,-1.6378,-1.6096,-1.6813,-1.6156,-1.6159,-1.7328,-1.5652,-1.45,-1.4145,-1.4413,-1.4698,-1.4858,-1.3502,-1.221,-1.1095,-1.0088,-0.9513,-0.9221,-0.7672,-0.667,-0.6053,-0.3738,-0.1873,-0.0312,0.0781,0.2728,0.5052,0.5585,0.7171,0.9414,1.1334,1.3078,1.46,1.6618,1.8017,1.9069,1.9966,2.1014,2.2113,2.3301,2.4759,2.6044,2.6101,2.7542,2.9111,2.9368,2.9504,3.0145,3.2111,3.2407,3.2419,3.3184,3.2937,3.2884,3.3896,3.4432,3.455,3.4178,3.384,3.2904,3.0839,3.053,3.049,3.0417,3.0628,3.0781,3.0781,3.0559,3.0405,3.0407,3.0407,3.0297,3.0067,2.9394,2.8989,2.9008,2.9008,2.9006,2.8989,2.9,2.8997,2.8991,2.8993,2.8712,2.8112,2.7851,2.7814,-1.6868,-1.8145,-1.9231,-1.9769,-1.9853,-1.9756,-1.9375,-1.8802,-1.8176,-1.7319,-1.7658,-1.7907,-1.7292,-1.8647,-1.9923,-1.9975,-1.9756,-1.9593,-1.967,-1.8527,-1.7571,-1.7382,-1.6149,-1.5568,-1.6093,-1.5064,-1.4568,-1.4976,-1.4961,-1.5126,-1.567,-1.4433,-1.3301,-1.2347,-1.2678,-1.2635,-1.2206,-1.0899,-1.0007,-0.9401,-0.7977,-0.7298,-0.7222,-0.5118,-0.3953,-0.3333,-0.1168,0.039,0.148,0.25,0.4208,0.6283,0.721,0.8869,1.0965,1.294,1.4252,1.5325,1.6844,1.8489,1.9879,2.0009,2.0846,2.2002,2.2445,2.3677,2.4954,2.5315,2.668,2.8247,2.9159,2.979,3.0619,3.2283,3.2577,3.2632,3.3131,3.3198,3.3462,3.4405,3.4501,3.4642,3.5367,3.5512,3.484,3.2919,3.1372,3.0394,3.0405,3.0552,3.0747,3.0879,3.0724,3.0632,3.0629,3.049,3.04,3.0387,2.9905,2.9614,2.9602,2.9614,2.9619,2.9608,2.9214,2.9003,2.899,2.9003,2.8791,2.8394,2.821,2.8315,-1.7681,-1.9086,-2.0157,-2.0157,-2.0157,-1.9937,-1.9094,-1.8331,-1.7424,-1.6143,-1.6403,-1.6672,-1.5867,-1.753,-1.9104,-1.9282,-1.9213,-1.9254,-1.9445,-1.8005,-1.6857,-1.6536,-1.4904,-1.4225,-1.5364,-1.3845,-1.3201,-1.3889,-1.4576,-1.4487,-1.345,-1.3096,-1.2042,-1.0013,-1.0404,-0.9954,-0.867,-0.7923,-0.7468,-0.7157,-0.5223,-0.4292,-0.4213,-0.21,-0.07,0.0234,0.1322,0.2336,0.3357,0.4448,0.5604,0.6824,0.8893,1.0409,1.1588,1.3433,1.4736,1.5658,1.6498,1.8382,2.0333,1.9694,2.0655,2.2063,2.2063,2.2628,2.3531,2.4894,2.5793,2.688,2.8701,3.0172,3.1207,3.1179,3.1776,3.2367,3.2629,3.3252,3.3897,3.4247,3.4041,3.4162,3.5298,3.5359,3.5287,3.5272,3.2499,3.0388,3.0388,3.0393,3.051,3.0798,3.083,3.0859,3.0905,3.0622,3.0449,3.041,3.0442,3.0468,3.0462,3.0411,3.0415,3.04,2.9597,2.9193,2.919,2.9116,2.8904,2.856,2.856,2.8871,-1.6071,-1.7033,-1.79,-1.79,-1.79,-1.7695,-1.708,-1.6527,-1.5918,-1.4798,-1.4444,-1.4158,-1.3911,-1.4348,-1.4797,-1.5077,-1.5213,-1.544,-1.6,-1.5743,-1.5668,-1.6047,-1.4899,-1.4283,-1.4758,-1.3811,-1.2909,-1.2337,-1.268,-1.2486,-1.1672,-1.0857,-0.9726,-0.8342,-0.9133,-0.8197,-0.5416,-0.6126,-0.5594,-0.39,-0.2724,-0.21,-0.21,0.0078,0.1166,0.1399,0.2415,0.3433,0.4528,0.5523,0.7057,0.8978,1.0902,1.2816,1.4569,1.5711,1.6715,1.751,1.7716,1.8509,1.9628,2.0204,2.1542,2.2884,2.2884,2.3471,2.4176,2.4408,2.5779,2.7265,2.7769,2.9547,3.1215,3.12,3.1328,3.1827,3.3265,3.3677,3.3822,3.3879,3.3858,3.4162,3.5298,3.4713,3.4091,3.4074,3.1995,3.0393,3.04,3.0385,3.0414,3.0479,3.0501,3.06,3.0879,3.0852,3.0701,3.0414,3.0662,3.0813,3.082,3.0554,3.0394,3.0401,3.0233,3.0146,3.0168,2.9756,2.9532,2.9476,2.9476,2.9941,-1.6069,-1.6782,-1.7342,-1.7342,-1.7342,-1.6908,-1.5283,-1.4486,-1.3607,-1.1876,-1.1425,-1.1482,-1.2119,-1.2598,-1.322,-1.4263,-1.4497,-1.468,-1.5159,-1.4736,-1.4333,-1.4184,-1.3147,-1.2492,-1.2351,-1.1927,-1.1299,-1.0439,-0.9833,-0.9705,-1.0021,-0.8325,-0.6947,-0.6202,-0.6076,-0.5378,-0.3803,-0.4304,-0.3812,-0.2336,-0.1245,-0.0466,0.0155,0.2255,0.3193,0.327,0.4292,0.5384,0.6388,0.6842,0.821,1.019,1.1143,1.2398,1.3875,1.5367,1.6149,1.6655,1.7657,1.8586,1.9431,2.0333,2.1428,2.2506,2.2506,2.3053,2.3826,2.4681,2.5356,2.6165,2.7315,2.8451,2.9351,2.9339,3.0292,3.1568,3.2827,3.3463,3.38,3.3804,3.3807,3.3963,3.4504,3.416,3.3796,3.3789,3.1439,2.9679,2.9681,2.9674,2.9875,3.0349,3.0388,3.0462,3.0639,3.0794,3.084,3.0667,3.0804,3.0905,3.0898,3.0748,3.0583,3.041,3.0401,3.0395,3.0405,3.0181,2.9945,2.9696,3.0166,3.0847,-1.5208,-1.5693,-1.5823,-1.5823,-1.5823,-1.532,-1.3201,-1.226,-1.132,-0.922,-0.8868,-0.9274,-1.0333,-1.0965,-1.1833,-1.3188,-1.3309,-1.3454,-1.3939,-1.3302,-1.2567,-1.2104,-1.1347,-1.0723,-1.0312,-1.0228,-0.987,-0.896,-0.7548,-0.7014,-0.7731,-0.5852,-0.454,-0.4026,-0.3376,-0.2853,-0.2448,-0.2643,-0.2292,-0.1256,-0.0157,0.0861,0.2023,0.3822,0.4844,0.5079,0.6173,0.7099,0.7859,0.8232,0.9362,1.0858,1.123,1.205,1.3164,1.4871,1.5658,1.6018,1.751,1.8586,1.9431,2.0074,2.1049,2.1939,2.2125,2.258,2.3365,2.4553,2.4857,2.5079,2.6293,2.7142,2.7718,2.8227,2.9819,3.1379,3.2074,3.2772,3.3243,3.3243,3.3239,3.3244,3.3244,3.3533,3.3796,3.3796,3.1649,2.9795,2.9096,2.8989,2.9265,3.0022,3.0284,3.04,3.0398,3.0704,3.0901,3.0894,3.0905,3.0906,3.0906,3.0909,3.0771,3.051,3.0428,3.0407,3.0409,3.0753,3.0662,3.0151,3.1018,3.1819,-1.099,-1.1182,-1.1198,-1.1198,-1.1198,-1.0952,-0.9919,-0.9648,-0.9322,-0.8311,-0.8135,-0.8218,-0.8575,-0.8509,-0.8585,-0.9061,-0.8959,-0.9055,-0.9914,-0.9958,-1.0126,-1.0693,-1.0506,-1.0317,-1.0555,-1.0314,-0.987,-0.896,-0.6858,-0.5085,-0.4101,-0.3763,-0.3114,-0.2072,-0.2703,-0.2174,-0.0336,-0.1252,-0.1238,-0.0162,0.0971,0.1997,0.2966,0.4139,0.5237,0.618,0.7249,0.7706,0.7936,0.9734,1.0634,1.1007,1.2705,1.4019,1.5092,1.607,1.7001,1.7794,1.794,1.8586,1.9299,1.9365,2.0526,2.2075,2.2763,2.3065,2.3138,2.3245,2.431,2.5039,2.3837,2.5574,2.8137,3.0357,3.1034,3.1199,3.132,3.1394,3.1443,3.1443,3.1446,3.1429,3.1446,3.2745,3.3811,3.3802,3.3559,3.2298,2.9363,2.9001,2.902,2.9119,2.9896,3.0398,3.0386,3.0714,3.0901,3.0904,3.0891,3.0897,3.0897,3.0898,3.0898,3.0856,3.0552,3.0398,3.0405,3.1936,3.227,3.1533,3.2353,3.3063,-1.01,-1.0403,-1.0611,-1.0611,-1.0062,-0.9151,-0.7829,-0.7123,-0.6262,-0.4982,-0.4736,-0.5137,-0.6332,-0.6424,-0.6858,-0.823,-0.8462,-0.8664,-0.915,-0.9366,-0.9443,-0.9174,-0.9172,-0.8713,-0.7576,-0.735,-0.6605,-0.4805,-0.3748,-0.2683,-0.1523,-0.2042,-0.1944,-0.0797,-0.104,-0.0858,0.0,-0.0423,0.0251,0.1986,0.2482,0.3511,0.5181,0.5583,0.6329,0.7249,0.7633,0.8161,0.8841,1.0185,1.0783,1.0932,1.2358,1.3091,1.3665,1.5226,1.6009,1.6515,1.7579,1.8202,1.8721,1.9748,2.0526,2.1302,2.2125,2.2384,2.2628,2.3713,2.4015,2.4312,2.5504,2.6718,2.7852,2.8774,3.0134,3.1182,3.1224,3.1211,3.1185,3.1198,3.1216,3.1196,3.1184,3.2629,3.3812,3.3815,3.3793,3.3323,3.2047,3.1881,3.1151,2.9206,2.9839,3.0404,3.0405,3.0525,3.064,3.0704,3.0767,3.078,3.0781,3.0859,3.0898,3.0898,3.0768,3.1195,3.2197,3.2789,3.2897,3.2571,3.3372,3.3851,-0.8052,-0.8271,-0.8521,-0.857,-0.7885,-0.6898,-0.5736,-0.4842,-0.4035,-0.2792,-0.2613,-0.3135,-0.4617,-0.4904,-0.5509,-0.7306,-0.767,-0.7877,-0.8203,-0.8462,-0.8431,-0.782,-0.7575,-0.7076,-0.5969,-0.5558,-0.4554,-0.2503,-0.1969,-0.1433,-0.0539,-0.0986,-0.0897,0.0,0.0,0.0176,0.0527,0.0519,0.1536,0.3384,0.3468,0.4345,0.6124,0.6124,0.6635,0.7477,0.8173,0.8758,0.9464,1.0831,1.1309,1.1316,1.2358,1.2879,1.3375,1.5013,1.5799,1.6228,1.751,1.8008,1.8202,1.9431,1.9814,2.0009,2.1164,2.1877,2.2506,2.3772,2.4302,2.4942,2.7035,2.7601,2.7595,2.7582,2.8884,3.0164,3.0141,3.0711,3.1205,3.1174,3.1204,3.1202,3.1216,3.2223,3.302,3.3046,3.3033,3.3226,3.3719,3.3799,3.2576,2.9329,2.9607,3.0086,3.0388,3.0355,3.0389,3.0597,3.0629,3.0664,3.0671,3.078,3.0859,3.0898,3.0898,3.1713,3.3403,3.3821,3.3847,3.3534,3.4347,3.468,-0.3864,-0.3663,-0.3656,-0.3641,-0.3633,-0.354,-0.3224,-0.3108,-0.3033,-0.2774,-0.2706,-0.2986,-0.3867,-0.4007,-0.4392,-0.5424,-0.5658,-0.582,-0.6273,-0.6462,-0.661,-0.6681,-0.5975,-0.5798,-0.6754,-0.5999,-0.491,-0.3659,-0.2503,-0.179,-0.179,-0.0628,0.0,0.0,0.0,0.0538,0.179,0.1789,0.2389,0.3637,0.3637,0.4106,0.51,0.51,0.5684,0.6861,0.8964,0.9732,0.9688,1.1877,1.2565,1.2372,1.331,1.4307,1.5305,1.621,1.7148,1.794,1.8008,1.8008,1.8008,1.8008,1.8008,1.8337,2.0074,2.1803,2.3078,2.3138,2.5242,2.7556,2.7559,2.7583,2.7587,2.7613,2.7622,2.7625,2.7654,2.9515,3.1218,3.1202,3.1199,3.1183,3.1224,3.1233,3.1236,3.1231,3.1212,3.1837,3.357,3.3809,3.2582,2.9326,2.9009,2.939,3.0312,3.0216,3.0244,3.0583,3.0602,3.0598,3.06,3.0669,3.0762,3.0898,3.0898,3.1719,3.3398,3.5127,3.5463,3.4497,3.5303,3.5661,-0.4378,-0.4444,-0.4371,-0.3749,-0.2956,-0.2311,-0.2252,-0.1546,-0.0947,-0.0877,-0.0876,-0.1136,-0.1999,-0.2679,-0.3389,-0.4344,-0.511,-0.5674,-0.5911,-0.5545,-0.534,-0.5468,-0.4006,-0.3065,-0.3371,-0.2355,-0.1588,-0.1164,-0.0807,-0.0539,-0.0539,0.0538,0.1254,0.1254,0.1254,0.179,0.3037,0.3037,0.365,0.4865,0.4865,0.5336,0.6339,0.7168,0.8022,0.8968,1.0514,1.1044,1.1135,1.2497,1.2609,1.1967,1.2983,1.3968,1.5,1.5955,1.7013,1.7996,1.8663,1.8887,1.9019,1.9555,2.0233,2.0978,2.2122,2.1975,2.162,2.2752,2.38,2.4509,2.4531,2.4518,2.5023,2.7107,2.758,2.7604,2.7609,2.8216,2.8746,2.8732,2.8716,2.9259,3.091,3.1186,3.1208,3.1179,3.1196,3.1388,3.1965,3.2027,3.2086,3.2254,3.13,3.0411,2.9823,3.0319,3.0693,3.0788,3.155,3.1977,3.1969,3.2241,3.1933,3.0921,3.2024,3.3457,3.5176,3.5738,3.581,3.5457,3.5626,3.5676,-0.3949,-0.368,-0.34,-0.2887,-0.1896,-0.1091,-0.1114,-0.0536,0.0,0.0,0.0,-0.0246,-0.1153,-0.1796,-0.247,-0.3391,-0.4098,-0.4523,-0.4692,-0.4372,-0.4004,-0.3744,-0.2959,-0.2024,-0.1198,-0.0435,0.0,0.0,0.0449,0.0718,0.0718,0.1433,0.2237,0.3129,0.2681,0.3037,0.4283,0.4283,0.491,0.6071,0.6071,0.6386,0.701,0.7775,0.8645,0.9619,1.0781,1.1478,0.0,1.2959,1.2901,1.2393,1.3344,1.4343,1.5473,1.6388,1.7459,1.8535,1.9131,1.9287,1.936,1.9909,2.0734,2.1633,2.2525,2.2197,2.1731,2.2788,2.3115,2.3075,2.3122,2.3767,2.4882,2.675,2.7391,2.7574,2.7617,2.7616,2.791,2.8897,2.9051,2.9546,3.1055,3.2187,3.2873,3.2844,3.2863,3.2457,3.1331,3.1196,3.1524,3.2406,3.2372,3.1733,3.0346,3.0843,3.1279,3.1356,3.2031,3.2465,3.2555,3.2833,3.2548,3.1671,3.2928,3.4359,3.5899,3.5935,3.5957,3.5937,3.5835,3.578,0.0,-0.2078,-0.1424,-0.1304,-0.066,-0.0069,0.0,0.0,0.0,0.0,0.0,-0.0244,-0.1064,-0.1267,-0.1613,-0.2483,-0.2629,-0.2752,-0.2902,-0.2931,-0.2673,-0.1793,-0.2444,-0.2177,-0.0084,0.0174,0.0267,0.0269,0.1254,0.1969,0.1969,0.1969,0.3129,0.5359,0.4372,0.4372,0.5536,0.5536,0.6071,0.7139,0.7139,0.7139,0.7228,0.7316,0.8013,0.9235,1.0356,1.1346,1.2141,1.3244,1.3595,1.3505,1.4416,1.5474,1.6531,1.7473,1.8471,1.9375,1.9375,1.9375,1.9375,1.9448,2.001,2.091,2.194,2.2701,2.3195,2.3236,2.3248,2.3317,2.333,2.4895,2.6502,2.6505,2.6993,2.7442,2.7541,2.7763,2.8596,3.1013,3.1487,3.1545,3.1746,3.3766,3.5358,3.5583,3.5606,3.4627,3.1875,3.1503,3.1206,3.0456,3.2364,3.3128,3.1638,3.1718,3.1933,3.2126,3.2221,3.2392,3.2654,3.2757,3.2891,3.3083,3.3698,3.4573,3.5682,3.5818,3.5918,3.5996,3.5937,3.5898,-0.4068,0.0,-0.2722,-0.1437,-0.0968,-0.0695,0.0,0.0,0.0,0.0,0.0,-0.0059,-0.0295,-0.0845,-0.1358,-0.1614,-0.2256,-0.273,-0.2902,-0.2369,-0.159,-0.0547,0.008,0.0663,0.1287,0.2081,0.2544,0.2767,0.3037,0.3215,0.3215,0.4018,0.4823,0.5359,0.598,0.6422,0.6694,0.6694,0.6871,0.7139,0.7139,0.7577,0.854,0.9401,1.0433,1.1558,1.2772,1.3353,1.3633,1.4774,1.5136,1.5234,1.6283,1.7317,1.8355,1.8599,1.9388,2.0264,2.0264,2.0264,2.0407,2.1124,2.1489,2.2009,2.3764,2.4333,2.4394,2.4409,2.505,2.5704,2.5666,2.6077,2.6564,2.6787,2.6136,2.586,2.7285,2.9195,3.079,3.1374,3.1521,3.2189,3.4248,3.3446,3.3166,3.5262,3.5589,3.5363,3.4677,3.4552,3.3636,3.1242,3.2074,3.2787,3.2766,3.2546,3.2428,3.2484,3.3484,3.4129,3.4188,3.4592,3.4839,3.4897,3.5051,3.5284,3.5623,3.5714,3.5806,3.5918,3.5918,3.5937,-0.4525,-0.4133,-0.3446,-0.2568,-0.1738,-0.1103,-0.0664,-0.0298,0.0,0.0,0.0,0.0,0.0,-0.0414,-0.0731,-0.0689,-0.0717,-0.0746,-0.0845,-0.0817,-0.0618,-0.0078,0.097,0.1657,0.1681,0.3139,0.3873,0.3515,0.3959,0.4328,0.4461,0.509,0.5625,0.616,0.6782,0.7139,0.7139,0.7139,0.7139,0.7139,0.7665,0.8277,0.8978,1.0096,1.1209,1.2328,1.3027,1.3555,1.4166,1.5296,1.5696,1.5779,1.6846,1.7989,1.9036,1.9036,1.9678,2.0566,2.0566,2.0566,2.0712,2.1155,2.1375,2.1669,2.3147,2.414,2.4807,2.5381,2.6016,2.6499,2.6499,2.6499,2.6526,2.6726,2.6179,2.5893,2.6889,2.9419,3.1509,3.1501,3.1524,3.1977,3.347,3.2478,3.1992,3.3502,3.4791,3.5592,3.5609,3.4411,3.325,3.2385,3.2312,3.2458,3.2858,3.2679,3.2708,3.3138,3.387,3.433,3.4464,3.4812,3.5147,3.5492,3.5504,3.5545,3.5603,3.5643,3.5715,3.5801,3.581,3.5867,-0.4546,-0.4249,-0.388,-0.3607,-0.2485,-0.1406,-0.1161,-0.0529,0.0,0.0,0.0,0.0,0.0,0.0,0.0,0.0,0.0871,0.1531,0.1414,0.0845,0.0391,0.0235,0.1298,0.2065,0.2123,0.3965,0.4801,0.3974,0.4844,0.5499,0.562,0.5625,0.6071,0.7051,0.7139,0.7139,0.7139,0.7139,0.7228,0.7404,0.8452,0.9065,0.9492,1.0438,1.1472,1.2589,1.2589,1.3118,1.4166,1.5296,1.5696,1.5779,1.709,1.8149,1.9036,1.9195,1.9844,2.0566,2.0566,2.0566,2.0566,2.0566,2.0712,2.1011,2.1962,2.3139,2.4536,2.605,2.6533,2.6533,2.6533,2.6533,2.6533,2.6533,2.6502,2.6504,2.6529,2.9136,3.1513,3.1529,3.1513,3.1516,3.1522,3.1518,3.1517,3.1481,3.3451,3.4816,3.4431,3.2714,3.1913,3.2963,3.238,3.2072,3.235,3.2366,3.2759,3.3634,3.3743,3.3917,3.4246,3.4461,3.4835,3.5358,3.5458,3.5523,3.5523,3.557,3.5622,3.568,3.5679,3.5741,-0.4619,-0.468,-0.4363,-0.2811,-0.237,-0.195,-0.0533,-0.0118,0.0,0.0,0.0,0.0,0.0,0.0,0.0,0.0,0.0932,0.1299,0.0366,0.1645,0.2295,0.1485,0.3069,0.4248,0.4403,0.5502,0.6292,0.6386,0.6494,0.6727,0.6864,0.6871,0.6962,0.7051,0.7139,0.7139,0.7139,0.7139,0.7577,0.8627,0.8803,0.9923,1.1809,1.198,1.2681,1.3822,1.3822,1.3913,1.4166,1.5296,1.5696,1.5861,1.798,1.8877,1.9116,2.0001,2.0479,2.0566,2.0566,2.0566,2.0566,2.0566,2.1155,2.1962,2.2999,2.3078,2.3333,2.5807,2.6533,2.6533,2.6533,2.6533,2.6533,2.6533,2.6502,2.6515,2.6517,2.9151,3.1474,3.1527,3.15,3.1486,3.1526,3.1519,3.1479,3.1518,3.1844,3.1319,2.9135,3.1323,3.2442,3.0728,3.0996,3.1504,3.1861,3.1933,3.2298,3.3243,3.3515,3.3926,3.4612,3.5068,3.5166,3.483,3.5281,3.5384,3.5174,3.5403,3.5565,3.5622,3.5618,3.5649,-0.4548,-0.4383,-0.3872,-0.2526,-0.2433,-0.2273,-0.1012,-0.0317,0.0,0.0,0.0,0.0,0.0,0.0,0.0354,0.1475,0.1127,0.1142,0.2386,0.2417,0.2287,0.2389,0.3744,0.4716,0.4758,0.5756,0.6447,0.6664,0.6759,0.6868,0.7017,0.7099,0.7139,0.7139,0.7139,0.7139,0.7139,0.7753,0.8364,0.889,1.0183,1.1295,1.2328,1.2942,1.3561,1.4088,1.4088,1.4088,1.425,1.5876,1.6601,1.6764,1.9027,1.9844,1.9923,2.0401,2.0566,2.0566,2.0566,2.0566,2.0566,2.0566,2.0857,2.1298,2.1821,2.2466,2.3273,2.4542,2.5652,2.6533,2.6533,2.6533,2.6533,2.6533,2.6531,2.6464,2.6514,2.7731,2.8768,2.883,3.0247,3.1515,3.1511,3.1482,3.1507,3.1509,3.1479,3.1061,2.9919,3.1228,3.189,3.0844,3.1031,3.1252,3.147,3.1487,3.1986,3.3154,3.3524,3.3873,3.4208,3.445,3.4461,3.4214,3.445,3.468,3.487,3.5138,3.5308,3.5327,3.547,3.5584,-0.4563,-0.4097,-0.3374,-0.2483,-0.2351,-0.2134,-0.1225,-0.0473,0.0,0.0,0.0,0.0,0.0,0.0,0.0648,0.2511,0.1639,0.1589,0.4038,0.3387,0.2893,0.3451,0.4414,0.5102,0.5087,0.5786,0.6318,0.6461,0.658,0.6715,0.6868,0.698,0.7054,0.7088,0.7348,0.7453,0.7489,0.8969,0.9579,0.9323,1.1381,1.2413,1.2766,1.3646,1.4088,1.4088,1.4088,1.4088,1.425,1.6116,1.674,1.6782,1.9149,2.0304,2.0566,2.0566,2.0566,2.0566,2.0566,2.0566,2.0566,2.0566,2.0789,2.0934,2.0934,2.2264,2.3818,2.3818,2.5134,2.6533,2.6533,2.6533,2.6533,2.6533,2.6533,2.6514,2.648,2.6491,2.6749,2.7515,2.9757,3.1501,3.1514,3.1483,3.1482,3.1482,3.1482,3.1366,3.0991,3.1045,3.1086,3.092,3.0991,3.1055,3.119,3.1184,3.1629,3.2652,3.3393,3.3797,3.3808,3.381,3.3796,3.3796,3.387,3.4156,3.4572,3.487,3.5053,3.5105,3.5304,3.5484,-0.4636,-0.4161,-0.3401,-0.2661,-0.1933,-0.1187,-0.0285,-0.0068,0.0,0.0,0.0,0.0,0.0,0.0,0.0402,0.1692,0.2419,0.2989,0.3399,0.4925,0.5643,0.4698,0.5565,0.6193,0.618,0.6261,0.6318,0.6461,0.6481,0.6556,0.6709,0.6725,0.6797,0.6939,0.8037,0.8627,0.8803,1.095,1.1552,1.0524,1.1724,1.2857,1.3997,1.4088,1.4088,1.4088,1.4088,1.4088,1.4173,1.5379,1.5202,1.4592,1.7426,1.9367,2.0566,2.0566,2.0566,2.0566,2.0566,2.0566,2.0566,2.0566,2.1155,2.1886,2.1886,2.3294,2.4862,2.4862,2.5664,2.6533,2.6533,2.6533,2.6533,2.6533,2.6533,2.6521,2.6496,2.6526,2.7395,3.0543,3.1297,3.1474,3.1496,3.1486,3.1482,3.1482,3.1482,3.0929,2.9297,2.9968,3.0329,2.963,3.0054,3.0601,3.1151,3.1196,3.1248,3.1339,3.2892,3.3777,3.3791,3.3785,3.3814,3.3797,3.4173,3.4321,3.4242,3.4572,3.487,3.5105,3.5122,3.5254,-0.3842,-0.2984,-0.2,-0.1727,-0.1072,-0.0421,-0.0072,0.0,0.0,0.0,0.0,0.0,0.0,0.0,0.0569,0.243,0.2509,0.3008,0.5115,0.5496,0.563,0.5875,0.6286,0.6495,0.6403,0.6393,0.6376,0.6342,0.6424,0.6498,0.6556,0.7215,0.7757,0.8013,0.8827,0.9438,0.9729,1.1248,1.1836,1.1422,1.2777,1.3646,1.4088,1.4088,1.4088,1.4088,1.4088,1.4088,1.4166,1.5296,1.5539,1.5672,1.8602,2.0129,2.0566,2.0566,2.0566,2.0566,2.0566,2.0566,2.0566,2.0566,2.0867,2.1221,2.1811,2.2999,2.4192,2.4791,2.5734,2.6533,2.6533,2.6533,2.6533,2.6533,2.6533,2.6533,2.6533,2.6468,2.6876,2.816,2.8363,2.9038,3.1161,3.1465,3.1501,3.1501,3.0849,3.006,2.9411,2.9626,2.9746,2.9412,3.0267,3.0958,3.119,3.121,3.1202,3.1202,3.2845,3.3794,3.3813,3.3815,3.3785,3.3803,3.3952,3.3998,3.3961,3.4242,3.4551,3.487,3.5016,3.5239,-0.318,-0.2213,-0.1112,-0.1123,-0.056,0.0,0.0,0.0,0.0,0.0,0.0,0.0081,0.0477,0.0563,0.1301,0.3596,0.3353,0.379,0.6412,0.6136,0.5856,0.6615,0.6702,0.6661,0.6556,0.6546,0.6505,0.6407,0.6444,0.6471,0.6471,0.748,0.8158,0.8508,0.96,1.0277,1.0589,1.1747,1.2325,1.2331,1.3457,1.3995,1.4088,1.4088,1.4088,1.4088,1.4088,1.4328,1.465,1.5501,1.6514,1.7763,1.9797,2.0566,2.0566,2.0566,2.0566,2.0566,2.0566,2.0566,2.0566,2.0566,2.0566,2.0789,2.1735,2.2702,2.3745,2.4707,2.5734,2.6533,2.6533,2.6533,2.6533,2.6533,2.6533,2.6533,2.6533,2.6523,2.6534,2.6534,2.6518,2.7205,2.9536,2.9939,3.0291,3.1348,3.0397,2.9599,2.957,2.9386,2.9172,2.9121,3.0366,3.1217,3.1217,3.1179,3.119,3.119,3.231,3.3002,3.2982,3.3237,3.3502,3.378,3.3789,3.3807,3.3807,3.3986,3.4237,3.4551,3.4735,3.5034,-0.289,-0.2134,-0.1084,-0.1114,-0.0511,0.0,0.0,0.0,0.0,0.0,0.0,0.0407,0.154,0.1783,0.261,0.5002,0.5272,0.5566,0.6734,0.68,0.6705,0.6705,0.6705,0.6705,0.6702,0.6702,0.6702,0.6702,0.6559,0.6474,0.6474,0.7344,0.7867,0.8045,1.0094,1.1312,1.1484,1.2632,1.3213,1.3213,1.35,1.3794,1.4082,1.4082,1.4082,1.4082,1.4082,1.4727,1.5681,1.606,1.7931,2.0557,2.0557,2.0557,2.0557,2.0557,2.0557,2.0557,2.0566,2.0566,2.0566,2.0566,2.0566,2.0789,2.1735,2.2702,2.3745,2.4707,2.5734,2.6533,2.6533,2.6533,2.6533,2.6533,2.6533,2.6533,2.6533,2.6533,2.6533,2.6533,2.6489,2.6475,2.6475,2.6505,2.7602,3.093,3.038,2.9565,2.96,2.8996,2.8565,2.8493,3.0134,3.1191,3.1207,3.1211,3.119,3.119,3.119,3.1215,3.1194,3.2038,3.2905,3.378,3.3789,3.3788,3.3788,3.3807,3.3935,3.42,3.42,3.4513,-0.1658,-0.102,-0.0355,-0.0352,-0.0152,0.0,0.0,0.0,0.0,0.0,0.0,0.0352,0.1591,0.1766,0.2554,0.5049,0.531,0.5695,0.688,0.7037,0.701,0.701,0.701,0.697,0.6871,0.6861,0.6817,0.6709,0.6658,0.663,0.663,0.7554,0.8572,0.9659,1.082,1.1817,1.2718,1.3048,1.31,1.2886,1.3193,1.3387,1.3474,1.3681,1.3667,1.3474,1.3474,1.3622,1.409,1.6148,1.6587,1.6236,1.8703,1.9655,1.9707,2.0002,2.0107,2.0146,2.0459,2.0566,2.0566,2.0566,2.0566,2.0789,2.1735,2.2702,2.3745,2.4707,2.5734,2.6533,2.6533,2.6533,2.6533,2.6533,2.6533,2.6533,2.6533,2.6533,2.6533,2.6533,2.6501,2.6493,2.6493,2.5144,2.5064,2.7913,2.7636,2.7417,2.8099,2.8384,2.8517,2.8494,2.9382,3.0271,3.1122,3.1215,3.1191,3.1191,3.1183,3.1179,3.1215,3.1438,3.1935,3.2597,3.3104,3.3361,3.3361,3.368,3.3935,3.42,3.42,3.4423,-0.0941,-0.0489,0.0,0.0,0.0,0.0086,0.0603,0.0347,0.0174,0.0608,0.0709,0.125,0.294,0.3192,0.3817,0.5773,0.6043,0.6334,0.7037,0.7139,0.7139,0.7139,0.7139,0.7105,0.7021,0.7014,0.6973,0.6881,0.6824,0.6954,0.745,0.8366,0.9519,1.0887,1.1733,1.2552,1.3206,1.3213,1.312,1.2933,1.324,1.332,1.322,1.3394,1.3373,1.3206,1.4045,1.3967,1.3493,1.7095,1.745,1.5912,1.8751,1.9687,1.9533,2.0002,2.0176,2.0185,2.0273,2.042,2.0537,2.0361,2.042,2.0789,2.1735,2.2702,2.3745,2.4707,2.5734,2.6471,2.6176,2.6113,2.6113,2.6113,2.6113,2.6113,2.6113,2.595,2.5862,2.605,2.6055,2.6022,2.5824,2.4723,2.4443,2.6312,2.6588,2.687,2.7503,2.791,2.814,2.814,2.8451,2.8993,2.972,2.9778,3.0186,3.1148,3.1207,3.119,3.119,3.1199,3.1493,3.2086,3.2654,3.2921,3.2903,3.3361,3.3625,3.3802,3.3975,3.4213,-0.0647,-0.039,0.0,0.0,0.0087,0.0438,0.1609,0.1063,0.0611,0.1735,0.1996,0.2707,0.4972,0.5444,0.5762,0.6939,0.7139,0.7139,0.7139,0.7139,0.7139,0.7139,0.7139,0.7139,0.7139,0.7139,0.7139,0.7139,0.7107,0.7539,0.8632,0.9537,1.0492,1.1733,1.2628,1.3194,1.3253,1.3253,1.3233,1.3213,1.348,1.3467,1.3213,1.324,1.3233,1.3286,1.5096,1.4927,1.3744,1.8239,1.9273,1.8156,1.9707,2.0033,1.9703,2.0244,2.041,2.0391,1.999,2.0117,2.0381,1.999,2.0156,2.072,2.148,2.253,2.3604,2.4565,2.5554,2.6201,2.5724,2.5561,2.5511,2.546,2.5485,2.5523,2.5523,2.5159,2.4881,2.5215,2.5275,2.5165,2.473,2.4668,2.4925,2.566,2.6703,2.7428,2.7482,2.7575,2.7625,2.7625,2.7606,2.761,2.761,2.7803,2.8851,3.1066,3.1179,3.1185,3.119,3.1196,3.1455,3.1996,3.2283,3.2451,3.2484,3.2983,3.3214,3.3273,3.3625,3.391,-0.0136,-0.0075,0.0,0.0,0.0695,0.1521,0.1918,0.2466,0.3066,0.314,0.3246,0.3622,0.515,0.5367,0.5775,0.6956,0.7139,0.7139,0.7139,0.7139,0.7139,0.7139,0.7139,0.7139,0.7139,0.7139,0.7139,0.7139,0.7983,0.8574,0.8827,0.99,1.0974,1.2163,1.2422,1.2837,1.3473,1.3547,1.3434,1.3213,1.3273,1.3273,1.322,1.3447,1.3427,1.3206,1.3666,1.4216,1.4813,1.594,1.6994,1.8006,1.8392,1.8754,1.9097,1.9049,1.9268,1.9551,1.9453,1.9482,1.9551,1.9453,1.9707,2.0066,1.9945,2.1292,2.2943,2.3251,2.4238,2.5234,2.5523,2.5297,2.4883,2.4443,2.4669,2.4983,2.4983,2.4895,2.4743,2.4524,2.4474,2.4273,2.3563,2.3499,2.3716,2.4511,2.5841,2.6722,2.6736,2.7255,2.7625,2.7625,2.76,2.761,2.7618,2.9343,3.0645,3.115,3.1198,3.1189,3.1207,3.1184,3.1261,3.1402,3.175,3.2127,3.2484,3.2983,3.3361,3.368,3.3762,3.3842,0.0,0.0,0.0167,0.0785,0.1342,0.2009,0.2702,0.3367,0.3901,0.4455,0.4529,0.4862,0.5996,0.6204,0.6425,0.6962,0.7139,0.7139,0.7139,0.7139,0.7139,0.7139,0.7139,0.7139,0.7139,0.7139,0.7316,0.7929,0.854,0.941,1.0438,1.1128,1.1986,1.3118,1.3118,1.34,1.3854,1.3854,1.3781,1.3627,1.3627,1.3627,1.3627,1.35,1.358,1.3967,1.4421,1.4902,1.5482,1.6088,1.734,1.8836,1.9116,1.9292,1.9383,1.9477,1.9697,1.9863,1.9658,1.9727,1.9863,1.9658,1.9883,2.0185,1.9971,2.1059,2.2407,2.2418,2.3675,2.4902,2.4915,2.5054,2.5059,2.4519,2.4406,2.4431,2.4431,2.4205,2.4017,2.4166,2.3903,2.3517,2.3182,2.3071,2.3387,2.4203,2.5231,2.6122,2.6457,2.7137,2.7625,2.7625,2.7625,2.76,2.7603,2.8747,2.9478,2.9463,3.0551,3.1194,3.1207,3.119,3.119,3.119,3.1411,3.164,3.1896,3.2316,3.2631,3.2836,3.3087,3.3284,0.0,0.0159,0.0681,0.2008,0.2412,0.2795,0.3894,0.4387,0.4767,0.581,0.6007,0.6176,0.7062,0.7221,0.7221,0.7221,0.7197,0.718,0.718,0.7156,0.7139,0.7139,0.7139,0.7139,0.7139,0.7139,0.7489,0.854,0.8803,0.9836,1.1895,1.2151,1.2851,1.4088,1.4088,1.4088,1.4088,1.4088,1.4088,1.4088,1.4088,1.4088,1.4068,1.3581,1.3978,1.4967,1.5801,1.6158,1.6229,1.7296,1.848,1.9782,2.0212,2.0216,1.9951,2.0234,2.0391,2.0391,1.9961,2.0039,2.0283,1.9922,2.0098,2.0439,2.0371,2.105,2.1837,2.1912,2.3116,2.4366,2.4026,2.4422,2.4925,2.4648,2.4201,2.3928,2.4079,2.3679,2.3478,2.4067,2.374,2.3328,2.3267,2.3353,2.3596,2.4301,2.5148,2.5897,2.64,2.721,2.7709,2.7625,2.7625,2.759,2.7601,2.7596,2.7792,2.8179,3.0087,3.1187,3.1213,3.1213,3.1179,3.119,3.119,3.123,3.1291,3.164,3.1861,3.1915,3.2316,3.2713,0.0,0.0855,0.2089,0.3419,0.4536,0.5317,0.5617,0.6517,0.7292,0.7488,0.738,0.7373,0.7543,0.7539,0.7539,0.7539,0.7428,0.7343,0.7343,0.7224,0.7139,0.7139,0.7139,0.7139,0.7139,0.7139,0.7139,0.7316,0.8277,0.9492,1.0783,1.1724,1.2851,1.4088,1.4088,1.4088,1.4088,1.4088,1.4088,1.4088,1.4088,1.4088,1.4082,1.4008,1.4532,1.5569,1.5725,1.666,1.8026,1.825,1.8839,1.9707,1.98,1.9827,1.9873,1.957,1.9687,1.9941,1.9512,1.9404,1.9453,1.9394,1.9658,1.9932,1.957,2.0353,2.1366,2.145,2.1865,2.2408,2.2767,2.2682,2.2617,2.3301,2.3442,2.3658,2.4501,2.4352,2.4087,2.4174,2.4137,2.4087,2.4062,2.4366,2.4594,2.4722,2.6014,2.6779,2.6297,2.7549,2.8233,2.7634,2.7625,2.7595,2.76,2.759,2.8468,3.0576,3.1035,3.1177,3.1183,3.1208,3.1206,3.119,3.119,3.1389,3.1733,3.1789,3.1986,3.2417,3.2484,3.2517,0.0,0.0959,0.2192,0.3662,0.4366,0.4945,0.5831,0.6448,0.6747,0.6747,0.7296,0.7794,0.7631,0.76,0.76,0.76,0.7543,0.7499,0.7499,0.7441,0.7397,0.7397,0.7397,0.7363,0.7278,0.7886,0.846,0.9056,1.0173,1.13,1.2516,1.3039,1.3555,1.4088,1.4088,1.4088,1.4088,1.4088,1.4088,1.4088,1.4088,1.4088,1.4088,1.4088,1.4657,1.5696,1.5696,1.687,1.8718,1.8709,1.9349,2.0169,2.0216,2.0264,2.0254,2.0068,2.0117,2.0254,2.0068,2.0,2.0,2.0,2.0127,2.0244,2.0059,2.042,2.0863,2.0939,2.1449,2.1983,2.2261,2.2961,2.3746,2.4164,2.4659,2.5228,2.567,2.4925,2.4285,2.4501,2.5062,2.5396,2.4947,2.5037,2.5062,2.4833,2.5759,2.6364,2.6049,2.7442,2.8334,2.8027,2.8403,2.8697,2.8697,2.8493,2.8581,2.9166,2.9211,2.9171,2.9203,3.0456,3.1487,3.2015,3.1472,3.1291,3.147,3.147,3.1582,3.175,3.175,3.1878,0.0716,0.1546,0.2667,0.3749,0.4319,0.4949,0.579,0.6229,0.6531,0.6531,0.7335,0.7974,0.7753,0.7712,0.7712,0.7712,0.7678,0.7651,0.7651,0.7624,0.76,0.76,0.76,0.7553,0.7441,0.8508,0.9521,1.026,1.1332,1.2519,1.3749,1.3685,1.3822,1.4088,1.4088,1.4088,1.4088,1.4088,1.4088,1.4088,1.4088,1.4088,1.4088,1.4088,1.4657,1.5696,1.6026,1.7326,1.9441,1.9441,1.9844,2.0566,2.0566,2.0566,2.0566,2.0566,2.0566,2.0566,2.0566,2.0566,2.0566,2.0566,2.0566,2.0566,2.0566,2.0566,2.0634,2.0857,2.1298,2.1745,2.2253,2.3294,2.4337,2.4862,2.5581,2.6164,2.6452,2.559,2.4888,2.5144,2.5919,2.6361,2.579,2.5686,2.5582,2.5259,2.5884,2.6364,2.6454,2.7652,2.8569,2.8637,2.9222,2.9579,2.9579,2.9358,2.8906,2.8159,2.842,2.8593,2.8576,3.1015,3.2689,3.3422,3.2703,3.2116,3.1765,3.1765,3.1765,3.1765,3.1765,3.1913,0.2557,0.3367,0.4074,0.4012,0.5636,0.7038,0.6153,0.7033,0.7939,0.7939,0.7939,0.8035,0.8021,0.8018,0.8018,0.8018,0.7896,0.7801,0.7801,0.7685,0.76,0.76,0.76,0.7597,0.759,0.8776,0.9498,0.9582,1.059,1.1634,1.2786,1.2549,1.2942,1.4088,1.4088,1.4088,1.4088,1.4088,1.4088,1.4088,1.4088,1.4088,1.4088,1.4088,1.4657,1.5786,1.6764,1.8461,2.0489,2.0489,2.0566,2.0566,2.0566,2.0566,2.0566,2.0566,2.0566,2.0566,2.0566,2.0566,2.0566,2.0566,2.0566,2.0566,2.0566,2.0566,2.0789,2.1669,2.1298,2.1088,2.2925,2.2776,2.2627,2.4564,2.5004,2.537,2.6314,2.6414,2.6364,2.6445,2.6458,2.6471,2.6458,2.6458,2.6458,2.6445,2.7072,2.7693,2.7886,2.8669,2.929,2.953,2.9579,2.9579,2.9579,2.9922,2.9976,2.9505,3.0624,3.1319,3.1315,3.3909,3.5385,3.5436,3.5403,3.4677,3.3288,3.3288,3.3288,3.3288,3.3288,3.3288,0.1972,0.2444,0.2992,0.3884,0.4929,0.5983,0.6569,0.7301,0.7892,0.7892,0.797,0.8038,0.8038,0.8038,0.8038,0.8038,0.7994,0.7957,0.7957,0.7916,0.7882,0.7882,0.7882,0.7841,0.7743,0.9609,1.0767,1.0639,1.2479,1.3798,1.4161,1.4065,1.419,1.4649,1.4649,1.4649,1.4649,1.4649,1.4649,1.4649,1.4649,1.4649,1.4643,1.4456,1.4942,1.6002,1.6942,1.8149,1.9599,1.9599,2.0001,2.0566,2.0566,2.0566,2.0566,2.0566,2.0566,2.0566,2.0566,2.0566,2.0566,2.0566,2.0566,2.0566,2.0566,2.0566,2.0634,2.1011,2.0857,2.0789,2.1451,2.1811,2.2478,2.4492,2.5511,2.6094,2.6383,2.6533,2.6533,2.6533,2.6533,2.6533,2.6533,2.6533,2.6533,2.6533,2.6782,2.6963,2.7011,2.7731,2.8526,2.9128,2.9724,3.0278,3.078,3.0968,3.0983,3.0836,3.1261,3.148,3.1497,3.2447,3.377,3.5582,3.5618,3.488,3.3406,3.3406,3.3406,3.3406,3.3406,3.3406,0.1949,0.2261,0.2826,0.3479,0.4319,0.5311,0.6292,0.7037,0.7628,0.778,0.7933,0.8038,0.8038,0.8038,0.8038,0.8038,0.8038,0.8038,0.8038,0.8038,0.8038,0.8038,0.8038,0.7997,0.7896,0.9803,1.1182,1.1515,1.3297,1.4637,1.511,1.5017,1.4963,1.4963,1.4963,1.4963,1.4963,1.4963,1.4963,1.4963,1.4963,1.4963,1.4957,1.4763,1.5255,1.6339,1.7295,1.822,1.9045,1.9362,1.9923,2.0566,2.0566,2.0566,2.0566,2.0566,2.0566,2.0566,2.0566,2.0566,2.0566,2.0566,2.0566,2.0566,2.0566,2.0566,2.0634,2.1011,2.0867,2.0712,2.1385,2.2264,2.3441,2.5146,2.6025,2.6533,2.6533,2.6533,2.6533,2.6533,2.6533,2.6533,2.6533,2.6533,2.6533,2.6533,2.6533,2.6589,2.6837,2.7351,2.8182,2.9317,2.995,3.0644,3.1409,3.1482,3.1482,3.1482,3.1482,3.1504,3.1511,3.1509,3.2351,3.4182,3.471,3.4587,3.3795,3.4047,3.415,3.415,3.415,3.415,0.0,0.0,0.0,0.277,0.4006,0.5403,0.5431,0.6302,0.7231,0.7695,0.7909,0.8018,0.8035,0.8038,0.8038,0.8038,0.8038,0.8038,0.8038,0.8038,0.8038,0.8038,0.8038,0.8038,0.8038,0.9217,1.0583,1.1848,1.2881,1.4068,1.5312,1.5144,1.499,1.499,1.499,1.499,1.499,1.499,1.499,1.499,1.499,1.499,1.499,1.5066,1.5665,1.669,1.7897,1.8691,1.9152,2.0205,2.0596,2.0586,2.0586,2.0576,2.0566,2.0566,2.0566,2.0566,2.0566,2.0566,2.0566,2.0566,2.0566,2.0566,2.0566,2.0566,2.0789,2.1735,2.1298,2.1011,2.2925,2.4192,2.5146,2.6164,2.6452,2.6452,2.6452,2.6533,2.6533,2.6533,2.6533,2.6533,2.6533,2.6533,2.6533,2.6533,2.6533,2.6782,2.7537,2.767,2.8363,3.0072,3.0269,3.0644,3.1409,3.1482,3.1482,3.1482,3.1482,3.1482,3.1482,3.1526,3.1488,3.1527,3.2825,3.3871,3.4576,3.5253,3.5577,3.5622,3.5622,3.5622,0.3104,0.0,0.0,0.0,0.0,0.0,0.5325,0.5823,0.639,0.7166,0.736,0.7522,0.7957,0.8038,0.8038,0.8038,0.8038,0.8038,0.8038,0.8038,0.8038,0.8038,0.8038,0.8038,0.8038,1.0096,1.1556,1.1853,1.3915,1.5321,1.5705,1.5631,1.5591,1.5591,1.5591,1.5591,1.5591,1.5591,1.5591,1.5591,1.5591,1.5591,1.5578,1.6253,1.6764,1.7101,1.8946,1.9742,1.9961,2.1087,2.1338,2.1045,2.1045,2.085,2.0566,2.0566,2.0566,2.0566,2.0566,2.0566,2.0566,2.0566,2.0566,2.0566,2.0566,2.0566,2.0634,2.0934,2.0789,2.0712,2.1231,2.2113,2.3062,2.4097,2.4921,2.5581,2.6314,2.6533,2.6533,2.6533,2.6533,2.6533,2.6533,2.6533,2.6533,2.6533,2.6533,2.6589,2.6782,2.7351,2.8117,2.9254,2.995,3.0644,3.1409,3.1482,3.1482,3.1482,3.1482,3.1482,3.1482,3.1519,3.1505,3.1472,3.1905,3.2923,3.4576,3.4783,3.5144,3.5622,3.5622,3.5622,0.3437,0.3663,0.3938,0.4151,0.0,0.0,0.5454,0.5725,0.6091,0.7119,0.7333,0.7458,0.7868,0.7896,0.7875,0.7933,0.7943,0.7967,0.8031,0.8038,0.8038,0.8038,0.8038,0.8237,0.8825,1.0194,1.1556,1.2619,1.4172,1.5242,1.5737,1.5832,1.5832,1.5832,1.5832,1.5832,1.5832,1.5832,1.5832,1.5832,1.5832,1.5832,1.5818,1.6371,1.6919,1.7454,1.9209,2.0174,2.078,2.1949,2.2051,2.1504,2.1504,2.1348,2.1113,2.1113,2.0996,2.084,2.084,2.0723,2.0566,2.0566,2.0566,2.0566,2.0566,2.0566,2.0566,2.0566,2.0566,2.0722,2.1078,2.1737,2.2497,2.3338,2.4134,2.4894,2.5712,2.5873,2.6025,2.6383,2.6533,2.6533,2.6533,2.6533,2.6533,2.6533,2.6533,2.6533,2.6533,2.6905,2.755,2.8363,2.9254,3.0043,3.0734,3.1233,3.1482,3.1482,3.1482,3.1482,3.1482,3.1482,3.1504,3.1516,3.15,3.2238,3.3786,3.4333,3.4941,3.5622,3.5622,3.5622,0.3765,0.387,0.4128,0.4379,0.4253,0.0,0.5562,0.5739,0.5976,0.7115,0.7353,0.7411,0.7604,0.755,0.7516,0.7641,0.7719,0.7821,0.7991,0.8014,0.8014,0.8014,0.8014,0.851,0.9899,1.0096,1.1258,1.368,1.407,1.4657,1.573,1.5832,1.5832,1.5832,1.5832,1.5832,1.5832,1.5832,1.5832,1.5832,1.5832,1.5832,1.5832,1.592,1.6662,1.7963,1.9222,2.0395,2.1569,2.2677,2.2676,2.1953,2.1953,2.1924,2.1885,2.1885,2.1641,2.1309,2.1309,2.1045,2.0713,2.0713,2.0713,2.0713,2.0713,2.0713,2.0713,2.0713,2.0713,2.0937,2.1747,2.2268,2.2787,2.3337,2.3793,2.4307,2.4989,2.5135,2.5384,2.6402,2.6571,2.6533,2.6533,2.6533,2.6533,2.6533,2.6533,2.6533,2.6533,2.6589,2.6905,2.7604,2.8492,2.9247,2.9768,3.0837,3.1526,3.1482,3.1482,3.1482,3.1482,3.1482,3.1482,3.1482,3.1582,3.1951,3.2586,3.3937,3.4894,3.547,3.5577,3.5622,0.4402,0.4385,0.4362,0.4304,0.4334,0.0,0.4505,0.4663,0.4928,0.565,0.58,0.5956,0.6468,0.6634,0.6702,0.6729,0.7139,0.755,0.7818,0.7855,0.7855,0.7855,0.7855,0.8387,0.9887,1.0974,1.2231,1.3782,1.4854,1.5534,1.5825,1.5832,1.5832,1.5832,1.5832,1.5832,1.5832,1.5832,1.5832,1.5832,1.5832,1.5832,1.5832,1.685,1.7948,1.9222,2.0395,2.1667,2.2775,2.296,2.2842,2.2393,2.2393,2.2187,2.1885,2.1885,2.1836,2.1758,2.1758,2.1699,2.1631,2.1631,2.1631,2.1631,2.1631,2.1631,2.1631,2.1631,2.1631,2.1703,2.1856,2.2006,2.2271,2.316,2.344,2.3956,2.5826,2.5858,2.5841,2.6893,2.6766,2.6533,2.6533,2.6533,2.6533,2.6533,2.6533,2.6533,2.6533,2.7095,2.755,2.767,2.8492,2.9247,2.9768,3.0862,3.1531,3.1497,3.1482,3.1482,3.1482,3.1482,3.1482,3.1482,3.2064,3.2437,3.2586,3.3937,3.4688,3.4783,3.5362,3.5622,0.4738,0.4633,0.4657,0.4507,0.4463,0.0,0.0,0.4858,0.534,0.6321,0.6112,0.5992,0.6708,0.6439,0.6162,0.6237,0.6756,0.7149,0.7143,0.7594,0.7926,0.7926,0.7926,0.8732,1.0769,1.156,1.2721,1.4657,1.5439,1.5832,1.5832,1.5832,1.5832,1.5832,1.5832,1.5832,1.5832,1.5832,1.5832,1.5832,1.5832,1.5832,1.5825,1.648,1.7762,1.9488,2.0124,2.14,2.3135,2.3135,2.3018,2.2822,2.2822,2.2695,2.251,2.251,2.2373,2.2197,2.2197,2.206,2.1885,2.1885,2.1885,2.1885,2.1885,2.1885,2.1885,2.1885,2.1885,2.1885,2.1885,2.2041,2.2306,2.2543,2.3206,2.41,2.5449,2.596,2.6454,2.7466,2.7469,2.7193,2.6917,2.6866,2.6866,2.6866,2.6866,2.6766,2.6559,2.685,2.7095,2.7095,2.7855,2.8319,2.8162,3.0225,3.1514,3.1486,3.1528,3.1482,3.1482,3.1482,3.1482,3.1482,3.1838,3.2064,3.2064,3.3077,3.3937,3.464,3.5316,3.5622,0.503,0.505,0.5239,0.5022,0.5085,0.5208,0.0,0.0,0.0,0.7159,0.6642,0.6262,0.6822,0.6198,0.5616,0.5711,0.6281,0.6603,0.6302,0.7112,0.774,0.774,0.7841,0.8777,1.1178,1.1718,1.3003,1.5615,1.5625,1.5591,1.5818,1.5832,1.5832,1.5832,1.5832,1.5832,1.5832,1.5832,1.5832,1.5832,1.5832,1.5832,1.5832,1.5832,1.7117,1.9497,1.9497,2.0854,2.3135,2.3135,2.3135,2.3135,2.3135,2.3135,2.3135,2.3135,2.292,2.2637,2.2637,2.2412,2.2129,2.2129,2.2129,2.2129,2.2129,2.2129,2.2129,2.2129,2.2129,2.2129,2.2129,2.2383,2.2549,2.2207,2.3266,2.4466,2.5125,2.6051,2.7071,2.8027,2.8185,2.7959,2.7519,2.7444,2.7444,2.7444,2.7444,2.7281,2.6829,2.6779,2.6779,2.6779,2.743,2.7468,2.6537,2.9016,3.0823,3.1467,3.1515,3.1599,3.1749,3.1854,3.1795,3.1676,3.1735,3.1795,3.1913,3.2405,3.3256,3.4431,3.5098,3.547,0.5525,0.6055,0.6664,0.6026,0.6741,0.7387,0.6445,0.0,0.6731,0.6579,0.0,0.563,0.5693,0.0,0.0,0.466,0.5365,0.5827,0.5528,0.6159,0.6651,0.6651,0.7122,0.7989,0.944,1.1061,1.3076,1.5651,1.487,1.4736,1.5772,1.5832,1.5832,1.5832,1.5832,1.5832,1.5832,1.5832,1.5832,1.5832,1.5832,1.5832,1.5832,1.5832,1.7117,1.9497,1.9497,2.0854,2.3135,2.3135,2.3135,2.3135,2.3135,2.3135,2.3135,2.3135,2.3105,2.3066,2.3066,2.3037,2.2998,2.2998,2.2998,2.2998,2.2998,2.2998,2.2998,2.2998,2.2998,2.2998,2.2998,2.3027,2.3057,2.3008,2.3851,2.503,2.6068,2.6839,2.7548,2.8599,2.8448,2.8084,2.8021,2.8009,2.8009,2.8009,2.8009,2.7996,2.7921,2.7921,2.7921,2.7921,2.7981,2.7599,2.6557,2.6868,2.8311,3.1287,3.1515,3.1839,3.2646,3.3081,3.2991,3.2422,3.2556,3.2853,3.3275,3.2942,3.3082,3.3735,3.4382,3.5052,0.7285,0.7878,0.8392,0.7436,0.7887,0.832,0.6997,0.6902,0.7197,0.7387,0.0,0.0,0.0,0.0,0.0,0.0,0.5562,0.6098,0.5864,0.655,0.697,0.651,0.6695,0.7838,1.0192,1.1402,1.2984,1.5392,1.4649,1.4522,1.5524,1.5738,1.5832,1.5832,1.5832,1.5832,1.5832,1.5832,1.5832,1.5832,1.5832,1.5832,1.5832,1.6574,1.7855,1.9588,2.0215,2.1489,2.3135,2.3135,2.3135,2.3135,2.3135,2.3135,2.3135,2.3135,2.3135,2.3135,2.3135,2.3135,2.3135,2.3135,2.3135,2.3135,2.3135,2.3135,2.3135,2.3135,2.3135,2.3135,2.3135,2.3135,2.3135,2.3135,2.4478,2.5891,2.64,2.7702,2.8852,2.9351,2.9239,2.9089,2.9089,2.8812,2.8586,2.8586,2.8586,2.8461,2.8147,2.8109,2.8109,2.8109,2.8109,2.7871,2.721,2.676,2.7852,3.114,3.2159,3.2811,3.3201,3.3154,3.2943,3.2675,3.332,3.3681,3.3923,3.3442,3.3551,3.4148,3.4867,3.5542,0.915,0.9569,0.9887,0.8666,0.8893,0.904,0.7819,0.7761,0.8068,0.8386,0.7609,0.0,0.0,0.0,0.5349,0.554,0.0,0.6568,0.6282,0.6861,0.718,0.6718,0.6908,0.807,1.06,1.0969,1.2161,1.484,1.4068,1.4041,1.5324,1.5591,1.5745,1.5825,1.5832,1.5832,1.5832,1.5832,1.6015,1.6292,1.6292,1.6473,1.6842,1.777,1.8864,2.0034,2.0935,2.1943,2.3135,2.3135,2.3135,2.3135,2.3135,2.3135,2.3135,2.3135,2.3135,2.3135,2.3135,2.3135,2.3135,2.3135,2.3135,2.3135,2.3135,2.3135,2.3135,2.3135,2.3135,2.3135,2.3135,2.3135,2.3135,2.3135,2.4638,2.6141,2.6389,2.7959,2.9443,2.9714,2.9792,2.9792,2.9792,2.9453,2.9164,2.9164,2.9164,2.9026,2.8624,2.8574,2.8574,2.8574,2.8574,2.8486,2.8224,2.7713,2.8858,3.2174,3.3284,3.3679,3.3499,3.354,3.3401,3.3179,3.4085,3.454,3.454,3.4205,3.4317,3.4802,3.5102,3.5694,1.0845,1.0954,1.1097,0.9591,0.9662,0.988,0.9266,0.9389,0.9508,0.9236,0.9014,0.88,0.8569,0.7935,0.7254,0.6802,0.7068,0.0,0.0,0.6713,0.6982,0.7046,0.7913,0.8856,0.9703,0.9371,1.0521,1.3891,1.2772,1.2953,1.5271,1.5404,1.5538,1.5818,1.5832,1.5832,1.5832,1.5832,1.6386,1.7598,1.7598,1.8226,1.9397,1.9405,2.0124,2.1203,2.1293,2.1943,2.3135,2.3135,2.3135,2.3135,2.3135,2.3135,2.3135,2.3135,2.3135,2.3135,2.3135,2.3135,2.3135,2.3135,2.3135,2.3135,2.3135,2.3135,2.3135,2.3135,2.3135,2.3135,2.3135,2.3135,2.3135,2.3135,2.3963,2.5126,2.6224,2.7371,2.8505,2.9624,2.9792,2.9792,2.9792,2.9779,2.9767,2.9767,2.9767,2.9754,2.9741,2.9741,2.9741,2.9741,2.9741,2.9757,2.9744,2.9699,3.1316,3.514,3.4831,3.4158,3.3529,3.4741,3.4991,3.4152,3.4976,3.5459,3.5459,3.5444,3.5444,3.5464,3.4804,3.4914,1.3856,1.4359,1.4423,1.2357,1.2155,1.1937,0.998,0.976,0.9826,0.9283,0.9254,0.9238,0.8914,0.8121,0.7608,0.7966,0.7943,0.7799,0.0,0.7688,0.7806,0.0,0.0,0.0,0.0,0.0,1.1031,1.334,1.322,1.3734,1.5311,1.5398,1.5531,1.5818,1.5832,1.5925,1.6119,1.5925,1.6211,1.7086,1.6884,1.7551,1.8977,1.9827,2.096,2.2179,2.2744,2.3198,2.3545,2.3262,2.3135,2.3135,2.3135,2.3135,2.3135,2.3135,2.3135,2.3135,2.3135,2.3135,2.3135,2.3135,2.3135,2.3135,2.3135,2.3135,2.3135,2.3135,2.3135,2.3135,2.3135,2.3135,2.3135,2.3135,2.4553,2.6058,2.6389,2.7959,2.9365,2.9714,2.9792,2.9792,2.9792,2.9792,2.9792,2.9792,2.9792,2.9792,2.9792,2.9792,2.9792,2.9792,2.9792,2.9831,2.9795,3.09,3.2761,3.5365,3.4668,3.4398,3.4831,3.5265,3.537,3.5036,3.537,3.5504,3.5504,3.5504,3.5504,3.5489,3.5266,3.5554,1.6206,1.6433,1.6266,1.4442,1.3968,1.3394,1.1263,1.1002,1.1049,1.0448,1.0226,1.0296,1.061,0.9508,0.8792,0.9383,0.907,0.8625,0.0,0.8286,0.0,0.0,0.0,0.0,0.0,0.0,0.0,1.332,1.3106,1.3601,1.5304,1.5398,1.5578,1.5972,1.5985,1.6126,1.6426,1.6233,1.6808,1.8057,1.7952,1.8819,2.0762,2.1536,2.2398,2.3261,2.3756,2.4014,2.3984,2.3711,2.3594,2.3594,2.3594,2.3594,2.3555,2.3252,2.3135,2.3135,2.3135,2.3135,2.3135,2.3135,2.3135,2.3135,2.3135,2.3135,2.3135,2.3135,2.3135,2.3135,2.3135,2.3135,2.3135,2.3135,2.4221,2.5473,2.6307,2.7637,2.8882,2.9624,2.9792,2.9792,2.9792,2.9792,2.9792,2.9792,2.9792,2.9792,2.9792,2.9792,2.9792,2.9792,2.9792,2.9806,2.9783,3.0934,3.2559,3.4681,3.4289,3.4461,3.5439,3.5504,3.5504,3.5504,3.5504,3.5504,3.5504,3.5504,3.5504,3.5504,3.5504,3.5718]},{"header":{"parameterUnit":"m.s-1","parameterCategory":1,"la1":30.6,"la2":29.2853,"lo1":-89.7004,"lo2":-87.6739,"dx":0.0162,"dy":0.0183,"nx":112,"ny":82,"refTime":"2022-12-16T18:00:00:Z","depth":0,"parameterNumber":3,"parameterNumberName":"V-component_of_WINDS"},"data":[0.0,0.0,0.0,0.0,0.0,0.0,0.0,0.0,0.0,0.0,0.0,0.0,0.0,0.0,0.0,0.0,0.0,0.0,0.0,0.0,0.0,0.0,0.0,0.0,0.0,0.0,0.0,0.0,0.0,0.0,0.0,0.0,0.0,0.0,0.0,0.0,0.0,0.0,0.0,0.0,0.0,0.0,0.0,0.0,0.0,0.0,0.0,0.0,0.0,0.0,0.0,0.0,0.0,0.0,0.0,0.0,0.0,0.0,0.0,0.0,0.0,0.0,0.0,0.0,0.0,0.0,0.0,0.0,0.0,0.0,0.0,0.0,0.0,0.0,0.0,0.0,0.0,0.0,0.0,0.0,0.0,0.0,0.0,0.0,0.0,0.0,0.0,0.0,0.0,0.0,-1.7406,-1.9432,-2.1785,-2.3165,-2.3117,-2.284,-2.005,-1.4005,0.0,0.0,0.0,0.0,0.0,0.0,0.0,0.0,0.0,0.0,0.0,0.0,0.0,0.0,0.0,0.0,0.0,0.0,0.0,0.0,0.0,0.0,0.0,0.0,0.0,0.0,0.0,0.0,0.0,0.0,0.0,0.0,0.0,0.0,0.0,0.0,0.0,0.0,0.0,0.0,0.0,0.0,0.0,0.0,0.0,0.0,0.0,0.0,0.0,0.0,0.0,0.0,0.0,0.0,0.0,0.0,0.0,0.0,0.0,0.0,0.0,0.0,0.0,0.0,0.0,0.0,0.0,0.0,0.0,0.0,0.0,0.0,0.0,0.0,0.0,0.0,0.0,0.0,0.0,0.0,0.0,0.0,0.0,0.0,0.0,0.0,0.0,0.0,0.0,0.0,0.0,0.0,0.0,0.0,0.0,0.0,0.0,0.0,0.0,0.0,0.0,0.0,0.0,0.0,-1.7027,-2.2389,-2.3109,-2.3093,-2.2797,-2.2527,-1.9893,-1.405,0.0,0.0,0.0,0.0,0.0,0.0,0.0,0.0,0.0,0.0,0.0,0.0,0.0,0.0,0.0,0.0,0.0,0.0,0.0,0.0,0.0,0.0,0.0,0.0,0.0,0.0,0.0,0.0,0.0,0.0,0.0,0.0,0.0,0.0,0.0,0.0,0.0,0.0,0.0,0.0,0.0,0.0,0.0,0.0,0.0,0.0,0.0,0.0,0.0,0.0,0.0,0.0,0.0,0.0,0.0,0.0,0.0,0.0,0.0,0.0,0.0,0.0,0.0,0.0,0.0,0.0,0.0,0.0,0.0,0.0,0.0,0.0,0.0,0.0,0.0,0.0,0.0,0.0,0.0,0.0,0.0,0.0,0.0,0.0,0.0,0.0,0.0,0.0,0.0,0.0,0.0,0.0,0.0,0.0,0.0,0.0,0.0,0.0,0.0,0.0,0.0,0.0,0.0,-1.588,-1.8824,-2.3234,-2.3552,-2.3259,-2.2746,-2.2573,-1.9976,-1.403,-1.3304,0.0,0.0,0.0,0.0,0.0,0.0,0.0,0.0,0.0,0.0,0.0,0.0,0.0,0.0,0.0,0.0,0.0,0.0,0.0,0.0,0.0,0.0,0.0,0.0,0.0,0.0,0.0,0.0,0.0,0.0,0.0,0.0,0.0,0.0,0.0,0.0,0.0,0.0,0.0,0.0,0.0,0.0,0.0,0.0,0.0,0.0,0.0,0.0,0.0,0.0,0.0,0.0,0.0,0.0,0.0,0.0,0.0,0.0,0.0,0.0,0.0,0.0,0.0,0.0,0.0,0.0,0.0,0.0,0.0,0.0,0.0,0.0,0.0,0.0,0.0,0.0,0.0,0.0,0.0,0.0,0.0,0.0,0.0,0.0,0.0,0.0,0.0,0.0,0.0,0.0,0.0,0.0,0.0,0.0,0.0,0.0,0.0,0.0,0.0,0.0,0.0,0.0,-1.8217,-2.1116,-2.3458,-2.3553,-2.3212,-2.26,-2.2504,-1.99,-1.3824,-1.3147,0.0,0.0,0.0,0.0,0.0,0.0,0.0,0.0,0.0,0.0,0.0,0.0,0.0,0.0,0.0,0.0,0.0,0.0,0.0,0.0,0.0,0.0,0.0,0.0,0.0,0.0,0.0,0.0,0.0,0.0,0.0,0.0,0.0,0.0,0.0,0.0,0.0,0.0,0.0,0.0,0.0,0.0,0.0,0.0,0.0,0.0,0.0,0.0,0.0,0.0,0.0,0.0,0.0,0.0,0.0,0.0,0.0,0.0,0.0,0.0,0.0,0.0,0.0,0.0,0.0,0.0,0.0,0.0,0.0,0.0,0.0,0.0,0.0,0.0,0.0,0.0,0.0,0.0,0.0,0.0,0.0,0.0,0.0,0.0,0.0,0.0,0.0,0.0,0.0,0.0,0.0,0.0,0.0,0.0,0.0,0.0,0.0,0.0,0.0,0.0,0.0,0.0,-1.9468,-2.3124,-2.3643,-2.314,-2.26,-2.218,-2.1967,-1.931,-1.3322,-1.2742,0.0,0.0,0.0,0.0,0.0,0.0,0.0,0.0,0.0,0.0,0.0,0.0,0.0,0.0,0.0,0.0,0.0,0.0,0.0,0.0,0.0,0.0,0.0,0.0,0.0,0.0,0.0,0.0,0.0,0.0,0.0,0.0,0.0,0.0,0.0,0.0,0.0,0.0,0.0,0.0,0.0,0.0,0.0,0.0,0.0,0.0,0.0,0.0,0.0,0.0,0.0,0.0,0.0,0.0,0.0,0.0,0.0,0.0,0.0,0.0,0.0,0.0,0.0,0.0,0.0,0.0,0.0,0.0,0.0,0.0,0.0,0.0,0.0,0.0,0.0,0.0,0.0,0.0,0.0,0.0,0.0,0.0,0.0,0.0,0.0,0.0,0.0,0.0,0.0,0.0,0.0,0.0,0.0,0.0,0.0,0.0,0.0,0.0,0.0,0.0,0.0,0.0,-1.7846,-2.1022,-2.3158,-2.2754,-2.2197,-2.1816,-2.1487,-1.89,-1.3263,0.0,0.0,0.0,0.0,0.0,0.0,0.0,0.0,0.0,0.0,0.0,0.0,0.0,0.0,0.0,0.0,0.0,0.0,0.0,0.0,0.0,0.0,0.0,0.0,0.0,0.0,0.0,0.0,0.0,0.0,0.0,0.0,0.0,0.0,0.0,0.0,0.0,0.0,0.0,0.0,0.0,0.0,0.0,0.0,0.0,0.0,0.0,0.0,0.0,0.0,0.0,0.0,0.0,0.0,0.0,0.0,0.0,0.0,0.0,0.0,0.0,0.0,0.0,0.0,0.0,0.0,0.0,0.0,0.0,0.0,0.0,0.0,0.0,0.0,0.0,0.0,0.0,0.0,0.0,0.0,0.0,0.0,0.0,0.0,0.0,0.0,0.0,0.0,0.0,0.0,0.0,0.0,0.0,0.0,0.0,0.0,0.0,0.0,0.0,0.0,0.0,0.0,-1.3968,-1.7302,-2.0315,-2.2586,-2.2029,-2.1346,-2.1007,-2.0575,-1.8082,-1.2769,0.0,0.0,0.0,0.0,0.0,0.0,0.0,0.0,0.0,0.0,0.0,0.0,0.0,0.0,0.0,0.0,0.0,0.0,0.0,0.0,0.0,0.0,0.0,0.0,0.0,0.0,0.0,0.0,0.0,0.0,0.0,0.0,0.0,0.0,0.0,0.0,0.0,0.0,0.0,0.0,0.0,0.0,0.0,0.0,0.0,0.0,0.0,0.0,0.0,0.0,0.0,0.0,0.0,0.0,0.0,0.0,0.0,0.0,0.0,0.0,0.0,0.0,0.0,0.0,0.0,0.0,0.0,0.0,0.0,0.0,0.0,0.0,0.0,0.0,0.0,0.0,0.0,0.0,0.0,0.0,0.0,0.0,0.0,0.0,0.0,0.0,0.0,0.0,0.0,0.0,0.0,0.0,0.0,0.0,0.0,0.0,0.0,0.0,0.0,0.0,0.0,0.0,-1.3837,-1.8394,-2.1744,-2.2068,-2.0973,-2.0051,-1.9641,-1.9146,-1.6748,0.0,0.0,0.0,0.0,0.0,0.0,0.0,0.0,0.0,0.0,0.0,0.0,0.0,0.0,0.0,0.0,0.0,0.0,0.0,0.0,0.0,0.0,0.0,0.0,0.0,0.0,0.0,0.0,0.0,0.0,0.0,0.0,0.0,0.0,0.0,0.0,0.0,0.0,0.0,0.0,0.0,0.0,0.0,0.0,0.0,0.0,0.0,0.0,0.0,0.0,0.0,0.0,0.0,0.0,0.0,0.0,0.0,0.0,0.0,0.0,0.0,0.0,0.0,0.0,0.0,0.0,0.0,0.0,0.0,0.0,0.0,0.0,0.0,0.0,0.0,0.0,0.0,0.0,0.0,0.0,0.0,0.0,0.0,0.0,0.0,0.0,0.0,0.0,0.0,0.0,0.0,0.0,0.0,0.0,0.0,0.0,0.0,0.0,0.0,0.0,0.0,0.0,0.0,-1.3848,-1.8413,-2.1744,-2.2068,-2.0719,-1.9733,-1.9606,-1.8804,-1.6285,-1.1484,0.0,0.0,0.0,0.0,0.0,0.0,0.0,0.0,0.0,0.0,0.0,0.0,0.0,0.0,0.0,0.0,0.0,0.0,0.0,0.0,0.0,0.0,0.0,0.0,0.0,0.0,0.0,0.0,0.0,0.0,0.0,0.0,0.0,0.0,0.0,0.0,0.0,0.0,0.0,0.0,0.0,0.0,0.0,0.0,0.0,0.0,0.0,0.0,0.0,0.0,0.0,0.0,0.0,0.0,0.0,0.0,0.0,0.0,0.0,0.0,0.0,0.0,0.0,0.0,0.0,0.0,0.0,0.0,0.0,0.0,0.0,0.0,0.0,0.0,0.0,0.0,0.0,0.0,0.0,0.0,0.0,0.0,0.0,0.0,0.0,0.0,0.0,0.0,0.0,0.0,0.0,0.0,0.0,0.0,0.0,0.0,0.0,0.0,0.0,0.0,0.0,0.0,-1.3393,-1.8142,-2.1488,-2.1424,-2.0208,-1.9286,-1.9055,-1.7868,-1.5568,-1.1963,0.0,0.0,0.0,0.0,0.0,0.0,0.0,0.0,0.0,0.0,0.0,0.0,0.0,0.0,0.0,0.0,0.0,0.0,0.0,0.0,0.0,0.0,0.0,0.0,0.0,0.0,0.0,0.0,0.0,0.0,0.0,0.0,0.0,0.0,0.0,0.0,0.0,0.0,0.0,0.0,0.0,0.0,0.0,0.0,0.0,0.0,0.0,0.0,0.0,0.0,0.0,0.0,0.0,0.0,0.0,0.0,0.0,0.0,0.0,0.0,0.0,0.0,0.0,0.0,0.0,0.0,0.0,0.0,0.0,0.0,0.0,0.0,0.0,0.0,0.0,0.0,0.0,0.0,0.0,0.0,0.0,0.0,0.0,0.0,0.0,0.0,0.0,0.0,0.0,0.0,0.0,0.0,0.0,0.0,0.0,0.0,0.0,0.0,0.0,0.0,0.0,0.0,-1.2719,-1.7657,-2.0929,-2.0376,-1.9546,-1.8809,-1.8266,-1.6654,-1.4853,-1.2877,0.0,0.0,0.0,0.0,0.0,0.0,0.0,0.0,0.0,0.0,0.0,0.0,0.0,0.0,0.0,0.0,0.0,0.0,0.0,0.0,0.0,0.0,0.0,0.0,0.0,0.0,0.0,0.0,0.0,0.0,0.0,0.0,0.0,0.0,0.0,0.0,0.0,0.0,0.0,0.0,0.0,0.0,0.0,0.0,0.0,0.0,0.0,0.0,0.0,0.0,0.0,0.0,0.0,0.0,0.0,0.0,0.0,0.0,0.0,0.0,-0.3286,-0.2837,0.0,0.0,0.0,0.0,0.0,0.0,0.0,0.0,0.0,0.0,0.0,0.0,0.0,0.0,0.0,0.0,0.0,0.0,0.0,0.0,0.0,0.0,0.0,0.0,0.0,0.0,0.0,0.0,0.0,0.0,0.0,0.0,0.0,0.0,0.0,0.0,0.0,0.0,0.0,0.0,-1.2855,-1.7037,-1.9924,-1.9767,-1.8934,-1.8339,-1.8222,-1.7041,-1.5368,-1.3223,-1.3744,0.0,0.0,0.0,0.0,0.0,0.0,0.0,0.0,0.0,0.0,0.0,0.0,0.0,0.0,0.0,0.0,0.0,0.0,0.0,0.0,0.0,0.0,0.0,0.0,0.0,0.0,0.0,0.0,0.0,0.0,0.0,0.0,0.0,0.0,0.0,0.0,0.0,0.0,0.0,0.0,0.0,0.0,0.0,0.0,0.0,0.0,0.0,0.0,0.0,0.0,0.0,0.0,0.0,0.0,0.0,0.0,0.0,0.0,0.0,-0.3533,-0.3362,0.0,0.0,0.0,0.0,0.0,0.0,0.0,0.0,0.0,0.0,0.0,0.0,0.0,0.0,0.0,0.0,0.0,0.0,0.0,0.0,0.0,0.0,0.0,0.0,0.0,0.0,0.0,0.0,0.0,0.0,0.0,0.0,0.0,0.0,0.0,0.0,0.0,0.0,0.0,0.0,-1.3229,-1.6793,-1.925,-1.9305,-1.8596,-1.8132,-1.8196,-1.6606,-1.5277,-1.4423,-1.4575,0.0,0.0,0.0,0.0,0.0,0.0,0.0,0.0,0.0,0.0,0.0,0.0,0.0,0.0,0.0,0.0,0.0,0.0,0.0,0.0,0.0,0.0,0.0,0.0,0.0,0.0,0.0,0.0,0.0,0.0,0.0,0.0,0.0,0.0,0.0,0.0,0.0,0.0,0.0,0.0,0.0,0.0,0.0,0.0,0.0,0.0,0.0,0.0,0.0,0.0,0.0,0.0,0.0,-0.3147,-0.3357,-0.3404,-0.3803,-0.4156,-0.4457,-0.3739,-0.396,-0.46,-0.285,0.0,0.0,0.0,0.0,0.0,0.0,0.0,0.0,0.0,0.0,0.0,0.0,0.0,0.0,0.0,0.0,0.0,0.0,0.0,0.0,0.0,0.0,-1.4155,-1.474,-1.5298,-1.4906,-1.2015,0.0,0.0,0.0,0.0,0.0,0.0,0.0,0.0,0.0,0.0,0.0,-1.4162,-1.6936,-1.8728,-1.8784,-1.8329,-1.8044,-1.7989,-1.6172,-1.5242,-1.5732,-1.4869,-1.454,0.0,0.0,0.0,0.0,0.0,0.0,0.0,0.0,0.0,0.0,0.0,0.0,0.0,0.0,0.0,0.0,0.0,0.0,0.0,0.0,0.0,0.0,0.0,0.0,0.0,0.0,0.0,0.0,0.0,0.0,0.0,0.0,0.4188,0.3926,0.0,0.0,0.0,0.0,0.0,0.0,0.0,0.0,0.0,0.0,0.0,0.0,0.0,0.0118,-0.0778,-0.117,-0.1526,-0.1794,-0.2898,-0.338,-0.3324,-0.4172,-0.4652,-0.4831,-0.4295,0.0,-0.4811,-0.3914,0.0,0.0,0.0,0.0,0.0,0.0,0.0,0.0,0.0,0.0,0.0,0.0,0.0,0.0,0.0,0.0,0.0,0.0,0.0,0.0,0.0,0.0,-2.1765,-2.0628,-1.9813,-1.917,-1.8661,-1.4342,-1.0412,-0.9859,-1.029,-0.9904,0.0,0.0,0.0,0.0,0.0,0.0,-1.6487,-1.7733,-1.8246,-1.8089,-1.8092,-1.7929,-1.7315,-1.663,-1.6293,-1.638,-1.5776,-1.481,-1.3431,-1.5048,0.0,0.0,0.0,0.0,0.0,0.0,0.0,0.0,0.0,0.0,0.0,0.0,0.0,0.0,0.0,0.0,0.0,0.0,0.0,0.0,0.0,0.0,0.0,0.0,0.0,0.0,0.0,0.0,0.0,0.4434,0.5031,0.4783,0.4196,0.3556,0.0,0.0,0.0,0.0,0.0,0.0,0.0,0.0,0.0,0.182,0.1731,0.1378,0.071,0.0473,-0.0165,-0.121,-0.1806,-0.2339,-0.2841,-0.3274,-0.3451,-0.3435,-0.3833,-0.4112,-0.4251,-0.4015,-0.3614,-0.3149,0.0,0.0,0.0,0.0,-0.3535,-0.4616,-0.5941,-0.7579,-0.9134,-0.9538,0.0,0.0,0.0,0.0,0.0,0.0,0.0,-1.6679,-1.8693,-2.062,-2.2158,-2.2677,-2.24,-2.1949,-2.1667,-1.9199,-1.6336,-1.3935,-1.3317,-1.2246,-0.927,-1.0625,0.0,0.0,0.0,-1.5037,-1.758,-1.7978,-1.8004,-1.7918,-1.8003,-1.7799,-1.7132,-1.6701,-1.647,-1.6491,-1.5276,-1.4563,-1.4518,-1.3933,-1.2911,0.0,0.0,0.0,0.0,0.0,0.0,0.0,0.0,0.0,0.0,0.0,0.0,0.0,0.0,0.0,0.0,0.0,0.0,0.0,0.0,0.0,0.0,0.0,0.0,0.0,0.0,0.0,0.0,0.5209,0.5961,0.5704,0.5261,0.4704,0.0,0.0,0.0,0.0,0.0,0.0,0.3008,0.3239,0.3318,0.3144,0.3134,0.2913,0.2359,0.2067,0.1275,0.0,-0.0319,-0.0839,-0.1556,-0.201,-0.2116,-0.2011,-0.3081,-0.3499,-0.3533,-0.4091,-0.4098,-0.3855,-0.3686,-0.3615,-0.3679,-0.4125,-0.5194,-0.6606,-0.7838,-0.9432,-1.101,-1.1256,-1.2244,-1.3304,-1.3061,0.0,0.0,0.0,0.0,-1.8037,-2.0507,-2.1511,-2.2288,-2.3769,-2.4004,-2.3753,-2.327,-2.2538,-2.1022,-1.7838,-1.6802,-1.5492,-1.2436,-1.3894,0.0,-1.4567,-1.5438,-1.6888,-1.8861,-1.8438,-1.7998,-1.8108,-1.7962,-1.7725,-1.7345,-1.6872,-1.6638,-1.6717,-1.5154,-1.4589,-1.532,-1.3173,-1.269,-1.4252,0.0,0.0,0.0,0.0,0.0,0.0,0.0,0.0,0.0,0.0,0.0,0.0,0.0,0.0,0.0,0.0,0.0,0.0,0.0,0.0,0.0,0.0,0.0,0.0,0.0,0.0,0.0,0.0,0.0,0.673,0.6967,0.0,0.0,0.0,0.0,0.3107,0.3206,0.3417,0.3744,0.4763,0.5202,0.4819,0.4917,0.4648,0.3919,0.3054,0.2591,0.2531,0.1596,0.113,0.1063,-0.0598,-0.1328,-0.1393,-0.2333,-0.2737,-0.2863,-0.444,-0.4911,-0.4629,-0.4284,-0.4481,-0.5102,-0.6071,-0.7666,-0.9466,-1.0694,-1.2086,-1.3431,-1.416,-1.4809,-1.5498,-1.6237,-1.6241,0.0,0.0,-1.8762,-2.1264,-2.2546,-2.3862,-2.4856,-2.4773,-2.4695,-2.4517,-2.4045,-2.3127,-2.2066,-2.1034,-2.1323,-2.0807,-1.7895,0.0,-2.0188,-1.9122,-1.7906,-1.813,-2.0992,-1.9494,-1.8326,-1.8625,-1.8175,-1.7879,-1.7843,-1.7369,-1.7159,-1.7318,-1.6127,-1.5238,-1.4766,-1.4079,-1.2973,-1.1548,-1.3031,0.0,0.0,0.0,0.0,0.0,0.0,0.0,0.0,0.0,0.0,0.0,0.0,0.0,0.0,0.0,0.0,0.0,0.0,0.0,0.0,0.0,0.0,0.0,0.0,0.0,0.0,0.0,0.0,0.6996,0.7182,0.0,0.6398,0.6021,0.5694,0.5381,0.5774,0.6061,0.6151,0.658,0.6784,0.6694,0.6773,0.6719,0.6591,0.5697,0.4944,0.4331,0.3469,0.2737,0.2204,0.1535,0.1267,0.1201,0.0267,-0.0467,-0.1067,-0.2176,-0.2923,-0.3382,-0.3312,-0.3917,-0.5102,-0.6022,-0.7958,-1.034,-1.1339,-1.2636,-1.4069,-1.5076,-1.5514,-1.5894,-1.7156,-1.759,-1.7909,-1.9081,-2.0436,-2.186,-2.3335,-2.4463,-2.5197,-2.5038,-2.4774,-2.4502,-2.4252,-2.3798,-2.3337,-2.3039,-2.2812,-2.2063,-2.0117,-2.1556,-2.2246,-2.0122,-1.96,-1.9754,-2.0565,-1.9537,-1.8277,-1.722,-1.831,-1.8488,-1.6949,-1.7435,-1.7706,-1.7413,-1.5903,-1.4888,-1.4709,-1.3742,-1.2919,-1.2328,-1.2543,-1.1847,0.0,0.0,0.0,0.0,0.0,0.0,0.0,0.0,0.0,0.0,0.0,0.0,0.0,0.0,0.0,0.0,0.0,0.0,0.0,0.0,0.0,0.0,0.0,0.0,0.0,0.7022,0.7726,0.7502,0.7827,0.791,0.7473,0.7304,0.7272,0.7309,0.7442,0.7628,0.7996,0.8007,0.8177,0.8646,0.8357,0.8439,0.8843,0.7692,0.6841,0.6179,0.5332,0.4604,0.4069,0.3737,0.3606,0.3538,0.2596,0.1864,0.1265,0.04,-0.0333,-0.1002,-0.2207,-0.3497,-0.4724,-0.5548,-0.735,-0.9596,-1.1056,-1.2321,-1.35,-1.4853,-1.5197,-1.5334,-1.6514,-1.729,-1.8029,-1.9379,-2.0397,-2.1464,-2.3262,-2.4247,-2.4767,-2.4959,-2.4639,-2.4334,-2.4429,-2.4128,-2.3892,-2.4092,-2.3889,-2.3288,-2.2026,-2.2994,-2.3,-2.0255,-1.9724,-1.9415,-1.8745,-1.8066,-1.7219,-1.6139,-1.7354,-1.7772,-1.657,-1.6773,-1.7046,-1.7304,-1.5626,-1.4744,-1.5005,-1.3439,-1.2606,-1.2745,-1.2076,-1.0826,-0.9052,0.0,0.0,0.0,0.0,0.0,0.0,0.0,0.0,0.0,0.0,0.0,0.0,0.0,0.0,0.0,0.0,0.0,0.0,0.0,0.0,0.0,0.0,0.0,0.7109,0.7832,0.8442,0.8342,0.9157,0.9499,0.8786,0.8733,0.8774,0.8841,0.8122,0.8121,0.9059,0.9108,0.9544,1.0537,0.9824,0.9761,1.0551,0.8907,0.8091,0.8027,0.7177,0.6719,0.6719,0.5789,0.5391,0.5325,0.4455,0.4056,0.399,0.3072,0.2744,0.2341,-0.1136,-0.3068,-0.3921,-0.4857,-0.5931,-0.7326,-0.9838,-1.1087,-1.188,-1.3506,-1.3978,-1.4024,-1.4525,-1.5402,-1.6401,-1.7299,-1.8613,-2.0241,-2.2423,-2.3273,-2.3773,-2.4548,-2.4274,-2.3988,-2.4579,-2.4016,-2.3572,-2.4174,-2.4628,-2.4605,-2.377,-2.3587,-2.26,-1.9777,-1.8372,0.0,-1.5802,-1.521,-1.5131,-1.554,-1.5361,-1.5644,-1.6804,-1.543,-1.5265,-1.7,-1.5448,-1.4812,-1.5522,-1.3237,-1.2108,-1.2455,-1.1789,-1.0438,-0.8312,0.0,0.0,0.0,0.0,0.0,0.0,0.0,0.0,0.0,0.0,0.0,0.0,0.0,0.0,0.0,0.0,0.0,0.0,0.0,0.0,0.0,1.08,1.0716,0.9974,1.01,1.0482,1.0965,1.1248,1.1359,1.1182,1.1349,1.1488,1.153,1.1525,1.1639,1.1905,1.192,1.2035,1.2304,1.2066,1.1826,1.1447,1.0968,1.0097,0.8941,0.8001,0.7608,0.7632,0.6715,0.6645,0.7233,0.631,0.5585,0.4857,0.4008,0.328,0.2609,0.1604,0.0666,-0.0332,-0.1854,-0.4226,-0.6809,-0.8137,-0.931,-1.0392,-1.148,-1.2235,-1.2898,-1.3631,-1.3831,-1.4266,-1.6468,-1.7553,-1.8767,-2.1888,-2.295,-2.3164,-2.3195,-2.274,-2.2337,-2.2443,-2.1771,-2.1358,-2.2203,-2.2182,-2.2419,-2.3612,-2.3125,-2.2081,-2.0588,-1.9125,-1.7651,-1.6163,-1.5976,-1.5326,-1.3576,-1.4713,-1.5381,-1.4855,-1.5067,-1.5717,-1.6823,-1.5669,-1.485,-1.4763,-1.335,-1.2175,-1.1199,-1.0241,-0.9519,0.0,0.0,0.0,0.0,0.0,0.0,0.0,0.0,0.0,0.0,0.0,0.0,0.0,0.0,0.0,0.0,0.0,0.0,0.0,0.0,0.0,0.0,1.2811,1.3218,1.3645,1.2689,1.2002,1.2295,1.2539,1.2655,1.2514,1.283,1.31,1.3244,1.3126,1.313,1.3485,1.3191,1.3122,1.3485,1.3191,1.294,1.281,1.2411,1.1796,1.0829,0.9951,0.9497,0.9521,0.8995,0.9064,0.9521,0.8634,0.8168,0.7876,0.6668,0.6074,0.5726,0.0,0.0,0.0,0.0,-0.2408,-0.5503,-0.5919,-0.6876,-0.7917,-0.8393,-0.9042,-0.9673,-0.9804,-1.128,-1.3271,-1.5016,-1.6828,-1.8823,-2.1599,-2.1896,-2.1544,-2.176,-2.126,-2.0837,-2.1146,-2.052,-2.0116,-2.0907,-2.0622,0.0,-2.1474,-2.1221,-2.0384,-1.8857,-1.7548,-1.6189,-1.472,-1.4605,-1.3974,-1.2133,-1.3201,-1.3934,-1.3641,-1.3478,0.0,0.0,0.0,-1.4063,-1.3897,-1.3499,0.0,0.0,0.0,-0.9816,-1.0037,-1.006,0.0,0.0,-0.8967,-0.8324,0.0,0.0,0.0,0.0,0.0,0.0,0.0,0.0,0.0,0.0,0.0,0.0,0.0,0.0,0.0,0.0,1.5137,1.5873,1.7414,1.5473,1.3821,1.3386,1.3865,1.4081,1.3752,1.3977,1.4259,1.4533,1.3923,1.3777,1.4442,1.3837,0.0,0.0,0.0,1.3837,1.4433,1.3828,1.3416,1.3114,1.2318,1.1982,1.1989,1.1805,1.1859,1.2035,1.1141,1.1133,1.1729,1.0101,0.997,1.0256,0.6306,0.4698,0.454,0.2943,0.0064,-0.3031,-0.2555,0.0,0.0,-0.4624,-0.5247,-0.5997,-0.5342,-0.8404,-1.2451,-1.3793,-1.6592,-1.9554,-2.1094,-2.0367,-1.9378,-2.0089,-1.9617,-1.9225,-2.0001,-1.9503,-1.9067,-1.9703,-1.9305,-1.8701,-1.8172,-1.8515,-1.8091,-1.5801,-1.4881,-1.3903,-1.252,-1.2361,-1.2051,-1.123,-1.1468,0.0,-1.278,-1.1471,-1.1972,-1.5337,-1.3854,-1.3035,-1.3273,-1.3517,-1.2591,-1.0285,-1.0666,-1.0989,-1.1131,-1.1238,-1.1705,-1.2539,-1.0992,-0.9999,0.0,0.0,0.0,0.0,0.0,0.0,0.0,0.0,0.0,0.0,0.0,0.0,0.0,0.0,0.0,1.7688,1.818,1.853,1.8896,1.872,1.8477,1.8073,1.8121,1.8186,1.81,1.7771,1.7334,1.6839,1.6764,1.6497,1.6073,1.6497,1.6768,1.6946,1.6768,1.6465,1.5981,1.6465,1.5763,1.3886,1.3628,0.0,1.3621,1.2287,1.274,1.4424,1.299,1.2442,1.2502,1.1487,1.1555,1.2124,0.9987,0.9113,0.8889,0.7949,0.5417,0.2733,0.5428,0.2227,-0.2765,-0.0541,-0.3267,-0.74,-0.7206,-0.7382,0.0,-1.5625,-1.8008,-1.8633,-1.8919,-1.8567,-1.7988,-1.7516,-1.7055,-1.6782,-1.6961,-1.6266,-1.5881,-1.6745,-1.6194,-1.556,-1.5472,-1.6596,-1.6817,-1.4767,-1.4575,-1.4003,-1.213,-1.2862,-1.2795,-1.0922,-1.1064,-1.1244,-1.1097,-1.1102,-1.2115,-1.4328,-1.3824,-1.3597,-1.3983,-1.315,-1.2589,-1.2419,-1.2472,-1.2531,-1.257,-1.322,-1.3243,-1.258,-1.199,-1.1922,0.0,0.0,0.0,0.0,0.0,0.0,0.0,0.0,0.0,0.0,0.0,1.8809,1.8648,0.0,1.8955,1.9332,1.9718,2.0109,2.0537,2.0757,2.0507,1.9463,1.9467,1.9512,1.9335,1.9242,1.8851,1.8013,1.8035,1.7734,1.7101,1.7413,1.7578,1.7578,1.7578,1.739,1.7025,1.739,1.698,1.5867,1.5827,1.5827,1.58,1.5013,1.5491,1.6829,1.528,1.5342,1.6504,1.5784,1.6353,1.7631,1.5656,1.3837,1.2118,1.1204,0.9519,0.7892,0.8975,0.7448,0.5283,0.6648,0.5318,0.2931,0.1684,-0.0801,-0.4032,-0.8066,-1.4286,-1.9541,-1.8582,-1.6799,-1.5242,-1.5161,-1.4487,-1.3831,-1.3841,-1.3181,-1.2729,-1.321,-1.3474,-1.3307,-1.234,-1.3712,-1.4743,-1.4033,-1.3829,-1.3396,-1.2434,-1.2589,-1.2243,-1.0846,-1.0706,-1.0764,-1.0747,-1.1991,-1.2997,-1.3571,-1.3761,-1.4159,-1.4756,-1.3816,-1.3393,-1.3604,-1.3571,-1.358,-1.3612,-1.4006,-1.4127,-1.3974,-1.3832,-1.3632,0.0,0.0,0.0,0.0,0.0,0.0,0.0,2.1375,2.1565,2.1056,2.1457,2.1621,2.0808,2.0976,2.1137,2.1046,2.1331,2.1744,2.2457,2.2592,2.2019,2.0452,2.0421,2.0392,2.0049,2.0231,1.9998,1.9091,1.8965,1.8667,1.8022,1.8007,1.8015,1.8015,1.8015,1.8015,1.8015,1.8167,1.8058,1.7852,1.8078,1.8132,1.7993,1.8097,1.8543,1.9147,1.7875,1.8642,2.0643,2.0233,2.1135,2.2661,2.101,1.8862,1.6489,1.4864,1.3669,1.2887,1.2608,1.2805,1.3411,1.4644,1.4868,1.4329,1.2572,0.7112,0.1364,0.0778,-0.7959,-1.6951,-1.6131,-1.4504,-1.3119,-1.3128,-1.2281,-1.1308,-1.0886,-1.0286,-0.9933,-1.0092,-1.1074,-1.1314,-0.9721,-1.0731,-1.1978,-1.2657,-1.2541,-1.2376,-1.2229,-1.1738,-1.1233,-1.0759,-1.0121,-0.9969,-1.0415,-1.2473,-1.3525,-1.3017,-1.3458,-1.4183,-1.5129,-1.4421,-1.4055,-1.4194,-1.4347,-1.4424,-1.4424,-1.4424,-1.479,-1.541,-1.541,-1.4936,2.292,2.2781,2.291,2.2325,2.2349,2.264,0.0,2.3356,2.3548,2.3934,2.4502,2.4668,2.3953,2.4372,2.4622,2.3966,2.4446,2.4924,2.4993,2.4993,2.4714,2.3851,2.3153,2.2699,2.2698,2.2253,2.1709,2.0986,2.0636,2.0128,1.9385,1.947,1.9527,1.9527,1.9527,1.9527,1.9527,2.0131,1.9799,1.8608,1.9737,1.999,1.9492,1.9824,2.0479,2.1322,2.0988,2.1277,2.2028,2.2294,2.2577,2.287,2.3584,2.4398,2.4816,2.1399,1.9051,1.7962,2.074,1.8788,1.6024,2.163,2.0328,1.6801,1.7946,1.2936,0.6289,0.3522,0.0049,-0.35,-0.6217,-1.0707,-1.3888,-1.166,-1.1023,-1.0332,-0.8233,-0.7741,-0.7895,-0.8743,-0.9006,-0.9064,-0.8865,-0.8469,-0.843,-0.9172,-1.0273,-1.0813,-1.021,-1.0018,-1.0022,-1.0325,-0.8858,-0.8136,-0.8789,-1.0847,-1.236,-1.2956,-1.2417,-1.2767,-1.428,-1.3579,-1.3459,-1.4203,-1.4877,-1.5264,-1.5264,-1.5264,-1.5332,-1.541,-1.541,-1.5332,2.6057,2.5571,2.5306,2.6214,2.6291,2.6178,2.644,2.6501,2.6326,2.5812,2.587,2.5783,2.5063,2.5175,2.5287,2.5007,2.5175,2.5398,2.5398,2.5398,2.5287,2.4951,2.4667,2.4105,2.3198,2.3709,2.3638,2.2547,2.2413,2.2127,2.142,2.1109,2.089,2.089,2.089,2.089,2.089,2.1183,2.1191,2.0938,2.1904,2.239,2.2456,2.3073,2.3666,2.4401,2.5741,2.627,2.6188,2.6555,2.723,2.8002,2.7589,2.836,2.9177,2.4896,2.3353,2.3454,2.3737,2.3117,2.2534,2.446,2.3966,2.2391,2.1203,1.706,1.2149,0.9172,0.7247,0.4952,0.0208,-0.3056,-0.5349,-0.643,-0.6345,-0.5934,-0.5689,-0.5722,-0.5947,-0.6174,-0.6994,-0.7323,-0.6416,-0.7031,-0.7331,-0.6543,-0.8419,-0.9742,-0.9489,-0.9521,-0.9289,-0.8733,-0.8422,-0.8516,-0.8977,-1.0746,-1.1907,-1.2296,-1.197,-1.2281,-1.3434,-1.2744,-1.2895,-1.4203,-1.4501,-1.4945,-1.541,-1.541,-1.541,-1.541,-1.541,-1.541,2.7654,2.7334,2.7155,2.8662,2.8849,2.8662,2.8763,2.8732,2.8448,2.7312,2.7056,2.6797,2.5892,2.5892,2.5946,2.5728,2.5892,2.6,2.6,2.6,2.5946,2.5728,2.5892,2.5481,2.4097,2.4867,2.4984,2.4037,2.37,2.3483,2.3182,2.2221,2.181,2.214,2.2016,2.2035,2.2203,2.2548,2.2836,2.3103,2.4298,2.4922,2.5152,2.5987,2.6782,2.754,2.9193,2.9786,2.9625,2.999,3.0801,3.1737,3.0771,3.1137,3.1783,2.8339,2.7651,2.8222,2.6727,2.7179,2.814,2.6774,2.6575,2.619,2.2655,1.9631,1.6846,1.3841,1.2233,1.0501,0.6125,0.4239,0.2721,-0.0433,-0.1183,-0.1494,-0.2765,-0.3255,-0.362,-0.4446,-0.5118,-0.5289,-0.4639,-0.5418,-0.5797,-0.484,-0.663,-0.8228,-0.8577,-0.8747,-0.8306,-0.6912,-0.7892,-0.864,-0.8828,-1.0218,-1.1331,-1.1766,-1.1594,-1.184,-1.2631,-1.2096,-1.2375,-1.3502,-1.3947,-1.4492,-1.51,-1.5264,-1.541,-1.541,-1.541,-1.541,2.7198,2.767,2.804,2.8106,2.8767,2.9374,2.9361,2.9361,2.918,2.8559,2.8463,2.8012,2.6707,2.7034,2.7306,2.6563,2.7086,2.7509,2.7509,2.7509,2.7255,2.6563,2.7086,2.7195,2.6309,2.5713,2.5384,2.5315,2.4265,2.3789,2.4247,2.2656,2.2172,2.3238,2.2776,2.2809,2.3457,2.4696,2.5043,2.4563,2.685,2.7633,2.705,2.8106,2.9306,3.0531,3.0087,3.0366,3.1158,3.1581,3.1789,3.1924,3.2295,3.2648,3.2925,3.2666,3.2218,3.169,3.1243,3.1303,3.1255,2.9475,2.8163,2.6455,2.1931,2.0355,1.9437,1.6218,1.4259,1.2974,1.228,0.9957,0.7385,0.5571,0.3777,0.2123,0.0604,0.026,-0.0752,-0.4209,-0.3528,-0.2831,-0.4225,-0.3331,-0.2826,-0.4284,-0.4925,-0.5717,-0.7012,-0.7421,-0.6926,-0.5182,-0.6818,-0.7925,-0.7768,-0.8731,-1.0052,-1.1697,-1.1073,-1.0993,-1.1791,-1.182,-1.1848,-1.184,-1.3399,-1.4203,-1.4262,-1.5032,-1.541,-1.541,-1.541,-1.541,2.9327,2.9696,2.9887,3.0123,3.0389,3.0477,3.0081,2.9995,2.9805,2.9225,2.8779,2.8367,2.7913,2.7695,2.7524,2.7255,2.7795,2.8189,2.8189,2.8543,2.8701,2.8434,2.8654,2.8686,2.8372,2.7838,2.7253,2.6761,2.6326,2.5955,2.5712,2.4615,2.4199,2.4563,2.4838,2.5113,2.5361,2.6293,2.6951,2.7485,2.9397,3.0439,3.0714,3.1546,3.2187,3.2645,3.3208,3.3578,3.3884,3.4341,3.4484,3.4447,3.4669,3.4765,3.4693,3.3935,3.3525,3.3147,3.1688,3.0902,3.0272,2.8475,2.7602,2.6711,2.3504,2.1364,1.967,1.8025,1.6105,1.4258,1.3442,1.1989,1.0172,0.8107,0.6047,0.4389,0.4064,0.2694,0.1284,0.0536,0.0067,-0.0133,0.0451,0.0063,-0.0813,-0.231,-0.396,-0.5509,-0.6691,-0.6935,-0.651,-0.5342,-0.6359,-0.7077,-0.7071,-0.8398,-0.9536,-1.0108,-1.0445,-1.069,-1.0986,-1.1024,-1.1277,-1.1792,-1.2313,-1.2895,-1.3408,-1.4187,-1.4576,-1.4628,-1.5167,-1.541,3.0938,3.1288,3.1391,3.1862,3.1985,3.1888,3.1483,3.1399,3.1172,3.0271,2.9637,2.9108,2.8873,2.8125,2.775,2.8213,2.8624,2.8867,2.8883,2.9422,2.9678,2.9438,2.9536,2.9653,2.9701,2.9648,2.9201,2.8196,2.7611,2.7211,2.7015,2.6278,2.5999,2.6383,2.7081,2.7561,2.781,2.8465,2.943,3.058,3.1769,3.2679,3.3302,3.3788,3.4069,3.4223,3.4901,3.5302,3.5476,3.5724,3.5818,3.5774,3.5719,3.5632,3.5454,3.4655,3.4088,3.3542,3.2084,3.1024,3.0103,2.8702,2.8041,2.7297,2.4905,2.3044,2.1487,2.0165,1.8348,1.6577,1.5713,1.3865,1.1957,1.058,0.8348,0.6611,0.6506,0.5271,0.4442,0.5154,0.3897,0.3017,0.4038,0.3215,0.1814,0.0063,-0.1595,-0.3489,-0.5902,-0.624,-0.6048,-0.5491,-0.5911,-0.639,-0.6672,-0.7722,-0.8628,-0.9289,-0.9844,-1.0268,-1.0561,-1.0624,-1.0841,-1.1354,-1.1643,-1.2062,-1.2591,-1.339,-1.3914,-1.4204,-1.4746,-1.5118,3.2017,3.2446,3.2534,3.322,3.3406,3.3406,3.3406,3.3372,3.2993,3.1679,3.0896,3.0202,2.9467,2.8418,2.8061,2.9218,2.9524,2.9588,2.957,3.0117,3.0264,2.9576,2.9831,3.0153,3.036,3.1185,3.1151,2.9733,2.8297,2.7713,2.8145,2.7528,2.7619,2.8563,2.9269,2.9897,3.0543,3.12,3.2229,3.364,3.3913,3.427,3.4694,3.4714,3.4902,3.5199,3.5226,3.5485,3.589,3.576,3.5773,3.5821,3.5443,3.5261,3.5187,3.4821,3.3998,3.2995,3.2585,3.1738,3.0763,3.0146,2.9323,2.8128,2.5977,2.5259,2.4678,2.248,2.0927,1.9672,1.886,1.5854,1.3003,1.294,1.091,0.8832,0.8074,0.8033,0.8348,0.9161,0.7702,0.639,0.6269,0.583,0.4725,0.2613,0.2091,0.0268,-0.4483,-0.5156,-0.5229,-0.5229,-0.5296,-0.5704,-0.6531,-0.6602,-0.7349,-0.9047,-0.922,-0.9629,-1.0415,-1.0485,-1.0485,-1.0555,-1.1277,-1.1714,-1.1721,-1.2538,-1.3335,-1.4085,-1.4145,-1.4579,3.3986,3.3925,3.3608,3.3439,3.3406,3.3406,3.3406,3.2966,3.2317,3.1436,3.0352,2.9312,2.8568,2.8254,2.8225,2.8534,2.946,3.0124,3.008,3.0615,3.0957,3.0773,3.1077,3.135,3.1401,3.2492,3.3003,3.2644,3.1202,3.0074,2.9416,2.9437,2.9565,2.9823,3.0561,3.0988,3.115,3.2397,3.3321,3.3894,3.433,3.4595,3.4714,3.4969,3.5134,3.5226,3.5566,3.5732,3.576,3.5812,3.5657,3.5383,3.5263,3.4856,3.4237,3.363,3.299,3.241,3.1754,3.105,3.0369,2.974,2.9057,2.8304,2.7282,2.5751,2.4393,2.4446,2.2503,2.0195,1.9254,1.764,1.586,1.455,1.3011,1.172,1.0942,1.0306,0.9741,0.94,0.8266,0.7108,0.6257,0.6043,0.5728,0.4678,0.4495,0.307,-0.0863,-0.2142,-0.2693,-0.2693,-0.4295,-0.5498,-0.5704,-0.5704,-0.6164,-0.7288,-0.7945,-0.845,-0.8661,-0.8661,-0.8937,-0.9629,-0.9844,-1.0268,-1.0911,-1.1714,-1.2187,-1.2443,-1.3061,-1.3943,3.4777,3.4857,3.4694,3.4414,3.4387,3.4218,3.3558,3.3233,3.2622,3.1244,3.0128,2.9365,2.9211,2.8715,2.8586,2.9475,3.0277,3.0754,3.0728,3.1453,3.1863,3.1521,3.2039,3.2456,3.2634,3.3636,3.4321,3.4443,3.3212,3.2254,3.1776,3.1671,3.1719,3.1955,3.2392,3.2702,3.2865,3.3794,3.4333,3.4484,3.4901,3.5089,3.5105,3.5295,3.5385,3.5429,3.5664,3.574,3.5692,3.5752,3.5553,3.5185,3.5047,3.4604,3.3998,3.3276,3.2778,3.2311,3.1679,3.0771,2.9892,2.9805,2.9225,2.8415,2.8091,2.6879,2.5616,2.5425,2.3813,2.1773,2.0228,1.8705,1.7235,1.5833,1.4419,1.3184,1.2718,1.1919,1.1034,1.011,0.9487,0.8798,0.7679,0.7467,0.7247,0.6399,0.6169,0.5223,0.2727,0.1802,0.0939,-0.0135,-0.1879,-0.322,-0.3761,-0.4761,-0.5634,-0.6113,-0.7042,-0.7728,-0.8001,-0.7728,-0.7936,-0.87,-0.8723,-0.9144,-1.0053,-1.0485,-1.1052,-1.1834,-1.2266,-1.3129,3.5269,3.5707,3.581,3.581,3.581,3.5419,3.3921,3.3762,3.3294,3.1011,3.0053,2.977,3.0318,2.9319,2.9,3.0858,3.1199,3.1266,3.1423,3.2315,3.273,3.228,3.2894,3.3512,3.3908,3.4703,3.5308,3.5715,3.4975,3.4546,3.4586,3.4116,3.4005,3.4352,3.4297,3.443,3.4775,3.5013,3.5133,3.5178,3.5477,3.5601,3.5591,3.5602,3.5638,3.5683,3.5639,3.5646,3.5682,3.5582,3.5379,3.5105,3.4699,3.4315,3.3894,3.3248,3.2713,3.2282,3.1861,3.0744,2.9585,3.0038,2.9361,2.8367,2.8367,2.7944,2.7188,2.5892,2.4799,2.3469,2.1432,1.9594,1.8018,1.7194,1.567,1.4411,1.4103,1.3266,1.217,1.121,1.0896,1.0444,0.9458,0.9227,0.8716,0.7658,0.7354,0.6946,0.5907,0.5564,0.4628,0.2491,0.1346,0.0067,-0.1417,-0.3489,-0.4891,-0.5362,-0.6332,-0.7034,-0.7313,-0.7021,-0.7092,-0.765,-0.7792,-0.8233,-0.9134,-0.911,-0.9882,-1.1322,-1.1322,-1.1959,3.7183,3.7161,3.6904,3.6904,3.6904,3.6482,3.4826,3.4074,3.3002,3.068,2.9614,2.9189,2.9329,2.9096,2.9199,3.0239,3.0346,3.08,3.2092,3.2458,3.3035,3.4217,3.4264,3.4483,3.5195,3.5745,3.6454,3.7413,3.7896,3.759,3.6192,3.6363,3.6298,3.5778,3.5,3.481,3.5191,3.5193,3.5321,3.5607,3.5599,3.5602,3.5602,3.5605,3.5606,3.5617,3.566,3.5655,3.5592,3.5372,3.5078,3.4717,3.4059,3.3386,3.2723,3.2213,3.177,3.1428,3.1312,3.0804,3.0081,2.9673,2.8717,2.776,2.776,2.724,2.6616,2.6404,2.4786,2.3081,2.2688,2.1369,1.9886,1.9026,1.8546,1.7916,1.6404,1.4731,1.3153,1.2164,1.1329,1.0444,0.9458,0.9301,0.9055,0.8496,0.8349,0.8144,0.765,0.632,0.5226,0.4827,0.4558,0.3149,-0.0067,-0.0673,-0.2214,-0.5226,-0.5614,-0.5087,-0.3648,-0.4976,-0.5771,-0.5841,-0.6564,-0.7377,-0.8225,-0.8252,-0.8398,-0.8661,-0.8661,-0.9801,3.6737,3.7039,3.719,3.719,3.719,3.6466,3.373,3.3315,3.2649,2.958,2.9003,2.9148,2.9439,2.9322,2.9519,3.0588,3.0737,3.1126,3.2325,3.2713,3.336,3.4672,3.4932,3.5524,3.6914,3.7259,3.7841,3.8958,3.9437,3.9288,3.8401,3.8345,3.7943,3.7063,3.6311,3.5987,3.6187,3.5698,3.5519,3.5646,3.5642,3.5622,3.5605,3.5593,3.5599,3.5592,3.5601,3.5492,3.5325,3.52,3.4867,3.4401,3.4043,3.3606,3.3087,3.24,3.2039,3.1823,3.1368,3.0781,3.0208,2.9585,2.8826,2.8042,2.8042,2.7595,2.693,2.6122,2.5135,2.3975,2.2718,2.1537,2.0362,1.9511,1.8563,1.7499,1.6188,1.5162,1.4347,1.383,1.3402,1.2783,1.1797,1.1596,1.1144,0.9849,0.9462,0.9074,0.8301,0.733,0.6555,0.6106,0.5701,0.4688,0.295,0.1681,-0.0067,-0.2414,-0.3442,-0.359,-0.2703,-0.2622,-0.3485,-0.5362,-0.5841,-0.6461,-0.73,-0.7315,-0.7536,-0.8027,-0.8083,-0.8772,3.6489,3.7196,3.7735,3.7735,3.7735,3.6759,3.3089,3.3012,3.2644,2.902,2.8782,2.9412,3.0009,2.9722,2.9849,3.1258,3.1355,3.1696,3.3039,3.3553,3.4293,3.5658,3.5988,3.6789,3.8486,3.8508,3.8864,4.0005,4.0236,4.0292,4.0241,3.9747,3.9093,3.8305,3.7642,3.7293,3.7342,3.6643,3.6177,3.5955,3.5996,3.5888,3.5626,3.5616,3.559,3.5577,3.5463,3.5289,3.5088,3.4962,3.4636,3.4176,3.4056,3.3795,3.3419,3.2631,3.2282,3.2127,3.1428,3.0781,3.0208,2.9761,2.9104,2.8463,2.8319,2.8008,2.7357,2.6215,2.5628,2.497,2.316,2.1881,2.0887,1.9857,1.8363,1.6949,1.5992,1.5631,1.5501,1.5501,1.5324,1.4888,1.3855,1.3719,1.3058,1.1144,1.0667,1.0114,0.9174,0.8656,0.8047,0.7138,0.623,0.5634,0.5428,0.3634,0.2161,0.1214,-0.0877,-0.2093,-0.2093,-0.0742,-0.1344,-0.422,-0.5024,-0.5704,-0.6394,-0.6467,-0.6798,-0.7518,-0.759,-0.7933,3.8643,3.932,3.9376,3.9376,3.9376,3.8512,3.5171,3.4496,3.3614,3.0226,2.9585,2.9887,3.0659,3.0171,3.019,3.1862,3.1505,3.2107,3.5152,3.5606,3.6512,3.8889,3.8535,3.8505,3.9392,3.8829,3.8864,4.0005,4.0438,4.0679,4.0731,3.9999,3.9565,3.9535,3.8656,3.8278,3.8455,3.8241,3.7812,3.7148,3.7097,3.6586,3.5697,3.5639,3.5574,3.5501,3.5239,3.5122,3.507,3.4513,3.4246,3.4128,3.3533,3.3027,3.255,3.2057,3.164,3.1291,3.123,3.0781,3.0293,3.0251,2.9451,2.8383,2.786,2.761,2.7575,2.7458,2.6414,2.5369,2.5119,2.3952,2.2482,2.0864,1.9771,1.8839,1.7901,1.7045,1.6455,1.6455,1.5764,1.4907,1.3837,1.3731,1.3233,1.197,1.1719,1.1596,1.1198,1.0199,0.922,0.835,0.7246,0.6254,0.5495,0.5209,0.5033,0.4895,0.1687,-0.027,-0.027,-0.0067,-0.0135,-0.0471,-0.3751,-0.5428,-0.5498,-0.5703,-0.5835,-0.5844,-0.5923,-0.6577,3.7694,3.8826,3.9599,3.9599,3.9258,3.8116,3.4954,3.4247,3.3382,3.0177,2.9901,3.029,3.0442,3.0223,3.0308,3.1259,3.1581,3.2336,3.4147,3.5262,3.6513,3.8211,3.8573,3.8899,3.9435,3.9657,4.0005,4.0595,4.0785,4.0928,4.1046,4.0652,4.0481,4.0598,3.9732,3.9307,3.9375,3.8806,3.8319,3.7897,3.7868,3.7316,3.6292,3.6272,3.5892,3.5239,3.5157,3.4999,3.4813,3.4383,3.42,3.4152,3.3725,3.3447,3.3196,3.2466,3.2109,3.1896,3.1389,3.1055,3.0699,2.9978,2.9451,2.8919,2.8319,2.814,2.7944,2.7159,2.6208,2.5286,2.4845,2.3535,2.2056,2.0905,2.0325,1.9865,1.8947,1.8476,1.8095,1.7561,1.7126,1.6587,1.5633,1.5476,1.5054,1.4007,1.3226,1.2708,1.2543,1.1368,1.0121,0.9279,0.7717,0.6324,0.5498,0.5382,0.5059,0.4384,0.2624,0.1142,0.0067,0.0,0.0,0.0,-0.1411,-0.2661,-0.3811,-0.4973,-0.5653,-0.5816,-0.5884,-0.6198,3.7085,3.8497,3.9661,3.989,3.9195,3.7674,3.4744,3.3914,3.2859,2.9674,2.9866,3.0464,2.9998,3.0111,3.0463,3.1026,3.1642,3.2496,3.3844,3.5248,3.652,3.7594,3.852,3.9131,3.9354,4.0184,4.0762,4.092,4.0988,4.1049,4.1149,4.1082,4.1103,4.1191,4.0605,4.0273,4.0231,3.9625,3.9091,3.868,3.8673,3.8132,3.7095,3.7095,3.669,3.5949,3.5757,3.5458,3.5013,3.4614,3.4297,3.4068,3.3725,3.355,3.3314,3.2565,3.2213,3.2021,3.1428,3.119,3.1055,3.0208,2.9935,2.9805,2.8996,2.8511,2.8042,2.7107,2.6289,2.5492,2.4557,2.347,2.2346,2.126,2.0986,2.0731,1.9856,1.966,1.9499,1.8917,1.8564,1.8105,1.7126,1.6774,1.6283,1.5322,1.4449,1.3848,1.3881,1.2721,1.1456,1.0386,0.877,0.7292,0.5907,0.5557,0.5017,0.4164,0.3761,0.2683,0.087,0.0269,0.0,0.0,0.0,-0.0623,-0.1897,-0.3704,-0.4757,-0.5012,-0.5748,-0.6115,3.7556,3.893,3.9793,4.0599,3.954,3.7627,3.5086,3.3822,3.224,2.8812,2.9446,3.0322,2.9375,2.9928,3.0762,3.1569,3.1686,3.259,3.5128,3.6185,3.7012,3.7892,3.882,3.938,3.9307,4.014,4.0721,4.0793,4.092,4.0996,4.0996,4.1128,4.1191,4.1191,4.1191,4.1129,4.0996,4.0976,4.0515,3.9579,3.9579,3.9062,3.8098,3.8098,3.8035,3.7939,3.7337,3.664,3.5843,3.524,3.4523,3.3762,3.3361,3.2903,3.2451,3.1986,3.1582,3.123,3.119,3.119,3.119,3.119,3.119,3.0975,2.9761,2.8543,2.7625,2.7575,2.7069,2.6149,2.4706,2.4296,2.3876,2.2261,2.1874,2.1681,2.0745,2.0571,2.0565,2.0554,1.9876,1.9015,1.8027,1.7135,1.626,1.5317,1.5223,1.5186,1.521,1.4525,1.3413,1.1774,1.0918,0.9408,0.6928,0.5873,0.5401,0.5393,0.5396,0.4573,0.2744,0.0937,0.0,0.0,0.0,-0.0,-0.0,-0.1841,-0.2713,-0.2791,-0.5197,-0.6288,3.502,3.6193,3.693,3.7234,3.6541,3.5256,3.3244,3.2189,3.0982,2.8717,2.8658,2.8923,2.8582,2.9154,2.9749,2.996,3.0948,3.2179,3.3526,3.5013,3.6269,3.7139,3.811,3.8942,3.9524,3.9931,4.0418,4.1038,4.1105,4.1149,4.1149,4.109,4.1055,4.1055,4.1055,4.0996,4.0864,4.0864,4.0696,4.0352,4.0352,3.9859,3.8921,3.8677,3.815,3.7356,3.6971,3.6694,3.6422,3.6039,3.5855,3.5766,3.543,3.5012,3.4497,3.4023,3.3572,3.3144,3.2819,3.2713,3.2613,3.2226,3.1759,3.1248,3.0449,2.9563,2.856,2.7235,2.6666,2.6283,2.5292,2.5059,2.4805,2.3772,2.3555,2.3163,2.1765,2.1749,2.1859,2.126,2.1249,2.0967,2.0073,1.9677,1.9124,1.8183,1.7203,1.6601,1.6551,1.5105,1.3785,1.2868,1.2093,1.0546,0.7852,0.7489,0.744,0.7463,0.6276,0.5351,0.4778,0.4245,0.3356,0.2162,0.0699,0.0,-0.0,-0.0546,-0.086,-0.0928,-0.3117,-0.4935,3.2751,3.4295,3.5305,3.5684,3.4733,3.3322,3.1914,3.0718,2.9414,2.7676,2.7832,2.8182,2.7789,2.8342,2.8957,2.9198,3.0113,3.1197,3.2357,3.3781,3.5144,3.639,3.7598,3.8619,3.922,3.9861,4.0508,4.1152,4.115,4.1126,4.1126,4.1049,4.0974,4.0896,4.0908,4.0864,4.0752,4.0752,4.0721,4.0623,4.0623,4.0318,3.9758,3.9536,3.8995,3.8222,3.7911,3.7542,0.0,3.685,3.6684,3.6509,3.6172,3.5724,3.5164,3.4747,3.4265,3.3785,3.3473,3.3406,3.3364,3.2971,3.2389,3.1772,3.1146,3.0273,2.9234,2.8016,2.767,2.75,2.6716,2.6512,2.6335,2.5608,2.521,2.4719,2.3692,2.3482,2.3315,2.2781,2.2393,2.2063,2.1846,2.0903,2.0145,1.993,1.8783,1.7991,1.7998,1.6587,1.5206,1.4175,1.3409,1.1943,0.9495,0.9136,0.8895,0.8548,0.7469,0.6679,0.6328,0.6011,0.5374,0.424,0.3026,0.1951,0.1175,0.0392,0.0,-0.0,-0.133,-0.2659,0.0,3.2805,3.4326,3.5152,3.3626,3.1699,3.082,2.9414,0.0,2.6055,2.7031,2.7948,2.7069,2.7627,2.8411,2.9113,2.9316,2.9952,3.1586,3.2681,3.3957,3.5697,3.7283,3.8337,3.8652,3.9902,4.0839,4.1151,4.1055,4.0988,4.0988,4.0988,4.0896,4.0703,4.0743,4.0743,4.068,4.068,4.0623,4.0489,4.0489,4.0489,4.0473,4.0457,4.0285,4.0002,3.9687,3.8927,3.7928,3.7661,3.7099,3.6362,3.5905,3.5377,3.4853,3.4478,3.402,3.3558,3.3558,3.3558,3.3558,3.3516,3.3138,3.2508,3.1774,3.0678,2.9689,2.9607,2.9623,2.9445,2.8682,2.8513,2.8296,2.7567,2.6758,2.6155,2.6136,2.544,2.4858,2.489,2.3512,2.2605,2.3491,2.1408,2.0005,2.0751,2.0042,1.9392,1.9342,1.8557,1.7387,1.5686,1.4749,1.3469,1.175,1.0767,0.9916,0.906,0.8936,0.8453,0.7464,0.6516,0.6022,0.6057,0.6169,0.5321,0.3357,0.1251,0.0157,0.0,0.0,0.0,2.7632,0.0,2.9621,2.9926,2.9574,2.8937,0.0,2.8125,2.7812,2.6055,2.6562,2.7246,2.701,2.7643,2.8268,2.8431,2.9484,3.0444,3.084,3.2844,3.469,3.5836,3.6855,3.7982,3.9315,3.9711,4.0154,4.0844,4.0864,4.085,4.085,4.0799,4.0751,4.0703,4.0617,4.0549,4.0545,4.0545,4.0515,4.0489,4.0489,4.0389,4.0177,3.9924,3.9626,3.9333,3.9017,3.8781,3.8497,3.799,3.77,3.7471,3.7006,3.6511,3.6023,3.5919,3.5522,3.5098,3.5098,3.5098,3.4992,3.4472,3.4223,3.3891,3.2708,3.1427,3.0259,2.9743,2.959,2.9569,2.9395,2.9345,2.9117,2.8351,2.7541,2.6778,2.6234,2.5716,2.5381,2.5406,2.5411,2.5262,2.4768,2.4077,2.3223,2.1927,2.1278,2.0623,1.982,1.876,1.7697,1.6875,1.5992,1.4856,1.3322,1.2168,1.1404,1.1185,0.9918,0.9065,0.8842,0.7195,0.6222,0.6232,0.6259,0.6063,0.5562,0.3439,0.1563,0.0,0.0,0.0,2.5996,2.7247,2.8582,2.8635,2.8423,2.8084,2.7648,2.7323,2.6836,2.5898,2.6074,2.6406,2.6406,2.7087,2.7901,2.8703,2.9855,3.1065,3.2274,3.4053,3.5424,3.5937,3.7038,3.7952,3.8498,3.8799,3.9321,4.0178,4.0196,4.0335,4.0733,4.0718,4.0667,4.061,4.053,4.0489,4.0489,4.0489,4.0489,4.0489,4.0372,4.0232,4.0081,3.9754,3.9414,3.9099,3.8933,3.8815,3.8658,3.8099,3.7893,3.7859,3.7396,3.6882,3.6374,3.6374,3.6054,3.5622,3.5622,3.5622,3.5515,3.5207,3.5052,3.4847,3.3836,3.2772,3.1751,3.079,3.0461,3.0483,3.0483,3.0483,3.0381,2.9944,2.9202,2.8381,2.7603,2.6958,2.644,2.6083,2.5871,2.5779,2.5682,2.4921,2.4108,2.3458,2.281,2.2025,2.0976,1.9968,1.8812,1.7675,1.6731,1.5743,1.4458,1.3787,1.3049,1.2143,1.1169,1.0496,1.0045,0.8922,0.7953,0.6979,0.65,0.6268,0.6278,0.5168,0.399,0.2896,0.1877,0.0939,2.5457,2.7209,2.898,2.8857,2.8407,2.7992,2.8003,2.6928,2.5859,2.5723,2.6016,2.6309,2.6309,2.7226,2.8457,2.9941,3.071,3.1877,3.4092,3.5205,3.5818,3.5976,3.7165,3.7815,3.7381,3.7722,3.8412,3.9468,3.945,3.9758,4.0629,4.0667,4.0623,4.0504,4.0489,4.0489,4.0489,4.0489,4.0473,4.0441,4.0195,4.0061,3.9922,3.9645,3.9358,3.9036,3.9036,3.8923,3.8658,3.8099,3.7893,3.7859,3.7285,3.6803,3.6374,3.6291,3.5985,3.5622,3.5622,3.5622,3.5622,3.5622,3.5515,3.5316,3.464,3.3984,3.3159,3.1883,3.1482,3.1482,3.1482,3.1482,3.1482,3.1482,3.0893,3.0089,2.9334,2.8507,2.7636,2.681,2.5977,2.5635,2.6333,2.5071,2.4184,2.4929,2.4303,2.3373,2.2253,2.1346,2.0136,1.8366,1.7398,1.643,1.5517,1.5438,1.4585,1.2659,1.2365,1.1761,1.0634,1.0536,0.9743,0.8082,0.7053,0.6504,0.6504,0.6352,0.6281,0.6291,0.446,0.2656,2.6197,2.7237,2.7943,2.7317,2.7084,2.7039,2.7163,2.6992,2.6582,2.5859,2.7461,2.9004,2.9004,3.0879,3.2519,3.2773,3.2858,3.306,3.3514,3.4257,3.5022,3.5809,3.5983,3.657,3.7909,3.7371,3.7602,3.921,3.9331,3.9668,4.0477,4.0515,4.0519,4.0504,4.0489,4.0489,4.0489,4.0489,4.0389,4.0158,4.012,3.9797,3.9238,3.9186,3.9027,3.8762,3.8762,3.875,3.8658,3.8099,3.7893,3.7825,3.6865,3.6457,3.6333,3.5898,3.565,3.5622,3.5622,3.5622,3.5622,3.5622,3.5207,3.464,3.3937,3.3267,3.2561,3.1728,3.1482,3.1482,3.1482,3.1482,3.1482,3.1482,3.0893,3.0235,3.0104,2.9406,2.8589,2.7649,2.7383,2.713,2.6571,2.6214,2.5834,2.5071,2.4879,2.4249,2.2763,2.1528,2.0469,1.967,1.8532,1.7373,1.6498,1.6358,1.5579,1.36,1.2698,1.1434,0.9599,0.9561,0.9423,0.9089,0.8064,0.7602,0.7557,0.6721,0.6271,0.6281,0.596,0.5646,2.5793,2.6911,2.7995,2.8168,2.8529,2.8875,2.8986,2.9061,2.873,2.7383,2.8437,2.9609,2.9609,3.0937,3.2478,3.3776,3.4415,3.4884,3.5232,3.568,3.6099,3.6445,3.639,3.6434,3.6764,3.6344,3.6565,3.7796,3.8334,3.895,3.9796,4.0258,4.0489,4.0489,4.0489,4.0489,4.0489,4.0356,4.0213,4.0101,3.9731,3.9389,3.9099,3.8961,3.8833,3.8707,3.8707,3.8707,3.8627,3.7861,3.7506,3.7433,3.6357,3.5985,3.5941,3.5694,3.5622,3.5622,3.5622,3.5622,3.5622,3.5622,3.5407,3.5098,3.4752,3.3942,3.3083,3.2716,3.2104,3.1482,3.1482,3.1482,3.1482,3.1482,3.1202,3.0849,3.0366,2.9608,2.8768,2.7841,2.7354,2.6917,2.6559,2.6533,2.6321,2.5859,2.5834,2.5265,2.3692,2.2378,2.1107,2.003,1.8738,1.7862,1.7354,1.7364,1.6298,1.3818,1.2785,1.1829,1.095,1.0368,1.0126,1.0135,0.915,0.8647,0.8613,0.7629,0.7103,0.7107,0.6574,0.6274,2.5553,2.662,2.7981,2.9113,2.9869,3.0511,3.1187,3.0953,3.0332,2.9394,2.9883,3.0488,3.0488,3.1543,3.2982,3.4812,3.5744,3.6391,3.6869,3.6856,3.6761,3.6674,3.661,3.6303,3.5635,3.5528,3.5834,3.6642,3.7315,3.8084,3.895,3.9585,4.0008,4.02,4.0134,4.0213,4.0406,4.0043,3.9901,3.9982,3.9364,3.9072,3.8999,3.8803,3.8707,3.8707,3.8707,3.8707,3.8627,3.7738,3.738,3.7254,3.6205,3.5705,3.5622,3.5622,3.5622,3.5622,3.5622,3.5622,3.5622,3.5622,3.547,3.5362,3.5362,3.4447,3.3391,3.3391,3.2461,3.1482,3.1482,3.1482,3.1482,3.1482,3.1482,3.1319,3.0732,3.0075,2.9319,2.8493,2.7628,2.7023,2.6797,2.6653,2.6533,2.6533,2.6533,2.5971,2.4541,2.3288,2.1868,2.0272,1.8992,1.8202,1.8008,1.7823,1.6729,1.4538,1.3492,1.2889,1.264,1.189,1.139,1.1144,1.0194,0.9633,0.9669,0.8613,0.8012,0.7783,0.7022,0.6497,2.6294,2.665,2.721,2.896,2.9487,3.0211,3.2655,3.1387,3.0117,3.1601,3.2559,3.3125,3.3125,3.5156,3.6853,3.6895,3.6913,3.695,3.6993,3.619,3.563,3.5688,3.5642,3.5578,3.5501,3.5507,3.5834,3.6642,3.6757,3.718,3.8046,3.8142,3.8546,3.9354,3.9065,3.9319,4.012,3.9486,3.9314,3.9622,3.9264,3.899,3.8719,3.8707,3.8707,3.8707,3.8707,3.8707,3.8676,3.8065,3.7863,3.7767,3.6741,3.6044,3.5622,3.5622,3.5622,3.5622,3.5622,3.5622,3.5622,3.5622,3.5207,3.4688,3.4688,3.3735,3.2695,3.2695,3.212,3.1482,3.1482,3.1482,3.1482,3.1482,3.1482,3.1467,3.1437,3.1334,3.11,3.0278,2.9441,2.8589,2.7743,2.7011,2.6533,2.6533,2.6533,2.6068,2.4912,2.3945,2.2647,2.0747,1.9704,1.8844,1.8076,1.7203,1.6615,1.6401,1.5513,1.4599,1.3653,1.3564,1.3065,1.2218,1.1186,1.0657,1.0714,0.9669,0.8694,0.7783,0.7706,0.7173,2.496,2.6709,2.8602,2.9285,3.0704,3.2185,3.3164,3.3906,3.457,3.5234,3.5605,3.5664,3.5117,3.6269,3.7242,3.7069,3.7044,3.7183,3.7583,3.7332,3.7114,3.7096,3.7068,3.6834,3.6315,3.6257,3.6161,3.5968,3.643,3.6853,3.718,3.7555,3.8125,3.895,3.8233,3.8207,3.902,3.8589,3.8413,3.8559,3.8748,3.8803,3.8707,3.8707,3.8707,3.8707,3.8707,3.8707,3.8658,3.8099,3.7747,3.7374,3.6313,3.5759,3.5622,3.5622,3.5622,3.5622,3.5622,3.5622,3.5622,3.5622,3.5424,3.5144,3.4736,3.3937,3.3145,3.2749,3.2064,3.1482,3.1482,3.1482,3.1482,3.1482,3.1482,3.1482,3.1482,3.1127,3.0646,3.033,2.9628,2.8911,2.8554,2.7838,2.7263,2.7263,2.6464,2.5673,2.4898,2.3778,2.2415,2.0786,1.9375,1.8327,1.8008,1.7658,1.7474,1.7474,1.6019,1.5046,1.4615,1.4007,1.3564,1.3145,1.219,1.1706,1.1694,1.0714,0.9744,0.8694,0.8084,0.7249,2.4994,2.7352,2.9979,3.0253,3.2085,3.3945,3.4512,3.5371,3.6387,3.748,3.748,3.7109,3.6462,3.6832,3.7262,3.7347,3.7389,3.7642,3.8315,3.8202,3.8048,3.8003,3.8007,3.7777,3.718,3.7123,3.6892,3.6334,3.6546,3.6699,3.6699,3.6766,3.7182,3.7985,3.7119,3.7058,3.7863,3.7541,3.7376,3.7394,3.8,3.845,3.8707,3.8707,3.8707,3.8707,3.8707,3.8578,3.8415,3.7889,3.7309,3.6622,3.5899,3.5622,3.5622,3.5622,3.5622,3.5622,3.5622,3.5622,3.5622,3.5622,3.5622,3.547,3.4783,3.4137,3.3443,3.2788,3.2064,3.1482,3.1482,3.1482,3.1482,3.1482,3.1482,3.1482,3.1482,3.1055,3.0659,3.0659,2.9973,2.943,2.9408,2.866,2.8,2.7734,2.6775,2.573,2.4922,2.3796,2.2587,2.1158,1.9438,1.8388,1.8388,1.8183,1.8008,1.8008,1.682,1.5918,1.5643,1.4711,1.4048,1.3734,1.2802,1.2305,1.2305,1.162,1.0795,0.9744,0.9064,0.8008,2.6935,2.871,3.1036,3.1895,3.3434,3.5195,3.6914,3.5312,3.4434,3.7891,3.7949,3.7302,3.7136,3.7125,3.7331,3.7992,3.8114,3.8388,3.9191,3.8565,3.8027,3.8027,3.8027,3.8027,3.8007,3.8007,3.8007,3.8007,3.7199,3.6719,3.6719,3.5698,3.5486,3.6287,3.5791,3.5876,3.6702,3.6427,3.6303,3.6303,3.7092,3.79,3.8689,3.8689,3.8689,3.8689,3.8689,3.8364,3.7857,3.738,3.6562,3.5605,3.5605,3.5605,3.5605,3.5605,3.5605,3.5605,3.5622,3.5622,3.5622,3.5622,3.5622,3.547,3.4783,3.4137,3.3443,3.2788,3.2064,3.1482,3.1482,3.1482,3.1482,3.1482,3.1482,3.1482,3.1482,3.1482,3.1482,3.1482,3.0878,3.0322,3.0322,2.9566,2.8707,2.785,2.7235,2.6388,2.4947,2.433,2.3443,2.2061,2.0325,1.9301,1.9312,1.8476,1.8008,1.8008,1.8008,1.7571,1.6674,1.5713,1.4737,1.3734,1.2802,1.2298,1.2298,1.2305,1.1768,1.0783,1.0783,0.9734,2.6178,2.9201,3.2557,3.2244,3.4824,3.7578,3.8105,3.8086,3.8262,3.9297,4.0254,4.0291,3.8365,3.8514,3.8959,3.901,3.9015,3.9277,4.0038,3.9912,3.9758,3.9758,3.9758,3.9527,3.8969,3.8911,3.8661,3.8046,3.7757,3.7603,3.7603,3.713,3.7129,3.7688,3.6822,3.637,3.6417,3.6342,3.5991,3.5404,3.6248,3.678,3.7019,3.7588,3.7551,3.7019,3.7019,3.6923,3.6705,3.5847,3.5775,3.6043,3.4627,3.4389,3.4831,3.482,3.4827,3.4895,3.5436,3.5622,3.5622,3.5622,3.5622,3.547,3.4783,3.4137,3.3443,3.2788,3.2064,3.1482,3.1482,3.1482,3.1482,3.1482,3.1482,3.1482,3.1482,3.1482,3.1482,3.1482,3.1304,3.1157,3.1157,3.0098,2.8961,2.8158,2.6687,2.5123,2.3788,2.2985,2.238,2.1963,2.0862,2.0226,2.0211,1.9411,1.8927,1.8927,1.8368,1.791,1.7571,1.6716,1.6009,1.5723,1.4137,1.331,1.331,1.2592,1.1768,1.0783,1.0783,1.0115,2.8754,3.2008,3.543,3.5293,3.7207,3.9199,3.9487,3.9725,3.9882,3.9839,4.0619,4.0918,3.9559,3.9461,3.9641,3.9818,3.9837,3.999,4.0427,4.0489,4.0489,4.0489,4.0489,4.0296,3.9815,3.9777,3.9546,3.9027,3.87,3.8458,3.8326,3.7736,3.7482,3.7657,3.6931,3.6454,3.6285,3.6303,3.6046,3.5532,3.6376,3.6597,3.6321,3.6798,3.6743,3.6285,3.5884,3.5684,3.5615,3.4666,3.462,3.5118,3.4179,3.41,3.4525,3.482,3.4945,3.4962,3.5115,3.5368,3.5571,3.5267,3.5368,3.547,3.4783,3.4137,3.3443,3.2788,3.2064,3.1407,3.1195,3.112,3.112,3.112,3.112,3.112,3.112,3.0926,3.0821,3.1046,3.0914,3.0738,3.0776,2.9991,2.9131,2.834,2.6472,2.4622,2.3283,2.2702,2.2384,2.2384,2.1634,2.0968,2.0618,1.9803,1.9138,1.8809,1.8291,1.8008,1.8008,1.7116,1.6569,1.6614,1.5054,1.4314,1.4307,1.331,1.2572,1.197,1.1533,1.087,3.2943,3.5779,3.8691,3.9551,3.9883,4.0193,4.0945,4.0591,4.0015,3.9747,3.9754,3.9967,4.0497,4.0002,3.9741,4.0385,4.0489,4.0489,4.0489,4.0489,4.0489,4.0489,4.0489,4.0489,4.0489,4.0489,4.0489,4.0489,3.98,3.9243,3.8937,3.79,3.7201,3.6931,3.6676,3.6497,3.6413,3.6413,3.6358,3.6303,3.7037,3.7,3.6303,3.6376,3.6358,3.6256,3.5349,3.4954,3.4891,3.3945,3.355,3.3613,3.4134,3.4351,3.4474,3.5064,3.5351,3.5318,3.4624,3.4844,3.5301,3.4624,3.4912,3.5352,3.4712,3.4039,3.3399,3.2748,3.1982,3.1225,3.0657,3.0462,3.0402,3.0342,3.0372,3.0417,3.0417,2.9983,2.9783,3.0318,2.9988,2.9595,2.9604,2.9529,2.9183,2.825,2.6356,2.4588,2.3368,2.3138,2.3078,2.3078,2.2455,2.1669,2.09,2.0015,1.9187,1.8299,1.8183,1.8095,1.8008,1.7203,1.6725,1.6745,1.5833,1.5305,1.5234,1.4171,1.3673,1.3528,1.2739,1.1842,3.1191,3.4433,3.7793,3.8652,3.9838,4.0987,4.1831,4.1822,4.1253,3.9896,4.0123,4.0385,3.9785,4.0091,4.0449,4.0481,4.0489,4.0489,4.0489,4.0489,4.0489,4.0489,4.0489,4.0489,4.0489,4.0489,4.0489,4.0489,4.0132,3.991,3.9814,3.934,3.8912,3.8577,3.8515,3.809,3.7268,3.7221,3.6909,3.6303,3.6468,3.6468,3.6321,3.6945,3.689,3.6285,3.6072,3.609,3.6208,3.4977,3.4651,3.4775,3.3351,3.3148,3.3583,3.316,3.3372,3.3863,3.3694,3.3744,3.3863,3.3694,3.4134,3.458,3.3859,3.3261,3.2766,3.2596,3.1303,3.0073,3.0417,3.0148,2.9654,2.9131,2.94,2.9774,2.9774,2.9669,2.9619,2.975,2.9689,2.9577,2.9623,2.9149,2.8389,2.7103,2.5505,2.4379,2.4073,2.3484,2.3078,2.3078,2.2955,2.276,2.2565,2.1812,2.0963,2.0133,1.94,1.8741,1.8018,1.7823,1.7687,1.7676,1.6793,1.593,1.5234,1.4171,1.331,1.2592,1.2372,1.215,3.2656,3.5586,3.832,3.9953,4.0994,4.1827,4.2649,4.2778,4.2458,4.1519,4.1354,4.108,4.0121,4.0307,4.0568,4.0519,4.0489,4.0489,4.0489,4.0489,4.0489,4.0489,4.0489,4.0489,4.0489,4.0489,4.0457,4.0321,4.0177,3.9962,3.9645,3.9457,3.9205,3.8923,3.8923,3.8641,3.8065,3.8065,3.7863,3.7441,3.7441,3.7441,3.7441,3.7092,3.6564,3.5915,3.5693,3.5537,3.5395,3.45,3.4216,3.4333,3.3617,3.3584,3.3914,3.3905,3.4117,3.4404,3.4049,3.4167,3.4404,3.4049,3.4438,3.4962,3.459,3.4031,3.3535,3.3551,3.2289,3.1028,3.1043,3.0528,2.9864,2.922,2.9086,2.9116,2.9116,2.8846,2.8749,2.9057,2.8869,2.8656,2.8627,2.8364,2.7748,2.6645,2.5563,2.4681,2.435,2.359,2.3078,2.3078,2.3078,2.2955,2.2552,2.1761,2.0929,2.0061,1.9183,1.8466,1.8018,1.8008,1.8008,1.8008,1.7501,1.7001,1.6515,1.5587,1.4871,1.4363,1.3875,1.3448,3.3437,3.6347,3.9017,4.1807,4.2471,4.2643,4.3419,4.3569,4.3529,4.3402,4.2744,4.195,4.1097,4.095,4.095,4.095,4.0816,4.0719,4.0719,4.0585,4.0489,4.0489,4.0489,4.0489,4.0489,4.0489,4.0406,4.0177,4.012,3.9819,3.9212,3.9133,3.8971,3.8707,3.8707,3.8707,3.8707,3.8707,3.8707,3.8707,3.8707,3.8707,3.8652,3.7312,3.6413,3.5912,3.5489,3.5049,3.4606,3.4129,3.3859,3.3751,3.4314,3.4492,3.4556,3.5047,3.5318,3.5318,3.4573,3.4709,3.5131,3.4506,3.481,3.5402,3.5284,3.486,3.4442,3.4394,3.3478,3.2335,3.1883,3.1259,3.0507,2.99,2.9358,2.8899,2.8824,2.8344,2.8105,2.8682,2.8293,2.7925,2.7976,2.7955,2.775,2.7108,2.627,2.5449,2.4727,2.3863,2.3251,2.3078,2.3078,2.2845,2.2152,2.1464,2.0659,1.9823,1.9076,1.8554,1.8203,1.8203,1.8183,1.8008,1.8008,1.794,1.7794,1.7001,1.6498,1.6349,1.5587,1.4736,2.7832,3.2645,3.8263,4.2264,4.3161,4.3307,4.4156,4.4269,4.4168,4.4155,4.3519,4.2906,4.2777,4.2758,4.2758,4.2758,4.2124,4.1643,4.1643,4.0969,4.0489,4.0489,4.0489,4.0489,4.0489,4.0489,4.0489,4.0457,4.0232,3.9922,3.9552,3.9264,3.8971,3.8707,3.8707,3.8707,3.8707,3.8707,3.8707,3.8707,3.8707,3.8707,3.8689,3.8487,3.8104,3.7587,3.75,3.7201,3.6755,3.6207,3.5618,3.501,3.4643,3.4515,3.4421,3.3897,3.41,3.4539,3.3795,3.3609,3.3694,3.3592,3.4049,3.4523,3.3897,3.3707,3.37,3.367,3.2723,3.1853,3.2364,3.1946,3.1272,3.0643,3.0412,3.0145,2.9591,2.941,2.935,2.9456,2.9411,2.935,2.932,2.9297,2.931,2.9203,2.7897,2.6779,2.6183,2.4805,2.369,2.3188,2.3078,2.3053,2.2955,2.2845,2.2442,2.1609,2.143,2.0733,1.9203,1.9124,1.8751,1.8008,1.8008,1.7579,1.6784,1.6636,1.621,1.5376,1.5234,1.5163,2.8887,3.3795,3.861,4.1852,4.3355,4.4256,4.5054,4.5167,4.5143,4.5143,4.48,4.4201,4.3278,4.3104,4.3104,4.3104,4.2777,4.2527,4.2527,4.22,4.195,4.195,4.195,4.1758,4.1277,4.1046,4.0672,4.0023,3.9694,3.9408,3.91,3.897,3.8815,3.8707,3.8707,3.8707,3.8707,3.8707,3.8707,3.8707,3.8707,3.8707,3.8707,3.8707,3.8433,3.7893,3.7893,3.745,3.6737,3.6522,3.601,3.5467,3.5193,3.5098,3.5081,3.4759,3.4844,3.5081,3.4759,3.4641,3.4641,3.4641,3.4861,3.5064,3.4742,3.4667,3.4722,3.4676,3.3994,3.3371,3.3632,3.2944,3.2091,3.1778,3.142,3.1016,3.0728,3.0102,2.9592,2.9591,2.9605,2.9603,2.96,2.9575,2.9605,2.9594,2.8608,2.7782,2.757,2.6155,2.5068,2.4796,2.4366,2.4079,2.4079,2.3592,2.3145,2.2787,2.2313,2.1487,2.0164,2.0159,1.9675,1.8765,1.8262,1.7794,1.7354,1.7354,1.7148,1.6793,1.6793,1.6507,2.9816,3.3715,3.6974,4.0805,4.2888,4.4295,4.5512,4.5769,4.5747,4.5747,4.5665,4.522,4.397,4.3739,4.3739,4.3739,4.3547,4.3393,4.3393,4.3239,4.3104,4.3104,4.3104,4.2835,4.22,4.1819,4.1239,4.0397,3.9846,3.9407,3.9098,3.8914,3.8762,3.8707,3.8707,3.8707,3.8707,3.8707,3.8707,3.8707,3.8707,3.8707,3.8707,3.8707,3.8433,3.7893,3.7755,3.7155,3.6182,3.6182,3.5985,3.5622,3.5622,3.5622,3.5622,3.5622,3.5622,3.5622,3.5622,3.5622,3.5622,3.5622,3.5622,3.5622,3.5622,3.5622,3.556,3.5407,3.5098,3.48,3.4431,3.3735,3.3039,3.2695,3.216,3.1739,3.1524,3.0769,3.0057,3.0098,3.0081,3.0059,3.0063,3.0075,3.0086,3.0103,2.9386,2.8771,2.8368,2.7174,2.6179,2.5785,2.518,2.482,2.482,2.4201,2.3828,2.3838,2.322,2.244,2.1534,2.1217,2.0625,1.9687,1.8786,1.8356,1.834,1.834,1.834,1.834,1.834,1.7963,2.7832,2.9555,3.1476,3.8993,4.1415,4.2626,4.5208,4.5692,4.5603,4.5603,4.5603,4.5566,4.549,4.547,4.547,4.547,4.4778,4.4239,4.4239,4.3585,4.3104,4.3104,4.3104,4.3085,4.3047,4.2661,4.2406,4.2347,4.1321,4.0572,4.0244,3.95,3.8961,3.8707,3.8707,3.8707,3.8707,3.8707,3.8707,3.8707,3.8707,3.8707,3.8707,3.8707,3.8433,3.7877,3.7433,3.6626,3.5667,3.5667,3.5622,3.5622,3.5622,3.5622,3.5622,3.5622,3.5622,3.5622,3.5622,3.5622,3.5622,3.5622,3.5622,3.5622,3.5622,3.5622,3.547,3.4847,3.5098,3.527,3.3987,3.4087,3.4186,3.2895,3.2586,3.2327,3.164,3.148,3.142,3.1377,3.1392,3.1407,3.1392,3.1392,3.1392,3.1377,3.0734,2.9697,2.8377,2.7444,2.6373,2.4999,2.482,2.482,2.482,2.4775,2.471,2.4757,2.4688,2.4249,2.3384,2.2444,2.1578,2.0769,1.9725,1.9222,1.9219,1.9219,1.9219,1.9219,1.9219,1.9219,2.4373,2.7254,3.038,3.4764,3.8081,4.0636,4.2068,4.3631,4.4759,4.4759,4.5201,4.5586,4.5586,4.5586,4.5586,4.5586,4.5336,4.5124,4.5124,4.4893,4.4701,4.4701,4.4701,4.447,4.3912,4.3342,4.2787,4.2276,4.1463,4.094,4.0837,4.056,4.0351,4.0249,4.0249,4.0249,4.0249,4.0249,4.0249,4.0249,4.0249,4.0249,4.023,3.9717,3.9181,3.8633,3.761,3.6803,3.6097,3.6097,3.5898,3.5622,3.5622,3.5622,3.5622,3.5622,3.5622,3.5622,3.5622,3.5622,3.5622,3.5622,3.5622,3.5622,3.5622,3.5622,3.556,3.5316,3.5407,3.547,3.5005,3.4736,3.4284,3.2949,3.2216,3.1796,3.1582,3.1482,3.1482,3.1482,3.1482,3.1482,3.1482,3.1482,3.1482,3.1482,3.1219,3.0881,3.0397,2.9608,2.865,2.7642,2.7,2.6437,2.5942,2.587,2.5882,2.5875,2.5884,2.5492,2.4498,2.4119,2.3209,2.1592,2.1191,2.0444,1.9287,1.9287,1.9287,1.9287,1.9287,1.9287,2.1729,2.4603,2.8061,3.1763,3.4555,3.7201,4.0293,4.2052,4.3258,4.4124,4.4989,4.5586,4.5586,4.5586,4.5586,4.5586,4.5586,4.5586,4.5586,4.5586,4.5586,4.5586,4.5586,4.5355,4.4778,4.4219,4.3629,4.2976,4.2172,4.1622,4.1515,4.1258,4.1111,4.1111,4.1111,4.1111,4.1111,4.1111,4.1111,4.1111,4.1111,4.1111,4.1093,4.0561,4.0002,3.9445,3.8394,3.7356,3.6392,3.6224,3.5941,3.5622,3.5622,3.5622,3.5622,3.5622,3.5622,3.5622,3.5622,3.5622,3.5622,3.5622,3.5622,3.5622,3.5622,3.5622,3.556,3.5316,3.5424,3.5515,3.5068,3.4447,3.3633,3.2477,3.1853,3.1482,3.1482,3.1482,3.1482,3.1482,3.1482,3.1482,3.1482,3.1482,3.1482,3.1482,3.1482,3.1409,3.1146,3.0644,2.9827,2.8684,2.8051,2.7351,2.6589,2.6533,2.6533,2.6533,2.6533,2.6202,2.5517,2.5176,2.4378,2.3056,2.2648,2.1717,2.0206,1.9856,1.9717,1.9717,1.9717,1.9717,0.0,0.0,0.0,3.0146,3.0953,3.2285,3.9905,4.0944,4.1008,4.3643,4.4855,4.547,4.5566,4.5586,4.5586,4.5586,4.5586,4.5586,4.5586,4.5586,4.5586,4.5586,4.5586,4.5586,4.5586,4.5302,4.4943,4.4606,4.3484,4.2662,4.2356,4.1607,4.1185,4.1185,4.1185,4.1185,4.1185,4.1185,4.1185,4.1185,4.1185,4.1185,4.1185,4.1115,4.0808,4.0293,3.9729,3.8322,3.6402,3.5895,3.5673,3.5656,3.5656,3.5639,3.5622,3.5622,3.5622,3.5622,3.5622,3.5622,3.5622,3.5622,3.5622,3.5622,3.5622,3.5622,3.547,3.4783,3.5098,3.5316,3.3987,3.3145,3.2477,3.1739,3.1524,3.1524,3.1524,3.1482,3.1482,3.1482,3.1482,3.1482,3.1482,3.1482,3.1482,3.1482,3.1482,3.1219,3.045,3.0329,2.9628,2.792,2.7736,2.7351,2.6589,2.6533,2.6533,2.6533,2.6533,2.6533,2.6533,2.5529,2.5046,2.4966,2.4068,2.3062,2.2027,2.1078,2.0644,2.0566,2.0566,2.0566,1.9323,0.0,0.0,0.0,0.0,0.0,3.2694,3.4334,3.6238,4.0642,4.1739,4.2662,4.5124,4.5586,4.5586,4.5586,4.5586,4.5586,4.5586,4.5586,4.5586,4.5586,4.5586,4.5586,4.5586,4.5074,4.4682,4.4624,4.38,4.3266,4.3149,4.2947,4.2837,4.2837,4.2837,4.2837,4.2837,4.2837,4.2837,4.2837,4.2837,4.2837,4.28,4.1795,4.1234,4.1032,3.95,3.8538,3.794,3.7461,3.6958,3.6451,3.6451,3.6113,3.5622,3.5622,3.5622,3.5622,3.5622,3.5622,3.5622,3.5622,3.5622,3.5622,3.5622,3.5622,3.556,3.5362,3.547,3.5515,3.5161,3.4544,3.3871,3.3166,3.2625,3.216,3.164,3.1482,3.1482,3.1482,3.1482,3.1482,3.1482,3.1482,3.1482,3.1482,3.1482,3.1409,3.1219,3.0644,2.9889,2.8748,2.8051,2.7351,2.6589,2.6533,2.6533,2.6533,2.6533,2.6533,2.6533,2.6214,2.5741,2.5034,2.4704,2.3701,2.2027,2.1735,2.1221,2.0566,2.0566,2.0566,1.9742,2.0773,2.2331,2.3543,0.0,0.0,3.0929,3.2468,3.4545,4.0373,4.1585,4.2297,4.4624,4.4778,4.4662,4.4989,4.5047,4.5182,4.5547,4.5586,4.5586,4.5586,4.5586,4.555,4.54,4.5052,4.4682,4.4373,4.3943,4.3646,4.3532,4.3497,4.3497,4.3497,4.3497,4.3497,4.3497,4.3497,4.3497,4.3497,4.3497,4.3497,4.3461,4.2649,4.214,4.1879,4.05,3.9809,3.9496,3.8993,3.8193,3.7246,3.7246,3.6975,3.6569,3.6569,3.6366,3.6096,3.6096,3.5893,3.5622,3.5622,3.5622,3.5622,3.5622,3.5622,3.5622,3.5622,3.5622,3.5532,3.5253,3.5127,3.4808,3.3799,3.3525,3.3185,3.2181,3.1951,3.1853,3.1582,3.1482,3.1482,3.1482,3.1482,3.1482,3.1482,3.1482,3.1482,3.1482,3.1087,3.0464,2.9628,2.8748,2.7894,2.7072,2.6676,2.6533,2.6533,2.6533,2.6533,2.6533,2.6533,2.6202,2.5635,2.5623,2.4849,2.322,2.2403,2.1517,2.0566,2.0566,2.0566,2.135,2.1947,2.3408,2.4832,2.412,0.0,3.1545,3.2545,3.3891,4.0354,4.17,4.2027,4.3124,4.2816,4.2624,4.3335,4.3778,4.4355,4.5316,4.5451,4.5451,4.5451,4.5451,4.5361,4.5118,4.5074,4.4738,4.4058,4.3955,4.3804,4.3513,4.3497,4.3497,4.3497,4.3497,4.3497,4.3497,4.3497,4.3497,4.3497,4.3497,4.3497,4.3497,4.3444,4.3124,4.2577,4.1937,4.1358,4.078,4.0286,3.9276,3.8024,3.8024,3.7973,3.7905,3.7905,3.7483,3.6907,3.6907,3.6451,3.5876,3.5876,3.5876,3.5876,3.5876,3.5876,3.5876,3.5876,3.5876,3.5723,3.5143,3.5463,3.5597,3.4274,3.4458,3.4553,3.3162,3.2757,3.249,3.1745,3.1526,3.1482,3.1482,3.1482,3.1482,3.1482,3.1482,3.1482,3.1482,3.1409,3.1087,3.0389,2.9504,2.8616,2.7759,2.7043,2.6571,2.6533,2.6533,2.6533,2.6533,2.6533,2.6533,2.6533,2.6383,2.5873,2.5004,2.2999,2.1593,2.0789,2.0644,2.0566,2.4966,2.4553,2.4736,2.4409,2.4582,0.0,2.588,2.6447,2.7948,3.2045,3.2891,3.3776,3.668,3.7623,3.8007,3.8161,4.0489,4.2816,4.4335,4.4547,4.4547,4.4547,4.4547,4.4708,4.5061,4.4849,4.4482,4.4046,4.3758,4.3563,4.3479,4.3497,4.3497,4.3497,4.3497,4.3497,4.3497,4.3497,4.3497,4.3497,4.3497,4.3497,4.3497,4.305,4.2541,4.1937,4.1358,4.075,4.0254,4.0171,3.9563,3.8785,3.8785,3.843,3.7905,3.7905,3.7821,3.7686,3.7686,3.7584,3.7466,3.7466,3.7466,3.7466,3.7466,3.7466,3.7466,3.7466,3.7466,3.7401,3.729,3.736,3.7248,3.6355,3.6268,3.6023,3.4585,3.3851,3.3224,3.2479,3.1898,3.1482,3.1482,3.1482,3.1482,3.1482,3.1482,3.1482,3.1482,3.0896,3.0464,3.0329,2.9504,2.8616,2.7759,2.7546,2.7169,2.6546,2.6533,2.6533,2.6533,2.6533,2.6533,2.6533,2.5734,2.5229,2.5004,2.2999,2.1886,2.1735,2.0934,2.0566,2.6871,2.6274,2.6409,2.5563,2.5313,0.0,0.0,2.6214,2.7156,3.178,3.1443,3.1187,3.4112,3.474,3.4949,3.5372,3.8315,4.0546,4.0508,4.3066,4.4951,4.4951,4.4951,4.4921,4.4858,4.4701,4.4364,4.3804,4.3597,4.3497,4.3497,4.3497,4.3497,4.3497,4.3497,4.3497,4.3497,4.3497,4.3497,4.3497,4.3497,4.3497,4.3479,4.3214,4.2619,4.1793,4.149,4.0891,4.007,4.007,3.9868,3.9529,3.9529,3.9309,3.8988,3.8988,3.8751,3.8447,3.8447,3.821,3.7905,3.7905,3.7905,3.7905,3.7905,3.7905,3.7905,3.7905,3.7905,3.7905,3.7905,3.8176,3.8248,3.7518,3.7318,3.6934,3.5514,3.4607,3.386,3.3171,3.2736,3.2407,3.2078,3.2018,3.2018,3.2018,3.2018,3.1898,3.1511,3.1161,3.0896,3.0896,3.0133,2.9454,2.9035,2.8186,2.7516,2.713,2.669,2.6533,2.6533,2.6533,2.6533,2.6533,2.6013,2.5734,2.5734,2.4253,2.2999,2.1962,2.1011,2.0566,2.8525,2.7926,2.8269,2.7097,2.6469,2.6485,0.0,0.0,0.0,3.1962,3.0916,2.9778,3.1756,3.1884,3.1852,3.2391,3.5622,3.745,3.5738,4.0335,4.3893,4.3893,4.447,4.4633,4.4013,4.3731,4.3549,4.3493,4.2928,4.2837,4.3461,4.3497,4.3497,4.3497,4.3497,4.3497,4.3497,4.3497,4.3497,4.3497,4.3497,4.3497,4.3497,4.3497,4.2903,4.181,4.181,4.115,4.007,4.007,4.007,4.007,4.007,4.007,4.007,4.007,3.9698,3.9208,3.9208,3.8819,3.8328,3.8328,3.8328,3.8328,3.8328,3.8328,3.8328,3.8328,3.8328,3.8328,3.8328,3.8768,3.9056,3.8464,3.8153,3.7675,3.6387,3.5367,3.4493,3.3848,3.3589,3.332,3.2796,3.2706,3.2706,3.2706,3.2706,3.2512,3.1973,3.1913,3.1913,3.1913,3.1278,3.0775,3.0527,2.9016,2.7998,2.7717,2.6917,2.6515,2.664,2.6728,2.6798,2.6697,2.6747,2.6798,2.6779,2.5776,2.4273,2.2253,2.1298,2.0789,3.1333,3.0439,3.0371,2.8051,2.835,2.831,2.4922,0.0,2.5796,2.4988,0.0,2.5659,2.5945,0.0,0.0,2.6428,3.0429,3.3045,3.1352,3.493,3.7719,3.7719,4.0392,4.208,4.1719,4.057,4.0849,4.3293,4.0855,4.0487,4.3332,4.3497,4.3497,4.3497,4.3497,4.3497,4.3497,4.3497,4.3497,4.3497,4.3497,4.3497,4.3497,4.3497,4.2903,4.181,4.181,4.115,4.007,4.007,4.007,4.007,4.007,4.007,4.007,4.007,4.002,3.9952,3.9952,3.9901,3.9834,3.9834,3.9834,3.9834,3.9834,3.9834,3.9834,3.9834,3.9834,3.9834,3.9834,3.9884,3.9935,3.9851,3.9306,3.8543,3.7753,3.6436,3.526,3.454,3.3903,3.3469,3.3395,3.338,3.338,3.338,3.338,3.3365,3.3275,3.3275,3.3275,3.3275,3.3199,3.2601,3.1232,3.0236,2.919,2.7803,2.6917,2.6716,2.7151,2.7635,2.7682,2.7205,2.7683,2.7936,2.7921,2.6915,2.5385,2.3294,2.2328,2.1375,3.1553,3.1893,3.2448,2.9547,2.9956,3.0,2.5887,2.4678,2.4492,2.4741,0.0,0.0,0.0,0.0,0.0,0.0,2.8286,3.0311,2.7587,3.0815,3.4259,3.6454,3.7969,3.9404,4.0877,3.9439,3.9667,4.2577,4.0249,3.99,4.2653,4.324,4.3497,4.3497,4.3497,4.3497,4.3497,4.3497,4.3497,4.3497,4.3497,4.3497,4.3497,4.3178,4.258,4.1768,4.1446,4.0844,4.007,4.007,4.007,4.007,4.007,4.007,4.007,4.007,4.007,4.007,4.007,4.007,4.007,4.007,4.007,4.007,4.007,4.007,4.007,4.007,4.007,4.007,4.007,4.007,4.007,4.007,3.9172,3.8206,3.7879,3.6596,3.547,3.5135,3.4846,3.4666,3.4666,3.4337,3.4068,3.4068,3.4068,3.3918,3.3544,3.3499,3.3499,3.3499,3.3499,3.3215,3.2571,3.175,3.0797,2.9551,2.8202,2.7532,2.7736,2.7943,2.8012,2.7784,2.7959,2.8136,2.8089,2.769,2.6688,2.5268,2.4301,2.3302,3.3277,3.3646,3.392,3.0471,3.0263,3.0036,2.6609,2.4995,2.4466,2.543,2.4694,0.0,0.0,0.0,2.544,2.4238,0.0,2.817,2.4964,2.7517,3.0795,3.3772,3.5128,3.6781,3.9218,3.7328,3.7429,4.1052,3.8652,3.8579,4.2103,4.2837,4.3259,4.3479,4.3497,4.3497,4.3497,4.3497,4.341,4.3286,4.3286,4.3196,4.3032,4.2637,4.2121,4.1534,4.1087,4.0625,4.007,4.007,4.007,4.007,4.007,4.007,4.007,4.007,4.007,4.007,4.007,4.007,4.007,4.007,4.007,4.007,4.007,4.007,4.007,4.007,4.007,4.007,4.007,4.007,4.007,4.007,3.9049,3.8035,3.7863,3.6768,3.5718,3.5569,3.5504,3.5504,3.5504,3.51,3.4756,3.4756,3.4756,3.4592,3.4113,3.4053,3.4053,3.4053,3.4053,3.3948,3.3785,3.2735,3.1493,3.0134,2.8933,2.826,2.8109,2.8394,2.8527,2.8337,2.8474,2.8599,2.8599,2.8575,2.8164,2.7436,2.6212,2.4993,3.8136,3.6109,3.4407,3.0418,2.8669,2.7518,2.5809,2.5972,2.6303,2.555,2.6745,2.7698,2.6972,2.7003,2.6607,2.4949,2.6151,0.0,0.0,2.5054,2.6518,2.749,3.1159,3.4244,3.5899,3.2951,3.3115,3.8426,3.5092,3.5587,4.1956,4.2323,4.269,4.3461,4.3497,4.3497,4.3497,4.3497,4.325,4.275,4.275,4.2422,4.1835,4.1853,4.149,4.0949,4.0903,4.0625,4.007,4.007,4.007,4.007,4.007,4.007,4.007,4.007,4.007,4.007,4.007,4.007,4.007,4.007,4.007,4.007,4.007,4.007,4.007,4.007,4.007,4.007,4.007,4.007,4.007,4.007,3.9489,3.869,3.7978,3.716,3.6322,3.5619,3.5504,3.5504,3.5504,3.5489,3.5474,3.5474,3.5474,3.5459,3.5444,3.5444,3.5444,3.5444,3.5444,3.515,3.4519,3.284,3.0774,2.8329,2.8585,2.8662,2.8134,2.9151,2.9491,2.8911,2.9479,2.9754,2.9754,2.9741,2.9741,2.9626,2.756,2.6071,4.0818,4.1409,4.1014,3.5385,3.4089,3.2797,2.742,2.6814,2.6998,2.5678,2.7261,2.8645,2.7846,2.7416,2.6975,2.626,2.6185,2.531,0.0,2.3316,2.4571,0.0,0.0,0.0,0.0,0.0,3.4203,3.6901,3.6321,3.7734,4.2066,4.2304,4.2671,4.3461,4.3497,4.3754,4.4287,4.3754,4.3941,4.4802,4.4273,4.3991,4.3906,4.3507,4.2973,4.2379,4.1456,4.1002,4.0781,4.029,4.007,4.007,4.007,4.007,4.007,4.007,4.007,4.007,4.007,4.007,4.007,4.007,4.007,4.007,4.007,4.007,4.007,4.007,4.007,4.007,4.007,4.007,4.007,4.007,3.9102,3.8092,3.7863,3.6768,3.5782,3.5569,3.5504,3.5504,3.5504,3.5504,3.5504,3.5504,3.5504,3.5504,3.5504,3.5504,3.5504,3.5504,3.5504,3.5394,3.5195,3.4018,3.2618,3.1151,3.0672,3.0033,2.9227,2.9591,2.9679,2.9529,2.9679,2.9792,2.9792,2.9792,2.9792,2.9779,2.9071,2.8154,4.4525,4.5149,4.469,3.968,3.8377,3.6798,3.0944,3.0228,3.0356,2.8705,2.9281,3.0331,3.1256,2.9481,2.7885,2.8042,2.6911,2.5226,0.0,2.34,0.0,0.0,0.0,0.0,0.0,0.0,0.0,3.6846,3.6009,3.7367,4.2047,4.2304,4.28,4.3883,4.392,4.4305,4.5131,4.4599,4.4657,4.5261,4.4714,4.4335,4.4021,4.367,4.3256,4.2842,4.1988,4.1593,4.1542,4.1068,4.0865,4.0865,4.0865,4.0865,4.0798,4.0273,4.007,4.007,4.007,4.007,4.007,4.007,4.007,4.007,4.007,4.007,4.007,4.007,4.007,4.007,4.007,4.007,4.007,4.007,3.9332,3.8486,3.7921,3.7011,3.6148,3.5619,3.5504,3.5504,3.5504,3.5504,3.5504,3.5504,3.5504,3.5504,3.5504,3.5504,3.5504,3.5504,3.5504,3.5365,3.5026,3.4356,3.3423,3.2199,3.1558,3.0758,2.9869,2.9792,2.9792,2.9792,2.9792,2.9792,2.9792,2.9792,2.9792,2.9792,2.9792,2.9443]}]]